[[{"header":{"parameterUnit":"m.s-1","parameterCategory":1,"la1":30.6,"la2":29.2853,"lo1":-89.7004,"lo2":-87.6739,"dy":0.0162,"dx":0.0183,"nx":112,"ny":82,"refTime":"2023-07-30T12:00:00:Z","depth":0,"parameterNumber":2,"parameterNumberName":"U-component_of_WINDS"},"data":[0.0,0.0,0.0,0.0,0.0,0.0,0.0,0.0,0.0,0.0,0.0,0.0,0.0,0.0,0.0,0.0,0.0,0.0,0.0,0.0,0.0,0.0,0.0,0.0,0.0,0.0,0.0,0.0,0.0,0.0,0.0,0.0,0.0,0.0,0.0,0.0,0.0,0.0,0.0,0.0,0.0,0.0,0.0,0.0,0.0,0.0,0.0,0.0,0.0,0.0,0.0,0.0,0.0,0.0,0.0,0.0,0.0,0.0,0.0,0.0,0.0,0.0,0.0,0.0,0.0,0.0,0.0,0.0,0.0,0.0,0.0,0.0,0.0,0.0,0.0,0.0,0.0,0.0,0.0,0.0,0.0,0.0,0.0,0.0,0.0,0.0,0.0,0.0,0.0,0.0,0.0,-1.3198,-1.3198,-1.3198,-1.3198,-1.3198,-1.3198,-1.3198,0.0,0.0,0.0,0.0,0.0,0.0,0.0,0.0,0.0,0.0,0.0,0.0,0.0,0.0,0.0,0.0,0.0,0.0,0.0,0.0,0.0,0.0,0.0,0.0,0.0,0.0,0.0,0.0,0.0,0.0,0.0,0.0,0.0,0.0,0.0,0.0,0.0,0.0,0.0,0.0,0.0,0.0,0.0,0.0,0.0,0.0,0.0,0.0,0.0,0.0,0.0,0.0,0.0,0.0,0.0,0.0,0.0,0.0,0.0,0.0,0.0,0.0,0.0,0.0,0.0,0.0,0.0,0.0,0.0,0.0,0.0,0.0,0.0,0.0,0.0,0.0,0.0,0.0,0.0,0.0,0.0,0.0,0.0,0.0,0.0,0.0,0.0,0.0,0.0,0.0,0.0,0.0,0.0,0.0,0.0,0.0,0.0,0.0,0.0,0.0,0.0,0.0,0.0,0.0,-1.3198,-1.3198,-1.3198,-1.3198,-1.3198,-1.3198,-1.3198,-1.3198,0.0,0.0,0.0,0.0,0.0,0.0,0.0,0.0,0.0,0.0,0.0,0.0,0.0,0.0,0.0,0.0,0.0,0.0,0.0,0.0,0.0,0.0,0.0,0.0,0.0,0.0,0.0,0.0,0.0,0.0,0.0,0.0,0.0,0.0,0.0,0.0,0.0,0.0,0.0,0.0,0.0,0.0,0.0,0.0,0.0,0.0,0.0,0.0,0.0,0.0,0.0,0.0,0.0,0.0,0.0,0.0,0.0,0.0,0.0,0.0,0.0,0.0,0.0,0.0,0.0,0.0,0.0,0.0,0.0,0.0,0.0,0.0,0.0,0.0,0.0,0.0,0.0,0.0,0.0,0.0,0.0,0.0,0.0,0.0,0.0,0.0,0.0,0.0,0.0,0.0,0.0,0.0,0.0,0.0,0.0,0.0,0.0,0.0,0.0,0.0,0.0,0.0,0.0,-1.3198,-1.3198,-1.3198,-1.3198,-1.3198,-1.3198,-1.3198,-1.3198,-1.3198,-1.3198,0.0,0.0,0.0,0.0,0.0,0.0,0.0,0.0,0.0,0.0,0.0,0.0,0.0,0.0,0.0,0.0,0.0,0.0,0.0,0.0,0.0,0.0,0.0,0.0,0.0,0.0,0.0,0.0,0.0,0.0,0.0,0.0,0.0,0.0,0.0,0.0,0.0,0.0,0.0,0.0,0.0,0.0,0.0,0.0,0.0,0.0,0.0,0.0,0.0,0.0,0.0,0.0,0.0,0.0,0.0,0.0,0.0,0.0,0.0,0.0,0.0,0.0,0.0,0.0,0.0,0.0,0.0,0.0,0.0,0.0,0.0,0.0,0.0,0.0,0.0,0.0,0.0,0.0,0.0,0.0,0.0,0.0,0.0,0.0,0.0,0.0,0.0,0.0,0.0,0.0,0.0,0.0,0.0,0.0,0.0,0.0,0.0,0.0,0.0,0.0,0.0,0.0,-1.3198,-1.3198,-1.3198,-1.3198,-1.3198,-1.3198,-1.3198,-1.3198,-1.3198,-1.3198,0.0,0.0,0.0,0.0,0.0,0.0,0.0,0.0,0.0,0.0,0.0,0.0,0.0,0.0,0.0,0.0,0.0,0.0,0.0,0.0,0.0,0.0,0.0,0.0,0.0,0.0,0.0,0.0,0.0,0.0,0.0,0.0,0.0,0.0,0.0,0.0,0.0,0.0,0.0,0.0,0.0,0.0,0.0,0.0,0.0,0.0,0.0,0.0,0.0,0.0,0.0,0.0,0.0,0.0,0.0,0.0,0.0,0.0,0.0,0.0,0.0,0.0,0.0,0.0,0.0,0.0,0.0,0.0,0.0,0.0,0.0,0.0,0.0,0.0,0.0,0.0,0.0,0.0,0.0,0.0,0.0,0.0,0.0,0.0,0.0,0.0,0.0,0.0,0.0,0.0,0.0,0.0,0.0,0.0,0.0,0.0,0.0,0.0,0.0,0.0,0.0,0.0,-1.3198,-1.3198,-1.3198,-1.3198,-1.3198,-1.3198,-1.3198,-1.3198,-1.3198,-1.3198,0.0,0.0,0.0,0.0,0.0,0.0,0.0,0.0,0.0,0.0,0.0,0.0,0.0,0.0,0.0,0.0,0.0,0.0,0.0,0.0,0.0,0.0,0.0,0.0,0.0,0.0,0.0,0.0,0.0,0.0,0.0,0.0,0.0,0.0,0.0,0.0,0.0,0.0,0.0,0.0,0.0,0.0,0.0,0.0,0.0,0.0,0.0,0.0,0.0,0.0,0.0,0.0,0.0,0.0,0.0,0.0,0.0,0.0,0.0,0.0,0.0,0.0,0.0,0.0,0.0,0.0,0.0,0.0,0.0,0.0,0.0,0.0,0.0,0.0,0.0,0.0,0.0,0.0,0.0,0.0,0.0,0.0,0.0,0.0,0.0,0.0,0.0,0.0,0.0,0.0,0.0,0.0,0.0,0.0,0.0,0.0,0.0,0.0,0.0,0.0,0.0,0.0,-1.3198,-1.3198,0.0,-1.3198,-1.3198,-1.3198,-1.3198,-1.3198,-1.3198,0.0,0.0,0.0,0.0,0.0,0.0,0.0,0.0,0.0,0.0,0.0,0.0,0.0,0.0,0.0,0.0,0.0,0.0,0.0,0.0,0.0,0.0,0.0,0.0,0.0,0.0,0.0,0.0,0.0,0.0,0.0,0.0,0.0,0.0,0.0,0.0,0.0,0.0,0.0,0.0,0.0,0.0,0.0,0.0,0.0,0.0,0.0,0.0,0.0,0.0,0.0,0.0,0.0,0.0,0.0,0.0,0.0,0.0,0.0,0.0,0.0,0.0,0.0,0.0,0.0,0.0,0.0,0.0,0.0,0.0,0.0,0.0,0.0,0.0,0.0,0.0,0.0,0.0,0.0,0.0,0.0,0.0,0.0,0.0,0.0,0.0,0.0,0.0,0.0,0.0,0.0,0.0,0.0,0.0,0.0,0.0,0.0,0.0,0.0,0.0,0.0,0.0,-1.3198,-1.3198,-1.3198,0.0,-1.3198,-1.3181,-1.3163,-1.3163,-1.3146,-1.3112,0.0,0.0,0.0,0.0,0.0,0.0,0.0,0.0,0.0,0.0,0.0,0.0,0.0,0.0,0.0,0.0,0.0,0.0,0.0,0.0,0.0,0.0,0.0,0.0,0.0,0.0,0.0,0.0,0.0,0.0,0.0,0.0,0.0,0.0,0.0,0.0,0.0,0.0,0.0,0.0,0.0,0.0,0.0,0.0,0.0,0.0,0.0,0.0,0.0,0.0,0.0,0.0,0.0,0.0,0.0,0.0,0.0,0.0,0.0,0.0,0.0,0.0,0.0,0.0,0.0,0.0,0.0,0.0,0.0,0.0,0.0,0.0,0.0,0.0,0.0,0.0,0.0,0.0,0.0,0.0,0.0,0.0,0.0,0.0,0.0,0.0,0.0,0.0,0.0,0.0,0.0,0.0,0.0,0.0,0.0,0.0,0.0,0.0,0.0,0.0,0.0,0.0,-1.3223,-1.3223,-1.3223,-1.3223,-1.3223,-1.3188,-1.3119,-1.3119,-1.3055,0.0,0.0,0.0,0.0,0.0,0.0,0.0,0.0,0.0,0.0,0.0,0.0,0.0,0.0,0.0,0.0,0.0,0.0,0.0,0.0,0.0,0.0,0.0,0.0,0.0,0.0,0.0,0.0,0.0,0.0,0.0,0.0,0.0,0.0,0.0,0.0,0.0,0.0,0.0,0.0,0.0,0.0,0.0,0.0,0.0,0.0,0.0,0.0,0.0,0.0,0.0,0.0,0.0,0.0,0.0,0.0,0.0,0.0,0.0,0.0,0.0,0.0,0.0,0.0,0.0,0.0,0.0,0.0,0.0,0.0,0.0,0.0,0.0,0.0,0.0,0.0,0.0,0.0,0.0,0.0,0.0,0.0,0.0,0.0,0.0,0.0,0.0,0.0,0.0,0.0,0.0,0.0,0.0,0.0,0.0,0.0,0.0,0.0,0.0,0.0,0.0,0.0,0.0,-1.4406,-1.4406,-1.4406,-1.4406,-1.4406,-1.435,-1.4231,-1.4231,-1.4174,-1.4036,0.0,0.0,0.0,0.0,0.0,0.0,0.0,0.0,0.0,0.0,0.0,0.0,0.0,0.0,0.0,0.0,0.0,0.0,0.0,0.0,0.0,0.0,0.0,0.0,0.0,0.0,0.0,0.0,0.0,0.0,0.0,0.0,0.0,0.0,0.0,0.0,0.0,0.0,0.0,0.0,0.0,0.0,0.0,0.0,0.0,0.0,0.0,0.0,0.0,0.0,0.0,0.0,0.0,0.0,0.0,0.0,0.0,0.0,0.0,0.0,0.0,0.0,0.0,0.0,0.0,0.0,0.0,0.0,0.0,0.0,0.0,0.0,0.0,0.0,0.0,0.0,0.0,0.0,0.0,0.0,0.0,0.0,0.0,0.0,0.0,0.0,0.0,0.0,0.0,0.0,0.0,0.0,0.0,0.0,0.0,0.0,0.0,0.0,0.0,0.0,0.0,0.0,-1.4896,-1.4858,-1.4838,-1.4896,-1.4896,-1.4838,-1.4676,-1.4656,-1.4597,-1.4435,0.0,0.0,0.0,0.0,0.0,0.0,0.0,0.0,0.0,0.0,0.0,0.0,0.0,0.0,0.0,0.0,0.0,0.0,0.0,0.0,0.0,0.0,0.0,0.0,0.0,0.0,0.0,0.0,0.0,0.0,0.0,0.0,0.0,0.0,0.0,0.0,0.0,0.0,0.0,0.0,0.0,0.0,0.0,0.0,0.0,0.0,0.0,0.0,0.0,0.0,0.0,0.0,0.0,0.0,0.0,0.0,0.0,0.0,0.0,0.0,0.0,0.0,0.0,0.0,0.0,0.0,0.0,0.0,0.0,0.0,0.0,0.0,0.0,0.0,0.0,0.0,0.0,0.0,0.0,0.0,0.0,0.0,0.0,0.0,0.0,0.0,0.0,0.0,0.0,0.0,0.0,0.0,0.0,0.0,0.0,0.0,0.0,0.0,0.0,0.0,0.0,0.0,-1.5028,-1.493,-1.4903,-1.5028,-1.5047,-1.4962,-1.4757,-1.4737,-1.4665,-1.4474,0.0,0.0,0.0,0.0,0.0,0.0,0.0,0.0,0.0,0.0,0.0,0.0,0.0,0.0,0.0,0.0,0.0,0.0,0.0,0.0,0.0,0.0,0.0,0.0,0.0,0.0,0.0,0.0,0.0,0.0,0.0,0.0,0.0,0.0,0.0,0.0,0.0,0.0,0.0,0.0,0.0,0.0,0.0,0.0,0.0,0.0,0.0,0.0,0.0,0.0,0.0,0.0,0.0,0.0,0.0,0.0,0.0,0.0,0.0,0.0,-1.8818,0.0,0.0,0.0,0.0,0.0,0.0,0.0,0.0,0.0,0.0,0.0,0.0,0.0,0.0,0.0,0.0,0.0,0.0,0.0,0.0,0.0,0.0,0.0,0.0,0.0,0.0,0.0,0.0,0.0,0.0,0.0,0.0,0.0,0.0,0.0,0.0,0.0,0.0,0.0,0.0,0.0,-1.6065,-1.6056,-1.6044,-1.6077,-1.6086,-1.598,-1.5724,-1.5801,-1.5801,-1.566,0.0,0.0,0.0,0.0,0.0,0.0,0.0,0.0,0.0,0.0,0.0,0.0,0.0,0.0,0.0,0.0,0.0,0.0,0.0,0.0,0.0,0.0,0.0,0.0,0.0,0.0,0.0,0.0,0.0,0.0,0.0,0.0,0.0,0.0,0.0,0.0,0.0,0.0,0.0,0.0,0.0,0.0,0.0,0.0,0.0,0.0,0.0,0.0,0.0,0.0,0.0,0.0,0.0,0.0,0.0,0.0,0.0,0.0,0.0,0.0,0.0,-1.9296,0.0,0.0,0.0,0.0,0.0,0.0,0.0,0.0,0.0,0.0,0.0,0.0,0.0,0.0,0.0,0.0,0.0,0.0,0.0,0.0,0.0,0.0,0.0,0.0,0.0,0.0,0.0,0.0,0.0,0.0,0.0,0.0,0.0,0.0,0.0,0.0,0.0,0.0,0.0,0.0,-1.6371,-1.634,-1.634,-1.6392,-1.6392,-1.6284,-1.601,-1.6122,-1.6144,-1.6022,-1.596,0.0,0.0,0.0,0.0,0.0,0.0,0.0,0.0,0.0,0.0,0.0,0.0,0.0,0.0,0.0,0.0,0.0,0.0,0.0,0.0,0.0,0.0,0.0,0.0,0.0,0.0,0.0,0.0,0.0,0.0,0.0,0.0,0.0,0.0,0.0,0.0,0.0,0.0,0.0,0.0,0.0,0.0,0.0,0.0,0.0,0.0,0.0,0.0,0.0,0.0,0.0,0.0,0.0,-2.1712,-2.1567,-2.1433,-2.1375,-2.1837,-2.2631,-2.1628,-2.1915,-2.286,0.0,0.0,0.0,0.0,0.0,0.0,0.0,0.0,0.0,0.0,0.0,0.0,0.0,0.0,0.0,0.0,0.0,0.0,0.0,0.0,0.0,0.0,0.0,0.0,0.0,-1.4291,-1.5679,0.0,0.0,0.0,0.0,0.0,0.0,0.0,0.0,0.0,0.0,0.0,0.0,-1.6328,-1.6275,-1.6231,-1.6362,-1.6383,-1.6275,-1.6001,-1.6122,-1.6144,-1.6044,-1.6284,-1.6193,0.0,0.0,0.0,0.0,0.0,0.0,0.0,0.0,0.0,0.0,0.0,0.0,0.0,0.0,0.0,0.0,0.0,0.0,0.0,0.0,0.0,0.0,0.0,0.0,0.0,0.0,0.0,0.0,0.0,0.0,0.0,0.0,-2.2791,-2.1758,0.0,0.0,0.0,0.0,0.0,0.0,0.0,0.0,0.0,0.0,0.0,0.0,0.0,-2.3217,-2.4406,-2.4148,-2.4039,-2.4082,-2.3865,-2.3704,-2.3587,-2.3587,-2.3817,-2.4194,-2.4056,0.0,-2.239,-2.214,0.0,0.0,0.0,0.0,0.0,0.0,0.0,0.0,0.0,0.0,0.0,0.0,0.0,0.0,0.0,0.0,0.0,0.0,0.0,0.0,0.0,0.0,-1.8215,-1.8239,-1.824,-1.8216,0.0,-1.6871,-1.5784,-1.5879,-1.575,0.0,0.0,0.0,0.0,0.0,0.0,0.0,-1.6188,-1.6222,-1.6222,-1.6222,-1.6244,-1.6134,-1.5859,-1.6069,-1.6188,-1.6166,-1.6371,-1.6441,-1.6366,-1.6387,0.0,0.0,0.0,0.0,0.0,0.0,0.0,0.0,0.0,0.0,0.0,0.0,0.0,0.0,0.0,0.0,0.0,0.0,0.0,0.0,0.0,0.0,0.0,0.0,0.0,0.0,0.0,0.0,0.0,-2.1287,-2.2118,-2.0882,-2.1195,-2.0797,0.0,0.0,0.0,0.0,0.0,0.0,0.0,0.0,0.0,-2.2804,-2.294,-2.3567,-2.4826,-2.473,-2.4924,-2.542,-2.5303,-2.5403,-2.5647,-2.5647,-2.5696,-2.5817,-2.554,-2.5046,-2.4333,-2.3228,-2.2116,-2.0925,0.0,0.0,0.0,0.0,-1.675,-1.7448,-1.8734,-1.9588,0.0,0.0,0.0,0.0,0.0,0.0,0.0,0.0,0.0,0.0,0.0,0.0,0.0,-1.9486,-1.9862,-2.0174,-2.0268,-1.8859,-1.7257,0.0,-1.5836,-1.5738,-1.5869,0.0,0.0,0.0,0.0,0.0,-1.6275,-1.6253,-1.6244,-1.6297,-1.6318,-1.6231,-1.6035,-1.621,-1.6318,-1.6318,-1.6436,-1.65,-1.65,-1.65,-1.6387,0.0,0.0,0.0,0.0,0.0,0.0,0.0,0.0,0.0,0.0,0.0,0.0,0.0,0.0,0.0,0.0,0.0,0.0,0.0,0.0,0.0,0.0,0.0,0.0,0.0,0.0,0.0,0.0,-2.1193,-2.1704,-2.0863,-2.155,-2.1385,0.0,0.0,0.0,0.0,0.0,0.0,-2.3308,-2.2745,-2.2827,-2.3783,-2.3821,-2.4331,-2.5319,-2.5319,-2.5647,-2.631,-2.631,-2.6489,-2.6898,-2.6898,-2.6898,-2.6873,-2.649,-2.631,-2.6166,-2.4338,-2.3372,-2.2787,-2.0791,-1.9768,-1.936,-1.8975,-1.9336,-2.0177,-2.1398,-2.2318,-2.3123,-2.3905,0.0,-2.2903,-2.1301,0.0,0.0,0.0,0.0,-1.763,-1.8969,-2.0171,-2.112,-2.1322,-2.169,-2.2031,-2.2133,-2.0707,-1.8895,0.0,-1.6203,-1.5792,-1.5881,0.0,0.0,0.0,0.0,-1.6132,-1.6371,-1.6318,-1.6297,-1.6392,-1.6392,-1.6362,-1.6222,-1.6318,-1.6392,-1.6392,-1.6457,-1.65,-1.65,-1.65,-1.65,-1.65,0.0,0.0,0.0,0.0,0.0,0.0,0.0,0.0,0.0,0.0,0.0,0.0,0.0,0.0,0.0,0.0,0.0,0.0,0.0,0.0,0.0,0.0,0.0,0.0,0.0,0.0,0.0,0.0,0.0,-2.3039,-2.3581,0.0,0.0,0.0,0.0,-2.451,-2.3255,-2.3454,-2.5781,-2.4888,-2.4887,-2.6189,-2.6529,-2.6731,-2.6777,-2.6777,-2.6801,-2.6849,-2.6849,-2.6861,-2.6898,-2.6898,-2.6898,-2.6898,-2.6861,-2.6849,-2.6765,-2.5661,-2.4314,-2.2999,-2.2867,-2.1861,-2.0706,-2.2161,-2.2739,-2.3035,-2.4542,-2.5107,-2.5155,-2.5216,-2.3544,-2.15,-2.1392,-1.948,0.0,0.0,-2.0479,-2.1762,-2.3283,-2.4767,-2.5844,-2.5878,-2.4853,-2.3879,-2.3866,-2.2443,-2.0672,0.0,-1.7197,-1.6022,-1.6156,0.0,-1.6044,-1.6166,-1.62,-1.6231,-1.6371,-1.6392,-1.6392,-1.6392,-1.6392,-1.6362,-1.6222,-1.6318,-1.6392,-1.6392,-1.6457,-1.65,-1.65,-1.65,-1.65,-1.65,-1.6475,0.0,0.0,0.0,0.0,0.0,0.0,0.0,0.0,0.0,0.0,0.0,0.0,0.0,0.0,0.0,0.0,0.0,0.0,0.0,0.0,0.0,0.0,0.0,0.0,0.0,0.0,0.0,0.0,-2.3256,-2.4069,0.0,0.0,-2.4625,-2.5353,-2.6388,-2.6311,-2.6615,-2.7516,-2.6818,-2.6492,-2.6697,-2.6839,-2.7066,-2.7402,-2.7402,-2.775,-2.845,-2.845,-2.8643,-2.8967,-2.8967,-2.8775,-2.8438,-2.8089,-2.7714,-2.7342,-2.6621,-2.5997,-2.5528,-2.5528,-2.4963,-2.4206,-2.4771,-2.4771,-2.4554,-2.5119,-2.5312,-2.5312,-2.5312,-2.4675,-2.3797,-2.3123,-2.2289,-2.165,-2.234,-2.2827,-2.3518,-2.5034,-2.58,-2.6236,-2.6374,-2.5979,-2.5619,-2.5619,-2.4249,-2.2877,-2.2276,-2.0608,-1.9297,-1.9349,-1.8474,-1.7832,-1.7868,-1.6987,-1.6362,-1.6457,-1.6436,-1.6414,-1.6457,-1.6457,-1.6457,-1.6392,-1.6436,-1.6457,-1.6457,-1.65,-1.65,-1.65,-1.65,-1.65,-1.65,-1.65,-1.65,0.0,0.0,0.0,0.0,0.0,0.0,0.0,0.0,0.0,0.0,0.0,0.0,0.0,0.0,0.0,0.0,0.0,0.0,0.0,0.0,0.0,0.0,0.0,0.0,0.0,0.0,-2.4326,-2.4123,-2.5371,-2.6145,-2.5941,-2.6823,-2.7651,-2.8157,-2.8447,-2.8682,-2.8821,-2.8313,-2.8005,-2.7981,-2.7993,-2.8162,-2.8522,-2.8522,-2.8871,-2.9569,-2.9569,-2.9749,-3.0086,-3.0086,-2.9893,-2.9544,-2.9196,-2.8847,-2.8498,-2.8138,-2.7858,-2.7681,-2.7102,-2.6669,-2.6382,-2.6382,-2.6154,-2.5829,-2.5636,-2.5576,-2.554,-2.536,-2.5312,-2.518,-2.4494,-2.4357,-2.4425,-2.4514,-2.4627,-2.4967,-2.5946,-2.6236,-2.6339,-2.6465,-2.6499,-2.6499,-2.6499,-2.5632,-2.4833,-2.4833,-2.2892,-2.1228,-2.1228,-2.0376,-1.9707,-1.9707,-1.8334,-1.7295,-1.734,-1.6807,-1.6457,-1.65,-1.65,-1.65,-1.65,-1.65,-1.65,-1.65,-1.65,-1.65,-1.65,-1.65,-1.65,-1.65,-1.65,-1.65,-1.65,0.0,0.0,0.0,0.0,0.0,0.0,0.0,0.0,0.0,0.0,0.0,0.0,0.0,0.0,0.0,0.0,0.0,0.0,0.0,0.0,0.0,0.0,0.0,-2.3269,-2.4326,-2.5344,-2.5955,-2.7583,-2.8885,-2.9515,-3.0093,-3.0287,-2.9939,-2.9552,-2.9473,-2.9741,-2.9376,-2.9471,-3.0091,-3.0128,-3.0086,-3.011,-3.011,-3.0122,-3.0134,-3.0134,-3.0134,-3.0134,-3.0134,-3.0122,-3.011,-3.011,-3.011,-3.0086,-3.0086,-2.9785,-2.9172,-2.757,-2.6946,-2.6922,-2.6922,-2.6947,-2.6851,-2.631,-2.6154,-2.607,-2.5528,-2.5348,-2.5336,-2.5336,-2.5465,-2.5606,-2.5606,-2.591,-2.6213,-2.6213,-2.6339,-2.6499,-2.6499,-2.6499,-2.6499,-2.6499,-2.6499,-2.6499,-2.6499,-2.3884,-2.1672,-2.1672,-2.1594,-2.1568,-2.1568,-2.0162,0.0,-1.9083,-1.7654,-1.6651,-1.6651,-1.6651,-1.6651,-1.6651,-1.6651,-1.6651,-1.6651,-1.6651,-1.6638,-1.6626,-1.6626,-1.6613,-1.66,-1.66,-1.66,-1.66,0.0,0.0,0.0,0.0,0.0,0.0,0.0,0.0,0.0,0.0,0.0,0.0,0.0,0.0,0.0,0.0,0.0,0.0,0.0,0.0,0.0,0.0,-2.5005,-2.4584,-2.6307,-2.8003,-2.9048,-2.9604,-3.0133,-3.0744,-3.1341,-3.1762,-3.1961,-3.1951,-3.1785,-3.1481,-3.1014,-3.0626,-3.0313,-3.0313,-3.0423,-3.0694,-3.0663,-3.0898,-3.1271,-3.1271,-3.1271,-3.1271,-3.1271,-3.1067,-3.0663,-3.0663,-3.0446,-3.0086,-3.0086,-3.0001,-2.9785,-2.8967,-2.8174,-2.75,-2.7642,-2.7539,-2.7311,-2.7164,-2.7103,-2.7078,-2.6932,-2.6638,-2.6309,-2.6309,-2.6064,-2.5828,-2.598,-2.6097,-2.6236,-2.6361,-2.6465,-2.6499,-2.6499,-2.6499,-2.6499,-2.6499,-2.6499,-2.6499,-2.6499,-2.5757,-2.5129,-2.5129,-2.4136,-2.3314,-2.3314,-2.1882,0.0,-2.0815,-2.0413,-2.0125,-2.0125,-2.0125,-2.0125,-2.0125,-2.0125,-2.0125,-2.0125,-2.0125,-1.9936,-1.956,-1.9547,-1.9346,-1.8907,-1.8894,-1.8894,0.0,0.0,0.0,0.0,0.0,0.0,0.0,0.0,0.0,0.0,0.0,0.0,0.0,0.0,0.0,0.0,0.0,0.0,0.0,0.0,0.0,0.0,-2.6769,-2.7841,-2.799,-2.879,-2.9794,-3.1015,-3.1151,-3.1477,-3.2331,-3.2725,-3.2989,-3.3152,-3.3166,-3.2975,-3.257,-3.2217,-3.1838,-3.1362,-3.129,-3.1278,-3.1346,-3.1291,-3.1404,-3.1705,-3.1705,-3.1705,-3.1705,-3.1705,-3.1536,0.0,-3.1247,-3.1079,-3.0747,-3.0747,-3.0657,0.0,0.0,0.0,0.0,0.0,-2.8484,-2.8135,-2.7901,-2.7828,-2.7791,-2.7582,-2.7311,-2.7029,-2.7029,-2.6892,-2.6667,-2.6563,-2.6606,-2.6627,-2.6527,-2.6499,-2.6499,-2.6499,-2.6499,-2.6499,-2.6499,-2.6499,-2.6499,-2.6499,-2.6499,0.0,-2.6499,-2.5695,-2.5066,-2.5066,-2.3615,-2.2548,-2.2548,-2.192,-2.1493,-2.1493,-2.1493,-2.1493,-2.1493,-2.1493,0.0,0.0,0.0,-2.127,-2.0717,-2.0691,0.0,0.0,0.0,-1.9798,-1.9798,0.0,0.0,0.0,-1.8769,-1.8744,0.0,0.0,0.0,0.0,0.0,0.0,0.0,0.0,0.0,0.0,0.0,0.0,0.0,0.0,0.0,0.0,-2.9767,-3.1002,-3.2151,-3.1422,-3.1192,-3.225,-3.2372,-3.2793,-3.3813,-3.3962,-3.3925,-3.3823,-3.3669,-3.3476,-3.3424,0.0,0.0,0.0,0.0,-3.2388,-3.2069,-3.1849,-3.1705,-3.1705,-3.1705,-3.1705,-3.1705,-3.1705,-3.1705,-3.1705,-3.1705,-3.1705,-3.1705,-3.1705,-3.1428,-3.0946,-3.0314,-3.0128,-3.0151,-2.9832,-2.9523,-2.9194,-2.8714,0.0,0.0,-2.7903,-2.7693,-2.7644,-2.7644,-2.7755,-2.7728,-2.7243,-2.7249,-2.7268,-2.6801,-2.6688,-2.6688,-2.6688,-2.6688,-2.6663,-2.66,-2.6587,-2.6562,-2.6499,-2.6499,-2.6499,-2.6499,-2.6499,-2.6499,-2.6499,-2.5242,-2.428,-2.428,-2.2975,-2.2046,-2.2046,0.0,0.0,-2.2046,-2.2046,-2.2046,-2.2046,-2.1983,-2.176,-2.127,-2.1131,-2.083,-2.0288,-2.0213,-2.0175,-2.0175,-2.0175,-2.069,-2.1644,-2.0514,-2.0062,0.0,0.0,0.0,0.0,0.0,0.0,0.0,0.0,0.0,0.0,0.0,0.0,0.0,0.0,0.0,-2.898,-3.0765,-3.211,-3.283,-3.3105,-3.3311,-3.3542,-3.3569,-3.3664,-3.3894,-3.4341,-3.4626,-3.4587,-3.4821,-3.4942,-3.4735,-3.4476,0.0,-3.3865,-3.3441,-3.3013,-3.2593,-3.2157,-3.1849,-3.1705,0.0,0.0,-3.1705,-3.1705,-3.1705,-3.1705,-3.1705,-3.1705,-3.1705,-3.1705,-3.1645,-3.1464,-3.0458,-3.0349,-3.0641,-3.0572,-3.0477,-3.0313,-3.0201,-2.9888,-2.9488,-2.9375,-2.9025,-2.865,-2.865,-2.8337,0.0,-2.7935,-2.791,-2.7921,-2.7821,-2.7783,-2.7783,-2.7783,-2.7783,-2.767,-2.7253,-2.7165,-2.7027,-2.6575,-2.6499,-2.6499,-2.6499,-2.6499,-2.6499,-2.6499,-2.6223,-2.6021,-2.6021,-2.5732,-2.5531,-2.5531,-2.5531,-2.5531,-2.5531,-2.5531,-2.5531,-2.5531,-2.5091,-2.4757,-2.4644,-2.3816,-2.3301,-2.3188,-2.2694,-2.2456,-2.2456,-2.2456,-2.2581,-2.2757,-2.1681,-2.1631,0.0,0.0,0.0,0.0,0.0,0.0,0.0,0.0,0.0,0.0,0.0,-2.5113,0.0,0.0,-2.9197,-3.1023,-3.2277,-3.3268,-3.3865,-3.4165,-3.4355,-3.4355,-3.4355,-3.4463,-3.4761,-3.5059,-3.5236,-3.5236,-3.5426,-3.548,-3.5277,-3.51,-3.4853,-3.4397,-3.422,-3.3946,-3.347,-3.3173,-3.2861,-3.2647,-3.2557,-3.2524,-3.2466,-3.2202,-3.2082,-3.207,-3.1837,-3.1705,-3.1705,-3.1805,-3.1849,-3.1789,-3.1399,-3.1193,-3.1171,-3.1171,-3.1104,-3.0997,-3.0997,-3.0645,-3.0206,-3.0206,-2.9817,-2.9365,-2.9365,-2.9164,-2.8888,-2.8599,-2.8511,-2.8448,-2.8185,-2.8109,-2.8109,-2.8109,-2.8109,-2.8034,-2.7758,-2.7695,-2.7607,-2.7344,-2.7281,-2.7281,-2.7281,-2.709,-2.6813,-2.6537,-2.6499,-2.6499,-2.6499,-2.6499,-2.6499,-2.6499,-2.6499,-2.6499,-2.6499,-2.6499,-2.6499,-2.6499,-2.6223,-2.59,-2.5598,-2.5084,-2.4544,-2.4004,-2.3715,-2.3396,-2.3108,-2.3108,-2.3108,-2.3095,-2.2543,-2.2581,0.0,0.0,0.0,0.0,0.0,0.0,0.0,0.0,-2.5072,-2.5453,-2.6769,-2.8343,-2.9923,-3.0676,-3.1572,-3.301,-3.3742,-3.4246,-3.4721,-3.4897,-3.4965,-3.4965,-3.4965,-3.5154,-3.5669,-3.571,-3.571,-3.571,-3.571,-3.5642,-3.548,-3.548,-3.5358,-3.5095,-3.5096,-3.4926,-3.4519,-3.4327,-3.4019,-3.3584,-3.3458,-3.3331,-3.3272,-3.2851,-3.2599,-3.2466,-3.1946,-3.1705,-3.1705,-3.1906,-3.1994,-3.2038,-3.2313,-3.2117,-3.1712,-3.1712,-3.165,-3.1549,-3.1549,-3.1198,-3.0771,-3.0771,-3.0394,-2.9955,-2.9955,-2.988,-2.9691,-2.9189,-2.9051,-2.9001,-2.8549,-2.8436,-2.8436,-2.8436,-2.8436,-2.8398,-2.8285,-2.826,-2.8235,-2.8134,-2.8109,-2.8109,-2.8109,-2.7733,-2.7256,-2.6738,-2.6562,-2.6499,-2.6499,-2.6499,-2.6499,-2.6499,-2.6499,-2.6499,-2.6499,-2.6499,-2.6499,-2.6499,-2.6499,-2.6285,-2.5787,-2.5649,-2.5184,-2.433,-2.4104,-2.3766,-2.3271,-2.3158,-2.3108,-2.3108,-2.3108,-2.3108,-2.5154,-2.6271,-2.7213,-2.7434,-2.6682,-2.5672,0.0,0.0,-2.7963,-2.7501,-2.9631,-3.1838,-3.2558,-3.3145,-3.3582,-3.3786,-3.4301,-3.4707,-3.4788,-3.5249,-3.5615,-3.5615,-3.5615,-3.5642,-3.571,-3.571,-3.571,-3.571,-3.571,-3.5669,-3.5669,-3.5669,-3.5873,-3.6359,-3.6079,-3.5808,-3.5624,-3.52,-3.4507,-3.3584,-3.3584,-3.3458,-3.3284,-3.3224,-3.2947,-3.2466,-3.1946,-3.1705,-3.1705,-3.1906,-3.1994,-3.2038,-3.2313,-3.2481,-3.2581,-3.2581,-3.2349,-3.2127,-3.2127,-3.1763,-3.1298,-3.1298,-3.0947,-3.052,-3.052,-3.0181,-2.9779,-2.9716,-2.9691,-2.9679,-2.9628,-2.9603,-2.9603,-2.9603,-2.9603,-2.9465,-2.8913,-2.88,-2.865,-2.8197,-2.8109,-2.8109,-2.8109,-2.8059,-2.7821,-2.7268,-2.6813,-2.6499,-2.6499,-2.6499,-2.6499,-2.6499,-2.6499,-2.6499,-2.6499,-2.6499,-2.6499,-2.6499,-2.6499,-2.6461,-2.6399,-2.5875,-2.5536,-2.5423,-2.4481,-2.3966,-2.3904,-2.3358,-2.3108,-2.3108,-2.3108,-2.3108,-2.8052,-2.9001,0.0,0.0,-2.9389,-2.9045,-2.9174,-2.9957,-3.0798,-3.1211,-3.2295,-3.3281,-3.3539,-3.403,-3.4423,0.0,-3.4924,-3.5303,-3.5303,-3.556,-3.571,-3.571,-3.571,-3.571,-3.571,-3.571,-3.571,-3.571,-3.571,-3.571,-3.571,-3.6035,-3.6347,-3.6592,-3.7001,-3.7053,-3.6663,-3.6567,-3.6083,-3.5248,-3.5061,-3.4791,-3.4412,-3.425,-3.3642,-3.2644,-3.1978,-3.1761,-3.1893,-3.2125,-3.23,-3.2419,-3.2692,-3.2865,-3.2896,-3.2766,-3.2703,-3.2717,-3.2717,-3.234,-3.1863,-3.1863,-3.1499,-3.1009,-3.0708,-3.0457,-3.0206,-2.988,-2.9792,-2.9792,-2.9792,-2.9792,-2.9792,-2.9792,-2.9792,-2.9729,-2.9478,-2.9428,-2.9365,-2.9126,-2.9089,-2.9089,-2.9089,-2.8812,-2.8511,-2.8273,-2.7494,-2.6977,-2.6977,-2.6688,-2.6499,-2.6499,-2.6499,-2.6499,-2.6499,-2.6499,-2.6499,-2.6499,-2.6499,-2.6499,-2.6499,-2.626,-2.5971,-2.5598,-2.5159,-2.4619,-2.4004,-2.3753,-2.3434,-2.3108,-2.3108,-2.3108,-2.9414,0.0,0.0,-3.1212,-3.1302,-3.1563,-3.2459,-3.2671,-3.2915,-3.3731,-3.4043,-3.4151,-3.4151,-3.4639,0.0,-3.5032,-3.5385,-3.571,-3.571,-3.571,-3.571,-3.571,-3.571,-3.571,-3.571,-3.571,-3.571,-3.571,-3.571,-3.5791,-3.5954,-3.6361,-3.6754,-3.7094,-3.779,-3.801,-3.7682,-3.7743,-3.74,-3.6593,-3.6392,-3.5966,-3.5391,-3.4913,-3.4096,-3.2986,-3.2285,-3.1982,-3.2038,-3.2344,-3.255,-3.2723,-3.2995,-3.3124,-3.3081,-3.2896,-3.2939,-3.3124,-3.3124,-3.2805,-3.2453,-3.2453,-3.2064,-3.1549,-3.1173,-3.0947,-3.0721,-3.0168,-3.0018,-2.998,-2.9829,-2.9792,-2.9792,-2.9792,-2.9792,-2.9792,-2.9792,-2.9792,-2.9792,-2.9792,-2.9792,-2.9792,-2.9792,-2.9453,-2.9126,-2.9126,-2.8348,-2.7682,-2.7532,-2.7065,-2.6663,-2.6512,-2.6499,-2.6499,-2.6499,-2.6499,-2.6499,-2.6499,-2.6499,-2.6499,-2.6499,-2.6499,-2.6298,-2.585,-2.5674,-2.5134,-2.423,-2.4098,-2.3764,-2.3168,-2.3228,-2.3228,0.0,0.0,-3.1137,-3.2102,-3.2331,-3.2609,-3.362,-3.3853,-3.3867,-3.3894,-3.4368,-3.4761,-3.4761,-3.5249,-3.5683,-3.5683,-3.571,-3.571,-3.571,-3.571,-3.571,-3.571,-3.571,-3.571,0.0,-3.571,-3.571,-3.571,-3.571,-3.5967,-3.6537,-3.6592,-3.7148,-3.8328,-3.8353,-3.8445,-3.8575,-3.8544,-3.8089,-3.7062,-3.7062,-3.6675,-3.5941,-3.4901,-3.4129,-3.3523,-3.2989,-3.2467,-3.2038,-3.2506,-3.2667,-3.2723,-3.2995,-3.3124,-3.3124,-3.3081,-3.3081,-3.3124,-3.3124,-3.3111,-3.3056,-3.3056,-3.2667,-3.219,-3.2177,-3.1788,-3.126,-3.0733,-3.0595,-3.047,-2.993,-2.9792,-2.9792,-2.9792,-2.9792,-2.9792,-2.9792,-2.9792,-2.9792,-2.9792,-2.9792,-2.9792,-2.9792,-2.9779,-2.9767,-2.9767,-2.9264,-2.865,-2.8147,-2.7595,-2.709,-2.6549,-2.6499,-2.6499,-2.6499,-2.6499,-2.6499,-2.6499,-2.6499,-2.6499,-2.6499,-2.6499,-2.6487,-2.6461,-2.5921,-2.5335,-2.4763,-2.4381,-2.3918,-2.3403,-2.3509,-2.3586,0.0,0.0,-3.2246,-3.2864,-3.3311,-3.3741,-3.4353,-3.4504,-3.4612,-3.4992,-3.4612,-3.4084,-3.3729,-3.4149,-3.4368,-3.4014,-3.495,-3.571,-3.571,-3.571,-3.571,-3.571,-3.571,0.0,0.0,0.0,0.0,-3.571,-3.6076,-3.6388,-3.6592,-3.7365,-3.7989,-3.841,-3.8803,-3.8911,-3.8787,-3.8787,-3.8472,-3.7835,-3.7341,-3.7062,-3.6956,-3.5547,-3.4814,-3.4527,-3.351,-3.2936,-3.2723,-3.2723,-3.2797,-3.2982,-3.3081,-3.3124,-3.3124,-3.3124,-3.3124,-3.3124,-3.3124,-3.3124,-3.3124,-3.3124,-3.2943,-3.2717,-3.2328,-3.2077,-3.1825,-3.1286,-3.1135,-3.1009,-3.0482,-3.0331,-3.0244,-2.988,-2.9792,-2.9792,-2.9792,-2.9792,-2.9792,-2.9792,-2.9792,-2.9792,-2.9792,-2.9792,-2.9792,-2.9792,-2.9302,-2.87,-2.8185,-2.762,-2.7241,-2.7065,-2.6713,-2.6499,-2.6499,-2.6499,-2.6499,-2.6499,-2.6499,-2.6499,-2.6499,-2.6499,-2.6499,-2.6499,-2.6298,-2.5921,-2.5335,-2.4924,-2.4462,-2.3918,-2.3718,-2.3599,-3.0815,-3.2006,-3.3001,-3.3684,-3.4113,-3.4537,-3.5004,-3.4938,-3.4897,-3.5276,-3.4246,-3.32,-3.2857,-3.324,-3.3498,-3.3169,-3.4556,-3.571,-3.571,-3.571,-3.571,-3.571,-3.571,0.0,0.0,0.0,0.0,-3.6035,-3.6388,-3.6795,-3.7229,-3.7989,-3.8518,-3.8722,-3.9102,-3.9203,-3.9056,-3.9056,-3.8832,-3.8427,-3.7789,-3.7572,-3.771,-3.6447,-3.5633,-3.5156,-3.4157,-3.3507,-3.3081,-3.2896,-3.2939,-3.3124,-3.3124,-3.3124,-3.3124,-3.3124,-3.3124,-3.3124,-3.3124,-3.3124,-3.3124,-3.3124,-3.3124,-3.3048,-3.2641,-3.2516,-3.2403,-3.1838,-3.1687,-3.1562,-3.1035,-3.0758,-3.052,-3.0168,-2.993,-2.9792,-2.9792,-2.9792,-2.9792,-2.9792,-2.9792,-2.9792,-2.9792,-2.9792,-2.9792,-2.9792,-2.9478,-2.9038,-2.8473,-2.8084,-2.772,-2.7318,-2.7002,-2.6713,-2.6512,-2.6499,-2.6499,-2.6499,-2.6499,-2.6499,-2.6499,-2.6555,-2.6555,-2.6555,-2.6636,-2.6392,-2.581,-2.5599,-2.509,-2.4369,-2.424,-2.4059,-3.0676,-3.1816,-3.3468,-3.4517,-3.4816,-3.4978,-3.5547,-3.5195,-3.4788,-3.4748,-3.3349,-3.211,0.0,0.0,-3.287,-3.287,-3.438,-3.5588,-3.5615,-3.5683,-3.571,0.0,0.0,0.0,0.0,0.0,0.0,-3.6728,0.0,-3.7189,-3.8355,-3.845,-3.8765,-3.9336,-3.9349,-3.9349,-3.9349,-3.9349,-3.9203,-3.8953,-3.8517,-3.8245,-3.8245,-3.7513,-3.6572,-3.5436,-3.497,-3.4142,-3.3111,-3.3124,-3.3124,-3.3124,-3.3124,-3.3124,-3.3124,-3.3124,-3.3124,-3.3124,-3.3124,-3.3124,-3.3124,-3.3124,-3.3124,-3.3124,-3.3124,-3.3124,-3.2968,-3.2416,-3.2252,-3.2127,-3.1574,-3.1072,-3.0683,-3.0658,-3.0231,-2.9829,-2.9829,-2.9817,-2.9792,-2.9792,-2.9792,-2.9792,-2.9792,-2.9792,-2.9792,-2.9792,-2.9792,-2.9591,-2.9001,-2.8913,-2.8511,-2.7444,-2.7341,-2.709,-2.6549,-2.6499,-2.6499,-2.6499,-2.6499,-2.6499,-2.6533,-2.6658,-2.6726,-2.6726,-2.6909,-2.6755,-2.6262,-2.6388,-2.5858,-2.4814,-2.5096,-2.4916,-3.211,-3.3363,-3.4448,-3.4721,-3.5127,-3.5371,-3.5087,-3.4897,-3.4666,-3.4219,-3.2376,-3.0717,0.0,0.0,0.0,-2.976,-3.2028,0.0,-3.4301,-3.5114,0.0,0.0,0.0,-3.5886,-3.6334,-3.651,0.0,0.0,-3.8247,-3.8384,-3.8699,-3.9267,-3.9669,-3.9821,-3.9821,-3.9821,-3.9821,-3.9821,-3.9777,-3.9733,-3.9397,-3.9251,-3.9206,-3.8684,-3.7745,-3.6498,-3.5991,-3.4894,-3.3556,-3.3398,-3.324,-3.3124,-3.3124,-3.3124,-3.3124,-3.3124,-3.3124,-3.3124,-3.3124,-3.3124,-3.3124,-3.3124,-3.3124,-3.3124,-3.3124,-3.3124,-3.3086,-3.2893,-3.2855,-3.2729,-3.2152,-3.1901,-3.17,-3.1286,-3.0796,-3.0407,-3.0407,-3.008,-2.9792,-2.9792,-2.9792,-2.9792,-2.9792,-2.9792,-2.9792,-2.9792,-2.9792,-2.9741,-2.9591,-2.9202,-2.8624,-2.7971,-2.7532,-2.709,-2.6549,-2.6499,-2.6521,-2.6658,-2.6658,-2.6726,-2.6888,-2.6909,-2.6909,-2.6909,-2.7113,-2.717,-2.7028,-2.685,-2.6613,-2.633,-2.5798,-2.5496,-3.3254,-3.429,-3.5067,-3.5405,-3.5528,-3.5336,-3.4476,-3.3875,-3.3223,-3.2336,-3.0433,0.0,0.0,0.0,0.0,0.0,0.0,0.0,-3.4347,-3.5272,-3.5898,0.0,-3.6156,0.0,-3.6866,-3.7303,-3.7932,0.0,-3.8841,-3.8965,-3.9312,-3.9773,-3.9996,-3.9996,-3.9996,-3.9996,-3.9996,-3.9996,-3.9996,-3.9996,-3.9851,-3.9837,-3.9911,-3.9428,-3.8675,-3.7693,0.0,-3.5513,-3.4255,-3.3615,-3.3283,-3.3124,-3.3124,-3.3124,-3.3124,-3.3124,-3.3124,-3.3124,-3.3124,-3.3124,-3.3124,-3.3124,-3.3124,-3.3124,-3.3124,-3.3124,-3.3124,-3.3124,-3.3124,-3.3006,-3.2679,-3.2403,-3.2139,-3.1825,-3.1348,-3.0896,-3.067,-3.0369,-3.008,-2.9842,-2.9792,-2.9792,-2.9792,-2.9792,-2.9792,-2.9792,-2.9792,-2.9792,-2.9792,-2.9503,-2.9001,-2.8197,-2.7821,-2.7318,-2.6562,-2.6499,-2.6555,-2.6679,-2.6679,-2.6794,-2.699,-2.7146,-2.7268,-2.7335,-2.7703,-2.7868,-2.7868,-2.7784,-2.7573,-2.7242,-2.6925,-2.6658,-3.4152,-3.4849,-3.5494,-3.6131,-3.5827,-3.5055,-3.3689,-3.2558,-3.1406,-3.005,0.0,-2.704,-2.704,0.0,-2.7926,-2.8877,0.0,-3.3217,-3.4553,-3.536,-3.5987,-3.6338,-3.6754,-3.7099,-3.7413,-3.8267,-3.8968,-3.9265,-3.9094,-3.9328,-4.0025,-4.0083,-4.0126,-4.0126,-4.0126,-4.0126,-4.0083,-4.0126,-4.0126,-4.0126,-4.017,-4.0286,-4.0431,-3.9998,-3.9507,-3.8814,0.0,0.0,-3.5007,-3.3884,-3.3313,-3.3154,-3.3124,-3.3124,-3.3124,-3.3124,-3.3124,-3.3124,-3.3124,-3.3124,-3.3124,-3.3124,-3.3124,-3.3124,-3.3124,-3.3124,-3.3124,-3.3124,-3.3124,-3.3124,-3.3124,-3.2704,-3.2328,-3.2328,-3.1901,-3.1373,-3.0922,-3.0721,-3.0457,-2.9892,-2.9792,-2.9792,-2.9792,-2.9792,-2.9792,-2.9792,-2.9792,-2.9792,-2.9792,-2.9792,-2.939,-2.8335,-2.8147,-2.7682,-2.6688,-2.6537,-2.6568,-2.6726,-2.676,-2.6863,-2.7113,-2.7403,-2.7656,-2.7842,-2.8379,-2.8651,-2.8651,-2.8817,-2.8574,-2.796,-2.8184,-2.8019,-3.453,-3.5358,-3.6103,-3.5675,-3.5496,-3.4834,-3.2627,-3.1964,0.0,0.0,0.0,-2.7159,-2.7159,-2.7135,0.0,-2.6731,0.0,0.0,0.0,0.0,-3.5066,0.0,0.0,0.0,0.0,0.0,0.0,0.0,0.0,-4.0187,-4.0342,-4.0645,-4.083,-4.083,-4.083,-4.0759,-4.0573,-4.0759,-4.083,-4.083,-4.1029,-4.1185,-4.1213,-4.1128,-4.0449,-3.9311,-3.8169,0.0,-3.5489,-3.4169,-3.3513,-3.3313,-3.3154,-3.3124,-3.3124,-3.3124,-3.3124,-3.3124,-3.3124,-3.3124,-3.3124,-3.3124,-3.3124,-3.3124,-3.3124,-3.3124,-3.3124,-3.3124,-3.3124,-3.3124,-3.3124,-3.3006,-3.293,-3.293,-3.2491,-3.2051,-3.1951,-3.1235,-3.0457,-2.9892,-2.9792,-2.9792,-2.9792,-2.9792,-2.9792,-2.9792,-2.9792,-2.9792,-2.9792,-2.9792,-2.9528,-2.8825,-2.8373,-2.7846,-2.7228,-2.6751,-2.6636,-2.6943,-2.6943,-2.718,-2.7656,-2.7868,-2.8066,-2.8189,-2.8734,-2.9004,-2.9004,-2.9306,-2.939,-2.9264,-2.893,-2.8711,-3.4196,-3.4899,-3.5509,-3.5318,-3.5049,-3.4135,-3.1686,0.0,0.0,0.0,0.0,-2.6424,-2.6424,0.0,0.0,0.0,0.0,0.0,0.0,0.0,0.0,0.0,0.0,0.0,0.0,0.0,0.0,0.0,0.0,0.0,-4.0688,-4.1029,-4.1198,-4.1198,-4.1198,-4.1156,-4.1086,-4.1156,-4.1198,-4.1198,-4.1354,-4.1438,-4.1549,-4.1438,-4.1,-4.0196,-3.906,0.0,-3.6223,-3.5034,-3.4152,-3.3556,-3.3313,-3.3283,-3.324,-3.3154,-3.3124,-3.3124,-3.3124,-3.3154,-3.3283,-3.3283,-3.3197,-3.3124,-3.324,-3.3283,-3.3283,-3.3398,-3.3398,-3.3398,-3.3398,-3.3313,-3.3283,-3.3283,-3.2714,-3.2215,-3.2215,-3.1373,-3.0532,-3.0269,-2.9993,-2.9792,-2.9792,-2.9792,-2.9792,-2.9792,-2.9792,-2.9792,-2.9792,-2.9792,-2.9566,-2.895,-2.8436,-2.7883,-2.7331,-2.687,-2.6726,-2.6977,-2.7146,-2.7469,-2.7934,-2.8281,-2.8592,-2.8835,-2.9338,-2.9602,-2.9602,-2.9837,-2.9943,-2.9851,-2.9708,-2.9625,-3.381,-3.4404,-3.4901,-3.4947,-3.459,-3.3515,-3.0891,-2.9954,0.0,0.0,-2.5811,-2.5729,-2.5729,0.0,0.0,0.0,0.0,0.0,0.0,0.0,0.0,0.0,0.0,0.0,0.0,0.0,0.0,0.0,0.0,0.0,-4.117,-4.1367,-4.1465,-4.1465,-4.1465,-4.1423,-4.1396,-4.1423,-4.1465,-4.1465,-4.1522,-4.1647,-4.1785,-4.1606,-4.1423,-4.1085,-3.9788,0.0,0.0,-3.5966,-3.4822,-3.3882,-3.3654,-3.3484,-3.3398,-3.324,-3.3154,-3.3154,-3.3154,-3.3313,-3.3471,-3.3526,-3.3398,-3.3283,-3.3441,-3.3484,-3.3569,-3.3725,-3.3797,-3.3839,-3.381,-3.3683,-3.3526,-3.3484,-3.2959,-3.2479,-3.2365,-3.1584,-3.0866,-3.0752,-3.0325,-2.9934,-2.9934,-2.9908,-2.9869,-2.9869,-2.9869,-2.9869,-2.9869,-2.9895,-2.977,-2.9265,-2.8686,-2.8132,-2.765,-2.7186,-2.699,-2.7092,-2.7403,-2.7756,-2.8229,-2.8675,-2.9044,-2.9404,-2.9898,-3.0142,-3.0142,-3.0296,-3.0296,-3.0203,-3.0326,-3.0357,-3.3704,-3.4652,-3.5012,-3.4427,-3.4245,-3.3403,-3.0357,0.0,0.0,-2.6413,-2.5893,-2.5866,-2.5866,-2.6748,-2.7136,0.0,0.0,0.0,0.0,0.0,0.0,0.0,0.0,0.0,0.0,0.0,0.0,0.0,0.0,0.0,-4.1646,-4.166,-4.166,-4.166,-4.166,-4.1577,-4.1396,-4.1577,-4.166,-4.1702,-4.1912,-4.2051,-4.2051,-4.2051,-4.1897,-4.1576,-4.0307,0.0,0.0,-3.6599,-3.5425,-3.4551,-3.4202,-3.3781,-3.3398,-3.3398,-3.3356,-3.3356,-3.3356,-3.3513,-3.3725,-3.3949,-3.3852,-3.3641,-3.367,-3.3852,-3.4034,-3.4076,-3.4189,-3.4272,-3.4118,-3.4034,-3.3992,-3.3725,-3.3632,-3.3411,-3.2941,-3.2378,-3.1815,-3.1225,-3.0714,-3.033,-3.033,-3.019,-3.0075,-3.0075,-3.0075,-3.0075,-3.0075,-3.0228,-3.0305,-3.0253,-2.9541,-2.8945,-2.8592,-2.81,-2.7687,-2.7462,-2.7656,-2.8072,-2.8707,-2.9075,-2.9404,-2.9747,-3.0099,-3.0296,-3.0296,-3.0477,-3.0582,-3.0538,-3.0582,-3.0568,-3.2811,-3.3649,-3.4,-3.3712,-3.3655,-3.294,-3.0235,0.0,0.0,-2.6413,-2.5948,-2.6029,-2.6029,-2.7046,-2.7484,0.0,0.0,0.0,0.0,0.0,0.0,0.0,0.0,0.0,0.0,0.0,0.0,0.0,0.0,0.0,-4.1939,-4.1939,-4.1939,-4.1939,-4.1939,-4.1912,-4.1829,-4.1912,-4.1939,-4.1939,-4.2051,-4.2092,-4.2092,-4.2092,-4.1939,-4.1688,-4.1026,0.0,0.0,-3.7731,-3.6523,-3.5263,-3.4675,-3.4272,-3.3979,-3.3683,-3.3598,-3.3598,-3.3781,-3.4021,-3.4343,-3.4605,-3.4895,-3.5005,-3.4647,-3.4618,-3.4784,-3.5141,-3.5223,-3.5182,-3.5223,-3.4977,-3.4618,-3.423,-3.4105,-3.4082,-3.3848,-3.3368,-3.2838,-3.2227,-3.1695,-3.115,-3.0661,-3.0495,-3.0432,-3.0305,-3.0292,-3.0292,-3.0292,-3.0368,-3.0444,-3.0571,-2.9869,-2.9396,-2.9349,-2.8711,-2.8315,-2.835,-2.8502,-2.8753,-2.9089,-2.9543,-2.9898,-3.0099,-3.0357,-3.0477,-3.0477,-3.0568,-3.0598,-3.0598,-3.0598,-3.0598,-3.1877,-3.2597,-3.2833,-3.2833,-3.2657,-3.1935,0.0,0.0,-2.8554,-2.644,-2.6084,-2.6165,-2.6165,-2.6972,-2.7299,-2.6321,0.0,-2.8519,0.0,0.0,0.0,0.0,0.0,0.0,0.0,0.0,0.0,0.0,0.0,0.0,0.0,-4.2092,-4.2092,-4.2092,-4.2092,-4.2092,-4.2092,-4.2092,-4.2092,-4.2092,-4.2092,-4.2092,-4.2092,-4.2092,-4.1995,-4.18,0.0,0.0,0.0,-3.8669,-3.7495,-3.5951,-3.5399,-3.4964,-3.4577,-3.423,-3.4105,-3.4147,-3.4327,-3.4688,-3.5127,-3.5372,-3.579,-3.6151,-3.5831,-3.5669,-3.5669,-3.6071,-3.6111,-3.6031,-3.6151,-3.5831,-3.5372,-3.5032,-3.495,-3.495,-3.495,-3.4539,-3.406,-3.3608,-3.2877,-3.2125,-3.1527,-3.1091,-3.0798,-3.0596,-3.0596,-3.0596,-3.0672,-3.071,-3.0836,-3.1037,-3.0546,-3.0184,-3.0147,-2.9707,-2.938,-2.9335,-2.9453,-2.9519,-2.9557,-2.9943,-3.0219,-3.0387,-3.0538,-3.0598,-3.0598,-3.0598,-3.0598,-3.0598,-3.0598,-3.0598,-3.1076,-3.1819,-3.1735,-3.1735,-3.1138,-3.0252,0.0,0.0,-2.7698,-2.6516,-2.6313,-2.6313,-2.6313,-2.6328,-2.6328,-2.6313,-2.7355,0.0,0.0,0.0,0.0,0.0,0.0,0.0,0.0,0.0,0.0,0.0,0.0,0.0,0.0,-4.2092,-4.2092,-4.2092,-4.2092,-4.2092,-4.2092,-4.2092,-4.2092,-4.2092,-4.2092,-4.2092,-4.2092,-4.2092,-4.2092,0.0,0.0,0.0,0.0,-3.9363,-3.8211,-3.6665,-3.6387,-3.5803,-3.5086,-3.5086,-3.5086,-3.5086,-3.5086,-3.548,-3.6031,-3.6229,-3.648,-3.6783,-3.7148,-3.6978,-3.6665,-3.6705,-3.6705,-3.6705,-3.6705,-3.648,-3.6294,-3.6255,-3.6255,-3.6255,-3.6255,-3.5852,-3.5491,-3.5477,-3.4358,-3.3311,-3.3121,-3.2078,-3.1235,-3.1024,-3.0986,-3.1061,-3.1272,-3.1471,-3.1669,-3.1853,-3.189,-3.1635,-3.1052,-3.1162,-3.0993,-3.0341,-3.0423,-3.0365,-3.0109,-3.0205,-3.0387,-3.0598,-3.0598,-3.0598,-3.0598,-3.0598,-3.0598,-3.0598,-3.0598,-3.0598,-2.8312,-2.9009,-2.9247,-2.9247,-2.9031,-2.8676,-2.7911,-2.7584,-2.7228,-2.6458,-2.6379,-2.6445,-2.6445,-2.6539,-2.6895,-2.7678,-2.8152,0.0,0.0,0.0,0.0,0.0,0.0,0.0,0.0,0.0,0.0,0.0,0.0,0.0,0.0,-4.2092,-4.2092,-4.2092,-4.2092,-4.2092,-4.2092,-4.2092,-4.2092,-4.2092,-4.2092,-4.2092,-4.2092,-4.2092,0.0,0.0,0.0,0.0,0.0,-3.9262,-3.8328,-3.7264,-3.694,-3.6533,-3.6191,-3.6004,-3.5924,-3.5964,-3.6137,-3.6429,-3.6705,-3.694,-3.7211,-3.7534,-3.7663,-3.7419,-3.7148,-3.7264,-3.7419,-3.7457,-3.7187,-3.7056,-3.6964,-3.6808,-3.6769,-3.6769,-3.6769,-3.6668,-3.6417,-3.5997,-3.5567,-3.4873,-3.3707,-3.3184,-3.2653,-3.1867,-3.174,-3.1776,-3.185,-3.1886,-3.1973,-3.2032,-3.2141,-3.2169,-3.1964,-3.1901,-3.1847,-3.1875,-3.1336,-3.1017,-3.0924,-3.0663,-3.0538,-3.0598,-3.0598,-3.0598,-3.0598,-3.0598,-3.0598,-3.0598,-3.0598,-3.0598,0.0,-2.7322,-2.7497,-2.7497,-2.7284,0.0,0.0,-2.6596,-2.6508,-2.6187,-2.6755,-2.7167,-2.6691,-2.7103,-2.7592,-2.7829,-2.8683,0.0,0.0,0.0,0.0,0.0,0.0,0.0,0.0,0.0,0.0,0.0,0.0,0.0,0.0,-4.2092,-4.2092,-4.2092,-4.2092,-4.2092,-4.2092,-4.2092,-4.2092,-4.2092,-4.2092,-4.2092,-4.2092,-4.2092,0.0,0.0,0.0,0.0,0.0,-3.9233,-3.8505,-3.7701,-3.7419,-3.7187,-3.69,-3.6716,-3.6677,-3.6716,-3.6861,-3.7109,-3.7341,-3.7495,-3.7739,-3.7991,-3.7991,-3.7839,-3.7687,-3.7801,-3.7915,-3.7967,-3.7711,-3.7634,-3.7596,-3.7481,-3.7443,-3.7443,-3.7443,-3.7443,-3.7329,-3.6983,-3.6651,-3.6019,-3.4722,-3.4161,-3.3567,-3.2585,-3.2453,-3.2489,-3.2561,-3.2561,-3.2561,-3.2646,-3.2789,-3.2846,-3.2917,-3.2758,-3.276,-3.2925,-3.2425,-3.1905,-3.1414,-3.1087,-3.0814,-3.0598,-3.0598,-3.0598,-3.0598,-3.0598,-3.0598,-3.0598,-3.0598,-3.0598,0.0,0.0,0.0,0.0,0.0,0.0,0.0,-2.5488,0.0,-2.5752,-2.7329,-2.8231,-2.7038,-2.7852,-2.8317,-2.714,0.0,0.0,0.0,0.0,0.0,0.0,0.0,0.0,0.0,0.0,0.0,0.0,0.0,0.0,0.0,-4.2063,-4.2092,-4.2092,-4.2092,-4.2092,-4.2092,-4.2092,-4.2092,-4.2092,-4.2092,-4.2092,-4.2092,-4.2049,0.0,0.0,0.0,0.0,0.0,-3.9146,-3.8654,-3.7929,-3.7929,-3.7687,-3.738,-3.738,-3.738,-3.738,-3.738,-3.761,-3.7929,-3.7929,-3.8066,-3.8202,-3.8202,-3.8202,-3.8202,-3.8202,-3.8202,-3.8202,-3.8202,-3.8202,-3.8202,-3.8202,-3.8202,-3.8202,-3.8202,-3.8202,-3.8202,-3.8202,-3.7604,-3.6827,-3.5998,-3.5016,-3.4042,-3.3247,-3.3086,-3.3129,-3.3318,-3.3339,-3.3388,-3.3605,-3.3605,-3.3675,-3.3805,-3.3695,-3.3625,-3.3572,-3.3518,-3.2919,-3.17,-3.1613,-3.1293,-3.0685,-3.0627,-3.0598,-3.0598,-3.0598,-3.0598,-3.0598,-3.0598,-3.0598,-2.3688,0.0,-2.3753,-2.3753,-2.36,-2.3614,0.0,-2.4293,-2.4592,-2.5589,0.0,0.0,-2.6951,-2.7852,0.0,0.0,0.0,0.0,0.0,0.0,0.0,0.0,0.0,0.0,0.0,0.0,0.0,0.0,0.0,0.0,0.0,-4.1816,-4.2092,-4.2092,-4.2092,-4.2092,-4.2092,-4.2092,-4.2092,-4.2092,-4.2092,-4.2092,-4.2078,-4.157,0.0,0.0,0.0,0.0,-3.916,-3.8652,-3.831,-3.8127,-3.8127,-3.8052,-3.7976,-3.7976,-3.7976,-3.7976,-3.7976,-3.8052,-3.8127,-3.8127,-3.8165,-3.8202,-3.8202,-3.8202,-3.8202,-3.8202,-3.8202,-3.8202,-3.8202,-3.8202,-3.8202,-3.8202,-3.8202,-3.8202,-3.8202,-3.8202,-3.8202,-3.8202,-3.8049,-3.7684,-3.6841,-3.6071,-3.5304,-3.4498,-3.3994,-3.3709,-3.373,-3.3779,-3.3779,-3.3813,-3.3827,-3.3882,-3.4025,-3.3991,-3.4036,-3.4163,-3.3779,-3.3358,-3.3053,-3.2542,-3.1975,-3.1308,-3.0829,-3.0598,-3.0598,-3.0598,-3.0598,-3.0598,-3.0598,-3.0598,-2.2947,-2.2888,-2.2888,-2.2888,-2.2888,-2.2989,-2.336,0.0,0.0,0.0,0.0,0.0,0.0,0.0,0.0,0.0,0.0,0.0,0.0,0.0,0.0,0.0,0.0,0.0,0.0,0.0,0.0,0.0,0.0,0.0,0.0,-4.0989,-4.1178,-4.1178,-4.1178,-4.1482,-4.2092,-4.2092,-4.2092,-4.2092,-4.2092,-4.1932,-4.1628,-4.1265,-4.0771,0.0,0.0,0.0,-3.871,-3.8347,-3.8202,-3.8202,-3.8202,-3.8202,-3.8202,-3.8202,-3.8202,-3.8202,-3.8202,-3.8202,-3.8202,-3.8202,-3.8202,-3.8202,-3.8202,-3.8202,-3.8202,-3.8202,-3.8202,-3.8202,-3.8202,-3.8202,-3.8202,-3.8202,-3.8202,-3.8202,-3.8202,-3.8202,-3.8202,-3.8202,-3.8202,-3.7962,-3.7257,-3.6592,-3.5905,-3.52,-3.4545,-3.4122,-3.4122,-3.4122,-3.4122,-3.4122,-3.4122,-3.4142,-3.423,-3.423,-3.4264,-3.438,-3.4095,-3.3808,-3.3518,-3.3137,-3.2498,-3.1509,-3.1177,-3.0872,-3.0598,-3.0598,-3.0598,-3.0598,-3.0598,-3.0598,-2.2947,-2.2888,-2.2888,-2.2888,-2.2888,-2.2888,-2.2888,0.0,0.0,0.0,0.0,0.0,0.0,0.0,0.0,0.0,0.0,0.0,0.0,0.0,0.0,0.0,0.0,0.0,0.0,0.0,0.0,0.0,0.0,0.0,0.0,-4.0046,-4.0104,-4.0104,-4.0104,-4.0641,-4.1787,-4.1787,-4.1787,-4.1787,-4.1787,-4.1497,-4.0945,-4.0844,-4.022,0.0,0.0,0.0,-3.8202,-3.8202,-3.8202,-3.8202,-3.8202,-3.8202,-3.8202,-3.8202,-3.8202,-3.8202,-3.8202,-3.8202,-3.8202,-3.8202,-3.8202,-3.8202,-3.8202,-3.8202,-3.8202,-3.8202,-3.8202,-3.8202,-3.8202,-3.8202,-3.8202,-3.8202,-3.8202,-3.8202,-3.8202,-3.8202,-3.8202,-3.8202,-3.8202,-3.8043,-3.7535,-3.6896,-3.6243,-3.5639,-3.4965,-3.453,-3.4428,-3.4414,-3.4414,-3.4414,-3.4414,-3.4414,-3.4414,-3.4414,-3.4414,-3.4414,-3.4414,-3.4167,-3.3663,-3.3547,-3.298,-3.1845,-3.1582,-3.125,-3.0757,-3.0641,-3.0598,-3.0598,-3.0598,-3.0598,-2.3015,-2.2888,-2.2888,-2.2888,-2.2888,-2.2888,-2.2888,0.0,0.0,0.0,0.0,0.0,0.0,0.0,0.0,0.0,0.0,0.0,0.0,0.0,0.0,0.0,0.0,0.0,0.0,0.0,0.0,0.0,0.0,0.0,0.0,0.0,-4.0104,-4.0104,-4.0104,-4.0191,-4.0394,-4.0408,-4.0408,-4.0408,-4.0408,-4.035,-4.0234,-3.9726,-3.9392,0.0,0.0,-3.8304,-3.8202,-3.8202,-3.8202,-3.8202,-3.8202,-3.8202,-3.8202,-3.8202,-3.8202,-3.8202,-3.8202,-3.8202,-3.8202,-3.8202,-3.8202,-3.8202,-3.8202,-3.8202,-3.8202,-3.8202,-3.8202,-3.8202,-3.8202,-3.8202,-3.8202,-3.8202,-3.8202,-3.8202,-3.8202,-3.8202,-3.8202,-3.8202,-3.8202,-3.8173,-3.8086,-3.7549,-3.6925,-3.6257,-3.5619,-3.5058,-3.4486,-3.4414,-3.4414,-3.4414,-3.4414,-3.4414,-3.4414,-3.4414,-3.4414,-3.4414,-3.4414,-3.437,-3.4283,-3.3779,-3.3402,-3.3213,-3.2077,-3.1437,-3.1366,-3.0843,-3.0598,-3.0598,-3.0598,-3.0598,-2.3209,-2.3179,-2.3223,-2.3223,-2.3068,-2.2888,-2.2888,0.0,0.0,0.0,0.0,0.0,0.0,0.0,0.0,0.0,0.0,0.0,0.0,0.0,0.0,0.0,0.0,0.0,0.0,0.0,0.0,0.0,0.0,0.0,0.0,0.0,-3.9073,-3.9073,-3.9073,-3.9073,-3.9073,-3.9073,-3.9421,-4.0104,-4.0104,-3.9929,-3.9596,-3.9334,-3.9,-3.8638,0.0,-3.8202,-3.8202,-3.8202,-3.8202,-3.8202,-3.8202,-3.8202,-3.8202,-3.8202,-3.8202,-3.8202,-3.8202,-3.8202,-3.8202,-3.8202,-3.8202,-3.8202,-3.8202,-3.8202,-3.8202,-3.8202,-3.8202,-3.8202,-3.8202,-3.8202,-3.8202,-3.8202,-3.8202,-3.8202,-3.8202,-3.8202,-3.8202,-3.8202,-3.8202,-3.8202,-3.8202,-3.7709,-3.7085,-3.6402,-3.5813,-3.5174,-3.4501,-3.4414,-3.4414,-3.4414,-3.4414,-3.4414,-3.4414,-3.4414,-3.4414,-3.4414,-3.4414,-3.4414,-3.4414,-3.4124,-3.3819,-3.3518,-3.2875,-3.2396,-3.2063,-3.1409,-3.109,-3.1076,-3.0757,-3.0598,-2.3458,-2.3473,-2.3575,-2.3575,0.0,-2.3023,-2.3,0.0,0.0,0.0,0.0,0.0,0.0,0.0,0.0,0.0,0.0,0.0,0.0,0.0,0.0,0.0,0.0,0.0,0.0,0.0,0.0,0.0,0.0,0.0,0.0,0.0,-3.8202,-3.8202,-3.8202,-3.8202,-3.8202,-3.8202,-3.8696,-3.9654,-3.9654,-3.9407,-3.8971,-3.8971,-3.8696,-3.8202,-3.8202,-3.8202,-3.8202,-3.8202,-3.8202,-3.8202,-3.8202,-3.8202,-3.8202,-3.8202,-3.8202,-3.8202,-3.8202,-3.8202,-3.8202,-3.8202,-3.8202,-3.8202,-3.8202,-3.8202,-3.8202,-3.8202,-3.8202,-3.8202,-3.8202,-3.8202,-3.8202,-3.8202,-3.8202,-3.8202,-3.8202,-3.8202,-3.8202,-3.8202,-3.8202,-3.8202,-3.8202,-3.7825,-3.7244,-3.6431,-3.5894,-3.5299,-3.4516,-3.4414,-3.4414,-3.4414,-3.4414,-3.4414,-3.4414,-3.4414,-3.4414,-3.4414,-3.4414,-3.4414,-3.4414,-3.4414,-3.4182,-3.3736,-3.3576,-3.3256,-3.2745,-3.2046,-3.164,-3.148,-3.1032,-3.0757,-2.3659,-2.3674,-2.3775,-2.3775,-2.3625,0.0,-2.3297,-2.3179,0.0,-2.3784,0.0,0.0,0.0,0.0,0.0,0.0,0.0,0.0,0.0,0.0,0.0,0.0,0.0,0.0,0.0,0.0,0.0,0.0,0.0,0.0,0.0,0.0,0.0,-3.8202,-3.8202,-3.8202,-3.8202,-3.8202,-3.8246,-3.8333,-3.8333,-3.8318,-3.8275,-3.8275,-3.8246,-3.8202,-3.8202,-3.8202,-3.8202,-3.8202,-3.8202,-3.8202,-3.8202,-3.8202,-3.8202,-3.8202,-3.8202,-3.8202,-3.8202,-3.8202,-3.8202,-3.8202,-3.8202,-3.8202,-3.8202,-3.8202,-3.8202,-3.8202,-3.8202,-3.8202,-3.8202,-3.8202,-3.8202,-3.8202,-3.8202,-3.8202,-3.8202,-3.8202,-3.8202,-3.8202,-3.8202,-3.8202,-3.8202,-3.8159,-3.7723,-3.6504,-3.6272,-3.5793,-3.4574,-3.4414,-3.4414,-3.4414,-3.4414,-3.4414,-3.4414,-3.4414,-3.4414,-3.4414,-3.4414,-3.4414,-3.4414,-3.4414,-3.4385,-3.4356,-3.3808,-3.3474,-3.3431,-3.2759,-3.2104,-3.1495,-3.1451,-3.1134,-2.4099,-2.4135,-2.4234,-2.4234,-2.413,0.0,0.0,-2.4879,-2.5292,-2.6247,0.0,0.0,0.0,0.0,0.0,0.0,0.0,0.0,0.0,0.0,0.0,0.0,0.0,0.0,0.0,0.0,0.0,0.0,0.0,0.0,0.0,0.0,0.0,-3.8202,-3.8202,-3.8202,-3.8202,-3.8202,-3.8202,-3.8202,-3.8202,-3.8202,-3.8202,-3.8202,-3.8202,-3.8202,-3.8202,-3.8202,-3.8202,-3.8202,-3.8202,-3.8202,-3.8202,-3.8202,-3.8202,-3.8202,-3.8202,-3.8202,-3.8202,-3.8202,-3.8202,-3.8202,-3.8202,-3.8202,-3.8202,-3.8202,-3.8202,-3.8202,-3.8202,-3.8202,-3.8202,-3.8202,-3.8202,-3.8202,-3.8202,-3.8202,-3.8202,-3.8202,-3.8202,-3.8202,-3.8202,-3.8202,-3.8202,-3.8202,-3.7767,-3.6504,-3.6301,-3.5851,-3.4574,-3.4414,-3.4414,-3.4414,-3.4414,-3.4414,-3.4414,-3.4414,-3.4414,-3.4414,-3.4414,-3.4414,-3.4414,-3.4414,-3.4414,-3.4414,-3.4182,-3.4051,-3.4051,-3.3427,-3.2977,-3.2716,-3.1903,-3.1395,-2.4446,-2.4482,-2.46,-2.46,0.0,0.0,-2.6331,-2.6435,-2.6695,0.0,0.0,0.0,0.0,0.0,0.0,0.0,0.0,0.0,0.0,0.0,0.0,0.0,0.0,0.0,0.0,0.0,0.0,0.0,0.0,0.0,0.0,0.0,0.0,0.0,-3.8202,-3.8202,-3.8202,-3.8202,-3.8202,-3.8202,-3.8202,-3.8202,-3.8202,-3.8202,-3.8202,-3.8202,-3.8202,-3.8202,-3.8202,-3.8202,-3.8202,-3.8202,-3.8202,-3.8202,-3.8202,-3.8202,-3.8202,-3.8202,-3.8202,-3.8202,-3.8202,-3.8202,-3.8202,-3.8202,-3.8202,-3.8202,-3.8202,-3.8202,-3.8202,-3.8202,-3.8202,-3.8202,-3.8202,-3.8202,-3.8202,-3.8202,-3.8202,-3.8202,-3.8202,-3.8202,-3.8202,-3.8202,-3.8202,-3.8202,-3.7767,-3.6504,-3.6301,-3.5851,-3.4574,-3.4414,-3.4414,-3.4414,-3.4414,-3.4414,-3.4414,-3.4414,-3.4414,-3.4414,-3.4414,-3.4414,-3.4414,-3.4414,-3.4414,-3.4414,-3.4414,-3.4414,-3.4414,-3.3978,-3.3707,-3.3474,-3.2556,-3.2034,-2.463,-2.4722,-2.4818,0.0,0.0,0.0,0.0,-2.762,-2.7022,0.0,0.0,0.0,0.0,0.0,0.0,0.0,0.0,0.0,0.0,0.0,0.0,0.0,0.0,0.0,0.0,0.0,0.0,0.0,0.0,0.0,0.0,0.0,0.0,0.0,-3.8202,-3.8202,-3.8202,-3.8202,-3.8202,-3.8202,-3.8202,-3.8202,-3.8202,-3.8202,-3.8202,-3.8202,-3.8202,-3.8202,-3.8202,-3.8202,-3.8202,-3.8202,-3.8202,-3.8202,-3.8202,-3.8202,-3.8202,-3.8202,-3.8202,-3.8202,-3.8202,-3.8202,-3.8202,-3.8202,-3.8202,-3.8202,-3.8202,-3.8202,-3.8202,-3.8202,-3.8202,-3.8202,-3.8202,-3.8202,-3.8202,-3.8202,-3.8202,-3.8202,-3.8202,-3.8202,-3.8202,-3.8202,-3.8202,-3.8202,-3.7781,-3.6504,-3.6301,-3.5851,-3.4574,-3.4414,-3.4414,-3.4414,-3.4414,-3.4414,-3.4414,-3.4414,-3.4414,-3.4414,-3.4414,-3.4414,-3.4414,-3.4414,-3.4414,-3.4414,-3.4414,-3.4414,-3.4414,-3.4414,-3.4095,-3.3518,-3.3503,-3.3137,-2.4745,-2.5647,0.0,0.0,0.0,0.0,0.0,0.0,0.0,0.0,0.0,0.0,0.0,0.0,0.0,0.0,0.0,0.0,0.0,0.0,0.0,0.0,0.0,0.0,0.0,0.0,0.0,0.0,0.0,0.0,0.0,0.0,0.0,0.0,-3.8202,-3.8202,-3.8202,-3.8202,-3.8202,-3.8202,-3.8202,-3.8202,-3.8202,-3.8202,-3.8202,-3.8202,-3.8202,-3.8202,-3.8202,-3.8202,-3.8202,-3.8202,-3.8202,-3.8202,-3.8202,-3.8202,-3.8202,-3.8202,-3.8202,-3.8202,-3.8202,-3.8202,-3.8202,-3.8202,-3.8202,-3.8202,-3.8202,-3.8202,-3.8202,-3.8202,-3.8202,-3.8202,-3.8202,-3.8202,-3.8202,-3.8202,-3.8202,-3.8202,-3.8202,-3.8202,-3.8202,-3.8202,-3.8202,-3.8202,-3.7941,-3.7128,-3.6606,-3.5851,-3.4574,-3.4414,-3.4414,-3.4414,-3.4414,-3.4414,-3.4414,-3.4414,-3.4414,-3.4414,-3.4414,-3.4414,-3.4414,-3.4414,-3.4414,-3.4414,-3.4414,-3.4414,-3.4414,-3.4414,-3.4312,-3.4124,-3.3707,-3.3402,-2.5614,0.0,0.0,0.0,0.0,0.0,0.0,0.0,0.0,0.0,0.0,0.0,0.0,0.0,0.0,0.0,0.0,0.0,0.0,0.0,0.0,0.0,0.0,0.0,0.0,0.0,0.0,0.0,0.0,0.0,0.0,0.0,0.0,0.0,-3.8202,-3.8202,-3.8202,-3.8202,-3.8202,-3.8202,-3.8202,-3.8202,-3.8202,-3.8202,-3.8202,-3.8202,-3.8202,-3.8202,-3.8202,-3.8202,-3.8202,-3.8202,-3.8202,-3.8202,-3.8202,-3.8202,-3.8202,-3.8202,-3.8202,-3.8202,-3.8202,-3.8202,-3.8202,-3.8202,-3.8202,-3.8202,-3.8202,-3.8202,-3.8202,-3.8202,-3.8202,-3.8202,-3.8202,-3.8202,-3.8202,-3.8202,-3.8202,-3.8202,-3.8202,-3.8202,-3.8202,-3.8202,-3.8202,-3.8202,-3.7999,-3.7404,-3.6519,-3.5561,-3.4545,-3.4414,-3.4414,-3.4414,-3.4414,-3.4414,-3.4414,-3.4414,-3.4414,-3.4414,-3.4414,-3.4414,-3.4414,-3.4414,-3.4414,-3.4414,-3.4414,-3.4414,-3.4414,-3.4414,-3.4414,-3.4399,-3.4022,-3.3848,0.0,0.0,0.0,0.0,0.0,0.0,0.0,0.0,0.0,0.0,0.0,0.0,0.0,0.0,0.0,0.0,0.0,0.0,0.0,0.0,0.0,0.0,0.0,0.0,0.0,0.0,0.0,0.0,0.0,0.0,0.0,0.0,0.0,0.0,-3.8202,-3.8202,-3.8202,-3.8202,-3.8202,0.0,-3.8202,-3.8202,-3.8202,-3.8202,-3.8202,-3.8202,-3.8202,-3.8202,-3.8202,-3.8202,-3.8202,-3.8202,-3.8202,-3.8202,-3.8202,-3.8202,-3.8202,-3.8202,-3.8202,-3.8202,-3.8202,-3.8202,-3.8202,-3.8202,-3.8202,-3.8202,-3.8202,-3.8202,-3.8202,-3.8202,-3.8202,-3.8202,-3.8202,-3.8202,-3.8202,-3.8202,-3.8202,-3.8202,-3.8202,-3.8202,-3.8202,-3.8202,-3.8202,-3.8202,-3.797,-3.7317,-3.6199,-3.5232,-3.4501,-3.4414,-3.4414,-3.4414,-3.4414,-3.4414,-3.4414,-3.4414,-3.4414,-3.4414,-3.4414,-3.4414,-3.4414,-3.4414,-3.4414,-3.4414,-3.4414,-3.4414,-3.4414,-3.4414,-3.4414,-3.4414,-3.4414,-3.4414,0.0,0.0,0.0,0.0,0.0,0.0,0.0,0.0,0.0,0.0,0.0,0.0,0.0,0.0,0.0,0.0,0.0,0.0,0.0,0.0,0.0,0.0,0.0,0.0,0.0,0.0,0.0,0.0,0.0,0.0,0.0,0.0,0.0,-3.8202,-3.8202,-3.8202,-3.8202,-3.8202,-3.8202,0.0,-3.8202,-3.8202,-3.8202,-3.8202,-3.8202,-3.8202,-3.8202,-3.8202,-3.8202,-3.8202,-3.8202,-3.8202,-3.8202,-3.8202,-3.8202,-3.8202,-3.8202,-3.8202,-3.8202,-3.8202,-3.8202,-3.8202,-3.8202,-3.8202,-3.8202,-3.8202,-3.8202,-3.8202,-3.8202,-3.8202,-3.8202,-3.8202,-3.8202,-3.8202,-3.8202,-3.8202,-3.8202,-3.8202,-3.8202,-3.8202,-3.8202,-3.8202,-3.8202,-3.8202,-3.7825,-3.6693,-3.6286,-3.5691,-3.4559,-3.4414,-3.4414,-3.4414,-3.4414,-3.4414,-3.4414,-3.4414,-3.4414,-3.4414,-3.4414,-3.4414,-3.4414,-3.4414,-3.4414,-3.4414,-3.4414,-3.4414,-3.4414,-3.4414,-3.4414,-3.4414,-3.4414,-3.4414,0.0,0.0,0.0,0.0,0.0,0.0,0.0,0.0,0.0,0.0,0.0,0.0,0.0,0.0,0.0,0.0,0.0,0.0,0.0,0.0,0.0,0.0,0.0,0.0,0.0,0.0,0.0,0.0,0.0,0.0,0.0,-3.8202,-3.8202,-3.8202,-3.8202,-3.8202,-3.8202,-3.8202,-3.8202,-3.8202,-3.8202,-3.8202,-3.8202,-3.8202,-3.8202,-3.8202,-3.8202,-3.8202,-3.8202,-3.8202,-3.8202,-3.8202,-3.8202,-3.8202,-3.8202,-3.8202,-3.8202,-3.8202,-3.8202,-3.8202,-3.8202,-3.8202,-3.8202,-3.8202,-3.8202,-3.8202,-3.8202,-3.8202,-3.8202,-3.8202,-3.8202,-3.8202,-3.8202,-3.8202,-3.8202,-3.8202,-3.8202,-3.8202,-3.8202,-3.8202,-3.8202,-3.8202,-3.8202,-3.8202,-3.7883,-3.6925,-3.6519,-3.5967,-3.4994,-3.4603,-3.4414,-3.4414,-3.4414,-3.4414,-3.4414,-3.4414,-3.4414,-3.4414,-3.4414,-3.4414,-3.4414,-3.4414,-3.4414,-3.4414,-3.4414,-3.4414,-3.4414,-3.4414,-3.4414,-3.4414,-3.4414,-3.4414,0.0,0.0,0.0,0.0,0.0,0.0,0.0,0.0,0.0,0.0,0.0,0.0,0.0,0.0,0.0,0.0,0.0,0.0,0.0,0.0,0.0,0.0,0.0,0.0,0.0,0.0,0.0,0.0,0.0,0.0,-3.7854,-3.7883,-3.7926,-3.8043,-3.8043,-3.8101,-3.8202,-3.8202,-3.8202,-3.824,-3.824,-3.824,-3.824,-3.8202,-3.8202,-3.8202,-3.8202,-3.8202,-3.8202,-3.8202,-3.8202,-3.8202,-3.8202,-3.8202,-3.8202,-3.8202,-3.8202,-3.8202,-3.8202,-3.8202,-3.8202,-3.8202,-3.8202,-3.8202,-3.8202,-3.8202,-3.8202,-3.8202,-3.8202,-3.8202,-3.8202,-3.8202,-3.8202,-3.8202,-3.8202,-3.8202,-3.8202,-3.8202,-3.8202,-3.8202,-3.8202,-3.8202,-3.8202,-3.8202,-3.7999,-3.7404,-3.6838,-3.6214,-3.5494,-3.4907,-3.453,-3.4428,-3.4414,-3.4414,-3.4414,-3.4414,-3.4414,-3.4414,-3.4414,-3.4414,-3.4414,-3.4414,-3.4414,-3.4414,-3.4414,-3.4414,-3.4414,-3.4414,-3.4414,-3.4414,-3.4414,-3.4414,0.0,0.0,0.0,0.0,0.0,0.0,0.0,0.0,0.0,0.0,0.0,0.0,0.0,0.0,0.0,0.0,0.0,0.0,0.0,0.0,0.0,0.0,0.0,0.0,0.0,0.0,0.0,0.0,0.0,0.0,-3.6562,-3.6562,-3.6823,-3.7404,-3.7433,-3.768,-3.8202,-3.8202,-3.8277,-3.8441,-3.8441,-3.8441,-3.8441,-3.8277,-3.8202,-3.8202,-3.8202,-3.8202,-3.8202,-3.8202,-3.8202,-3.8202,-3.8202,-3.8202,-3.8202,-3.8202,-3.8202,-3.8202,-3.8202,-3.8202,-3.8202,-3.8202,-3.8202,-3.8202,-3.8202,-3.8202,-3.8202,-3.8202,-3.8202,-3.8202,-3.8202,-3.8202,-3.8202,-3.8202,-3.8202,-3.8202,-3.8202,-3.8202,-3.8202,-3.8202,-3.8202,-3.8202,-3.8202,-3.8202,-3.7999,-3.7404,-3.723,-3.6736,-3.5552,-3.5319,-3.5024,-3.4472,-3.4414,-3.4414,-3.4414,-3.4414,-3.4414,-3.4414,-3.4414,-3.4414,-3.4414,-3.4414,-3.4414,-3.4414,-3.4414,-3.4414,-3.4414,-3.4414,-3.4414,-3.4414,-3.4414,-3.4481,0.0,0.0,0.0,0.0,0.0,0.0,0.0,0.0,0.0,0.0,0.0,0.0,0.0,0.0,0.0,0.0,0.0,0.0,0.0,0.0,0.0,0.0,0.0,0.0,0.0,0.0,0.0,0.0,0.0,-3.5923,-3.6286,-3.6301,-3.6482,-3.688,-3.6909,-3.7062,-3.7418,-3.7784,-3.8223,-3.8649,-3.8553,-3.8478,-3.8478,-3.8277,-3.8202,-3.8202,-3.8202,-3.8202,-3.8202,-3.8202,-3.8202,-3.8202,-3.8202,-3.8202,-3.8202,-3.8202,-3.8202,-3.8202,-3.8202,-3.8202,-3.8202,-3.8202,-3.8202,-3.8202,-3.8202,-3.8202,-3.8202,-3.8329,-3.8366,-3.8389,-3.8501,-3.8464,-3.8366,-3.8366,-3.8277,-3.8202,-3.8202,-3.8202,-3.8202,-3.8202,-3.8202,-3.8202,-3.8202,-3.8202,-3.8115,-3.7839,-3.752,-3.6968,-3.6011,-3.5625,-3.5145,-3.4486,-3.4414,-3.4414,-3.4414,-3.4414,-3.4414,-3.4414,-3.4414,-3.4414,-3.4414,-3.4414,-3.4414,-3.4414,-3.4414,-3.4414,-3.4414,-3.4414,-3.4414,-3.4414,-3.4414,-3.4549,0.0,0.0,0.0,0.0,0.0,0.0,0.0,0.0,0.0,0.0,0.0,0.0,0.0,0.0,0.0,0.0,0.0,0.0,0.0,0.0,0.0,0.0,0.0,0.0,0.0,0.0,0.0,0.0,0.0,-3.5432,-3.5933,-3.5927,-3.607,-3.6421,-3.6435,-3.6529,-3.6781,-3.7337,-3.786,-3.8383,-3.8201,-3.8143,-3.8143,-3.7945,-3.7958,-3.8119,-3.8167,-3.8202,-3.8202,-3.8202,-3.8202,-3.8202,-3.8202,-3.8202,-3.8202,-3.8202,-3.8202,-3.8202,-3.8202,-3.8202,-3.8202,-3.8202,-3.824,-3.8277,-3.8277,-3.8352,-3.8464,-3.8627,-3.8664,-3.8701,-3.8833,-3.8686,-3.8478,-3.8478,-3.8366,-3.8202,-3.8202,-3.8202,-3.8202,-3.8202,-3.8202,-3.8202,-3.8202,-3.8202,-3.8202,-3.8202,-3.7825,-3.7244,-3.6417,-3.5894,-3.5299,-3.4501,-3.4414,-3.4414,-3.4414,-3.4414,-3.4414,-3.4414,-3.4414,-3.4414,-3.4414,-3.4414,-3.4414,-3.4414,-3.4414,-3.4414,-3.4414,-3.4414,-3.4414,-3.4414,-3.4448,-3.465,0.0,0.0,0.0,0.0,0.0,0.0,0.0,0.0,0.0,0.0,0.0,0.0,0.0,0.0,0.0,0.0,0.0,0.0,0.0,0.0,0.0,0.0,0.0,0.0,0.0,0.0,0.0,0.0,0.0,-3.4823,-3.4957,-3.4957,-3.5284,-3.5937,-3.5952,-3.6197,-3.6781,-3.7,-3.7149,-3.7193,-3.7193,-3.7193,-3.7158,-3.6954,-3.7222,-3.7826,-3.809,-3.8202,-3.8202,-3.8202,-3.8202,-3.8202,-3.8202,-3.8202,-3.8202,-3.8202,-3.8202,-3.8202,-3.8202,-3.8202,-3.8202,-3.8202,-3.8329,-3.8478,-3.8478,-3.8738,-3.9068,-3.9068,-3.9068,-3.9068,-3.9068,-3.8775,-3.8478,-3.8478,-3.8366,-3.8202,-3.8202,-3.8202,-3.8202,-3.8202,-3.8202,-3.8202,-3.8202,-3.8202,-3.8202,-3.8202,-3.8173,-3.7709,-3.646,-3.6272,-3.5793,-3.4545,-3.4414,-3.4414,-3.4414,-3.4414,-3.4414,-3.4414,-3.4414,-3.4414,-3.4414,-3.4414,-3.4414,-3.4414,-3.4414,-3.4414,-3.4414,-3.4414,-3.4414,-3.4414,-3.4597,-3.4865,0.0,0.0,0.0,0.0,0.0,0.0,0.0,0.0,0.0,0.0,0.0,0.0,0.0,0.0,0.0,0.0,0.0,0.0,0.0,0.0,0.0,0.0,0.0,0.0,0.0,0.0,0.0,0.0,0.0,0.0,-3.4902,-3.4902,-3.5071,-3.5455,-3.5455,-3.58,-3.6603,-3.6686,-3.6914,-3.7282,-3.7144,-3.7193,-3.7282,-3.7075,-3.7173,-3.7565,-3.7647,-3.7973,-3.8404,-3.8404,-3.8315,-3.8202,-3.8202,-3.797,-3.7622,-3.7622,-3.736,-3.7041,-3.7609,-3.7828,-3.7923,-3.8554,-3.8848,-3.8922,-3.9053,-3.9162,-3.9307,-3.9466,-3.9502,-3.9502,-3.9502,-3.9286,-3.8995,-3.876,-3.8723,-3.8723,-3.8598,-3.8389,-3.8202,-3.8202,-3.8202,-3.8202,-3.8202,-3.8202,-3.8202,-3.8202,-3.8202,-3.7897,-3.7056,-3.6577,-3.5981,-3.5111,-3.4661,-3.4414,-3.4414,-3.4414,-3.4414,-3.4414,-3.4414,-3.4414,-3.4414,-3.4414,-3.4414,-3.4414,-3.4414,-3.4414,-3.4414,-3.4414,-3.4414,-3.4414,-3.4597,-3.4949,0.0,0.0,0.0,0.0,0.0,0.0,0.0,0.0,0.0,0.0,0.0,0.0,0.0,0.0,0.0,0.0,0.0,0.0,0.0,0.0,0.0,0.0,0.0,0.0,0.0,0.0,0.0,0.0,0.0,0.0,-3.5115,-3.5115,-3.5148,-3.5294,-3.5294,-3.5568,-3.6148,-3.6148,-3.639,-3.6847,-3.6679,-3.6727,-3.6929,-3.6862,-3.6982,-3.7342,-3.7375,-3.7684,-3.8141,-3.8141,-3.8054,-3.793,-3.7857,-3.7587,-3.7222,-3.7149,-3.6894,-3.6658,-3.7225,-3.7514,-3.776,-3.8648,-3.9035,-3.9258,-3.9647,-3.9698,-3.9636,-3.9756,-3.9569,-3.9297,-3.9297,-3.9068,-3.8751,-3.8415,-3.8415,-3.8487,-3.8256,-3.8341,-3.8389,-3.8315,-3.824,-3.8202,-3.8202,-3.8202,-3.8202,-3.8202,-3.8202,-3.7897,-3.707,-3.6591,-3.5981,-3.514,-3.4661,-3.4414,-3.4414,-3.4414,-3.4414,-3.4414,-3.4414,-3.4414,-3.4414,-3.4414,-3.4414,-3.4414,-3.4414,-3.4414,-3.4414,-3.4414,-3.4414,-3.4414,-3.465,-3.5133,0.0,0.0,0.0,0.0,0.0,0.0,0.0,0.0,0.0,0.0,0.0,0.0,0.0,0.0,0.0,0.0,0.0,0.0,0.0,0.0,0.0,0.0,0.0,0.0,0.0,0.0,0.0,0.0,0.0,-3.5294,-3.5504,-3.5504,-3.5504,-3.5504,-3.5504,-3.5504,-3.5504,-3.5504,-3.5572,-3.5688,-3.572,-3.5816,-3.6037,-3.6148,-3.6579,-3.7206,-3.7351,-3.741,-3.7439,-3.74,-3.7415,-3.7381,-3.7193,-3.7109,-3.706,-3.6871,-3.6891,-3.7065,-3.708,-3.7306,-3.7703,-3.84,-3.8956,-3.9521,-4.025,-4.0241,-3.9961,-3.9961,-3.9265,-3.8508,-3.8508,-3.8111,-3.7688,-3.7484,-3.7449,-3.7381,-3.7159,-3.7997,-3.8701,-3.8523,-3.83,-3.8202,-3.8202,-3.8188,-3.8173,-3.8173,-3.8159,-3.7709,-3.646,-3.6286,-3.5807,-3.4574,-3.4428,-3.4414,-3.4414,-3.4414,-3.4414,-3.4414,-3.4414,-3.4414,-3.4414,-3.4414,-3.4414,-3.4414,-3.4414,-3.4414,-3.4414,-3.4414,-3.4414,-3.4414,-3.4769,-3.5477,-2.5543,0.0,0.0,0.0,0.0,0.0,0.0,0.0,0.0,0.0,0.0,0.0,0.0,0.0,0.0,0.0,0.0,0.0,0.0,0.0,0.0,0.0,0.0,0.0,0.0,0.0,0.0,0.0,-3.5439,-3.5439,-3.5504,-3.5504,-3.5504,-3.5504,-3.5504,-3.5504,-3.5504,-3.5604,-3.5671,-3.5688,-3.5943,-3.6211,-3.6507,-3.6646,-3.703,-3.7553,-3.7613,-3.7677,-3.7776,-3.7866,-3.7831,-3.7681,-3.7647,-3.7259,-3.6753,-3.682,-3.652,-3.6175,-3.692,-3.7218,-3.7488,-3.849,-3.8903,-3.9146,-3.9623,-3.9594,-3.9437,-3.9437,-3.9152,-3.885,-3.8803,-3.8673,-3.8542,-3.8394,-3.8411,-3.8378,-3.7977,-3.8012,-3.8093,-3.7835,-3.8009,-3.8202,-3.8202,-3.7839,-3.7549,-3.7549,-3.7143,-3.6707,-3.6359,-3.5909,-3.5523,-3.5174,-3.469,-3.4414,-3.4414,-3.4414,-3.4414,-3.4414,-3.4414,-3.4414,-3.4414,-3.4414,-3.4414,-3.4414,-3.4414,-3.4414,-3.4414,-3.4414,-3.4414,-3.4414,-3.5004,-3.572,0.0,0.0,0.0,0.0,0.0,0.0,0.0,-2.676,0.0,0.0,0.0,0.0,0.0,0.0,0.0,0.0,0.0,0.0,0.0,0.0,0.0,0.0,0.0,0.0,0.0,0.0,0.0,-3.5572,-3.5522,-3.5504,-3.5504,-3.5504,-3.5504,-3.5504,-3.5504,-3.5537,-3.5572,-3.5671,-3.5816,-3.6053,-3.6305,-3.6616,-3.7013,-3.7222,-3.7519,-3.7873,-3.7963,-3.8033,-3.811,-3.8195,-3.8075,-3.7824,-3.768,-3.7353,-3.6936,-3.692,-3.6643,-3.6398,-3.6986,-3.7281,-3.7561,-3.8498,-3.8905,-3.9123,-3.9673,-3.9546,-3.9214,-3.9214,-3.884,-3.8434,-3.8294,-3.8278,-3.8232,-3.8107,-3.8138,-3.8044,-3.7597,-3.7552,-3.7582,-3.7484,-3.7541,-3.7624,-3.7624,-3.7332,-3.7098,-3.7098,-3.6762,-3.6376,-3.6044,-3.5715,-3.5345,-3.5029,-3.4632,-3.4414,-3.4414,-3.4414,-3.4414,-3.4414,-3.4414,-3.4414,-3.4414,-3.4414,-3.4414,-3.4414,-3.4414,-3.4448,-3.4515,-3.4448,-3.4515,-3.475,-3.5365,-3.5975,0.0,0.0,0.0,0.0,0.0,0.0,-2.5738,-2.686,-2.7879,0.0,0.0,0.0,0.0,0.0,0.0,0.0,0.0,0.0,0.0,0.0,0.0,0.0,0.0,0.0,0.0,-3.5679,-3.5582,-3.5582,-3.5559,-3.5537,-3.5554,-3.5569,-3.5569,-3.5522,-3.5537,-3.5572,-3.5688,-3.5752,-3.6022,-3.6523,-3.6723,-3.7043,-3.7506,-3.7812,-3.8059,-3.8201,-3.8375,-3.8476,-3.8504,-3.8504,-3.829,-3.7915,-3.7623,-3.7506,-3.7401,-3.7147,-3.7133,-3.7254,-3.7284,-3.7478,-3.7825,-3.846,-3.8859,-3.9224,-3.99,-3.9626,-3.9065,-3.9065,-3.8427,-3.7714,-3.7551,-3.7506,-3.7476,-3.7344,-3.7314,-3.7194,-3.6723,-3.6937,-3.7231,-3.7345,-3.7094,-3.6866,-3.6866,-3.6792,-3.6748,-3.6748,-3.6689,-3.6389,-3.5663,-3.5571,-3.5283,-3.4573,-3.4481,-3.4448,-3.4448,-3.4414,-3.4414,-3.4414,-3.4414,-3.4414,-3.4414,-3.4414,-3.4414,-3.4414,-3.4414,-3.4515,-3.4731,-3.4549,-3.475,-3.5279,-3.5782,-3.6289,0.0,0.0,0.0,0.0,0.0,0.0,-2.5862,-2.6956,-2.7987,0.0,0.0,0.0,0.0,0.0,0.0,0.0,0.0,0.0,0.0,0.0,0.0,0.0,0.0,0.0,0.0,-3.4881,-3.4903,-3.4903,-3.5384,-3.5735,-3.5893,-3.5893,-3.5814,-3.5671,-3.5671,-3.5655,-3.5688,-3.5975,-3.6305,-3.6662,-3.724,-3.7685,-3.7956,-3.8315,-3.8611,-3.8832,-3.886,-3.8985,-3.9137,-3.9137,-3.8794,-3.8307,-3.825,-3.8046,-3.7799,-3.7841,-3.774,-3.7612,-3.7714,-3.7801,-3.7892,-3.821,-3.8344,-3.8434,-3.8678,-3.8601,-3.8373,-3.8184,-3.8117,-3.8078,-3.8049,-3.8119,-3.8177,-3.8049,-3.802,-3.7905,-3.7553,-3.735,-3.714,-3.7033,-3.7137,-3.7277,-3.7277,-3.685,-3.6477,-3.6477,-3.6015,-3.5612,-3.5446,-3.5329,-3.5215,-3.5063,-3.4902,-3.4769,-3.4664,-3.4631,-3.4563,-3.4414,-3.4414,-3.4414,-3.4414,-3.4414,-3.4414,-3.4414,-3.4414,-3.4534,-3.4868,-3.4835,-3.5085,-3.5606,-3.599,-3.6445,0.0,0.0,0.0,-2.6059,0.0,0.0,0.0,-2.7052,-2.8086,0.0,0.0,0.0,0.0,0.0,0.0,0.0,0.0,0.0,0.0,0.0,0.0,0.0,0.0,0.0,0.0,-3.4782,-3.4562,-3.4303,-3.4953,-3.5394,-3.5519,-3.5823,-3.5941,-3.5863,-3.5863,-3.5926,-3.6085,-3.6336,-3.6708,-3.721,-3.7669,-3.8087,-3.8455,-3.8678,-3.8914,-3.9148,-3.9148,-3.9202,-3.9299,-3.9299,-3.911,-3.8838,-3.8738,-3.8556,-3.8343,-3.8359,-3.8234,-3.8078,-3.8193,-3.825,-3.8278,-3.8363,-3.8391,-3.8391,-3.8391,-3.8335,-3.8294,-3.8164,-3.8221,-3.8294,-3.8294,-3.8351,-3.8379,-3.8221,-3.8209,-3.8123,-3.7759,-3.7508,-3.7238,-3.7072,-3.7141,-3.7153,-3.699,-3.6669,-3.6427,-3.6427,-3.6171,-3.5911,-3.58,-3.572,-3.5638,-3.5459,-3.5267,-3.5037,-3.4817,-3.4731,-3.4597,-3.4414,-3.4481,-3.4563,-3.4563,-3.4601,-3.4635,-3.4635,-3.4635,-3.4868,-3.5314,-3.5412,-3.5606,-3.5943,-3.6414,-3.6785,0.0,0.0,0.0,0.0,0.0,-2.6168,0.0,0.0,0.0,0.0,0.0,0.0,0.0,0.0,0.0,0.0,0.0,0.0,0.0,0.0,0.0,0.0,0.0,0.0,0.0,-3.4435,-3.3919,-3.3633,-3.4166,-3.4486,-3.4516,-3.5399,-3.5886,-3.5839,-3.6008,-3.6226,-3.6554,-3.6723,-3.715,-3.7772,-3.8059,-3.8427,-3.886,-3.8996,-3.9148,-3.9299,-3.9299,-3.9299,-3.9299,-3.9299,-3.9299,-3.9272,-3.9121,-3.8969,-3.8832,-3.8727,-3.8588,-3.8504,-3.8588,-3.8644,-3.8644,-3.8616,-3.856,-3.8532,-3.842,-3.842,-3.842,-3.8408,-3.842,-3.842,-3.8408,-3.8391,-3.8363,-3.825,-3.8237,-3.8164,-3.7876,-3.7655,-3.7447,-3.7344,-3.7225,-3.6999,-3.6647,-3.6585,-3.6585,-3.6585,-3.6585,-3.6554,-3.6367,-3.6336,-3.6196,-3.5911,-3.5705,-3.5415,-3.5085,-3.4916,-3.4765,-3.4582,-3.4731,-3.4831,-3.4883,-3.5001,-3.5052,-3.5052,-3.5052,-3.5314,-3.5816,-3.6022,-3.6211,-3.6367,-3.6831,-3.7105,0.0,0.0,0.0,0.0,-2.6202,0.0,0.0,0.0,0.0,0.0,0.0,0.0,0.0,0.0,0.0,0.0,0.0,0.0,0.0,0.0,0.0,0.0,0.0,0.0,0.0,0.0,-3.2172,-3.253,-3.2594,-3.2624,-3.268,-3.4523,-3.5462,-3.5294,-3.6045,-3.6523,-3.6693,-3.6983,-3.7447,-3.8059,-3.8399,-3.8694,-3.8969,-3.9175,-3.9272,-3.9299,-3.9299,-3.9299,-3.9299,-3.9299,-3.9299,-3.9299,-3.9272,-3.9148,-3.8969,-3.8942,-3.886,-3.875,-3.8777,-3.8777,-3.875,-3.8644,-3.8504,-3.842,-3.8391,-3.8476,-3.8532,-3.842,-3.8492,-3.8548,-3.842,-3.8391,-3.8408,-3.8363,-3.8363,-3.8379,-3.8335,-3.8078,-3.7831,-3.7801,-3.7612,-3.7331,-3.6999,-3.6938,-3.6938,-3.6938,-3.6938,-3.6938,-3.6908,-3.6754,-3.6631,-3.6585,-3.6305,-3.5975,-3.5623,-3.5474,-3.5326,-3.5115,-3.5115,-3.5264,-3.5559,-3.5591,-3.5623,-3.5623,-3.5623,-3.5784,-3.6133,-3.6461,-3.6739,-3.6908,-3.7089,-3.727,0.0,0.0,0.0,0.0,0.0,0.0,0.0,0.0,-2.6202,0.0,0.0,0.0,0.0,0.0,0.0,0.0,0.0,0.0,0.0,0.0,0.0,0.0,0.0,0.0,0.0,0.0,0.0,0.0,0.0,-3.204,-3.1936,-3.3996,-3.5268,-3.5475,-3.6025,-3.6638,-3.727,-3.7565,-3.8001,-3.8511,-3.875,-3.8942,-3.9175,-3.9272,-3.9299,-3.9299,-3.9299,-3.9299,-3.9299,-3.9299,-3.9299,-3.9299,-3.9299,-3.9175,-3.8996,-3.8996,-3.8914,-3.8805,-3.8887,-3.8914,-3.8887,-3.8766,-3.8572,-3.8391,-3.8476,-3.8576,-3.8604,-3.8532,-3.8576,-3.8576,-3.842,-3.8391,-3.8391,-3.8391,-3.8391,-3.8391,-3.8391,-3.8135,-3.7905,-3.7905,-3.7671,-3.745,-3.7301,-3.7301,-3.7301,-3.7301,-3.7301,-3.7301,-3.7301,-3.7241,-3.7119,-3.7013,-3.6785,-3.6476,-3.6038,-3.5941,-3.5782,-3.5509,-3.5671,-3.5894,-3.6148,-3.6148,-3.6148,-3.6148,-3.6148,-3.632,-3.6677,-3.68,-3.703,-3.7301,-3.7345,-3.7435,-2.7377,0.0,0.0,0.0,0.0,0.0,0.0,0.0,0.0,0.0,0.0,0.0,0.0,0.0,0.0,0.0,0.0,0.0,0.0,0.0,0.0,0.0,0.0,0.0,0.0,0.0,0.0,0.0,-3.0203,-3.0942,-3.0307,-3.3111,-3.4719,-3.4701,-3.5564,-3.6432,-3.7227,-3.7717,-3.8135,-3.8581,-3.8887,-3.9121,-3.9299,-3.9299,-3.9299,-3.9299,-3.9299,-3.9299,-3.9299,-3.9299,-3.9299,-3.9299,-3.9299,-3.9202,-3.9094,-3.9094,-3.9023,-3.8942,-3.9067,-3.9067,-3.8996,-3.8887,-3.8711,-3.8532,-3.8644,-3.8699,-3.8699,-3.8616,-3.8616,-3.8616,-3.8448,-3.8436,-3.8464,-3.8408,-3.8436,-3.842,-3.8379,-3.8107,-3.7905,-3.7847,-3.7642,-3.751,-3.751,-3.751,-3.751,-3.751,-3.751,-3.751,-3.751,-3.751,-3.7435,-3.73,-3.7165,-3.6892,-3.6476,-3.6367,-3.6227,-3.5975,-3.629,-3.6554,-3.6693,-3.6693,-3.6693,-3.6693,-3.6693,-3.6816,-3.7044,-3.7121,-3.7271,-3.751,-3.751,-3.751,0.0,0.0,0.0,-2.8326,0.0,0.0,0.0,0.0,-2.6202,0.0,0.0,0.0,0.0,0.0,0.0,-2.6202,0.0,0.0,0.0,0.0,0.0,0.0,0.0,0.0,0.0,0.0,0.0,-2.7385,-2.8668,-2.8735,-2.7045,-3.1643,-3.3633,-3.2181,-3.4467,-3.5806,-3.6033,-3.7026,-3.7682,-3.8035,-3.8683,-3.9121,-3.9299,-3.9299,-3.9299,-3.9299,-3.9299,-3.9299,-3.9299,-3.9299,-3.9299,-3.9299,-3.9299,-3.9299,-3.9299,-3.9299,-3.9299,-3.9272,-3.9299,-3.9148,-3.8996,-3.8996,-3.8914,-3.8805,-3.8805,-3.8887,-3.8914,-3.8672,-3.8683,-3.8722,-3.8476,-3.8492,-3.856,-3.842,-3.8504,-3.8504,-3.8266,-3.8049,-3.7876,-3.773,-3.7583,-3.751,-3.751,-3.751,-3.751,-3.751,-3.751,-3.751,-3.751,-3.751,-3.751,-3.748,-3.73,-3.715,-3.6984,-3.68,-3.6693,-3.6662,-3.6983,-3.7164,-3.7194,-3.7194,-3.7194,-3.7194,-3.7194,-3.7194,-3.7178,-3.7405,-3.748,-3.751,-3.751,-3.751,0.0,0.0,-2.8474,-2.8474,0.0,0.0,0.0,0.0,0.0,0.0,0.0,0.0,0.0,0.0,-2.733,-2.6369,-2.6202,0.0,0.0,0.0,0.0,0.0,0.0,0.0,0.0,0.0,0.0,-2.6392,-2.7608,-2.8426,0.0,-3.1238,-3.3079,-3.3904,-3.4955,-3.5788,-3.6391,-3.6852,-3.7456,-3.8133,-3.8365,-3.8755,-3.9299,-3.9299,-3.9299,-3.9299,-3.9299,-3.9299,-3.9299,-3.9299,-3.9299,-3.9299,-3.9299,-3.9299,-3.9299,-3.9299,-3.9299,-3.9299,-3.9299,-3.9175,-3.8996,-3.8996,-3.8914,-3.8805,-3.8914,-3.8969,-3.8969,-3.8903,-3.8887,-3.8887,-3.8694,-3.8711,-3.8711,-3.856,-3.8576,-3.8548,-3.8266,-3.8049,-3.7876,-3.773,-3.7583,-3.751,-3.751,-3.751,-3.751,-3.751,-3.751,-3.751,-3.751,-3.751,-3.751,-3.751,-3.7435,-3.7345,-3.715,-3.7074,-3.7089,-3.7225,-3.7345,-3.7405,-3.7405,-3.7405,-3.7405,-3.7405,-3.7405,-3.7405,-3.7405,-3.748,-3.751,-3.751,-3.751,-3.751,-3.2664,-3.1483,0.0,-3.0221,-2.9073,0.0,-2.7875,0.0,0.0,0.0,0.0,0.0,0.0,0.0,0.0,-2.6369,-2.6202,-2.6202,0.0,-2.6202,0.0,0.0,0.0,0.0,0.0,0.0,-2.6026,-2.5936,-2.7169,-2.8009,0.0,0.0,-3.1614,-3.2393,-3.3169,-3.4096,-3.512,-3.558,-3.648,-3.7814,-3.8053,-3.8593,-3.9299,-3.9299,-3.9299,-3.9299,-3.9299,-3.9299,-3.9299,-3.9299,-3.9299,-3.9299,-3.9299,-3.9299,-3.9299,-3.9299,-3.9299,-3.9299,-3.9299,-3.9218,-3.9121,-3.9121,-3.904,-3.8969,-3.9094,-3.9121,-3.9094,-3.9023,-3.8996,-3.8969,-3.8832,-3.8832,-3.8849,-3.8644,-3.8644,-3.8544,-3.8164,-3.7992,-3.7847,-3.7671,-3.7569,-3.751,-3.751,-3.751,-3.751,-3.751,-3.751,-3.751,-3.751,-3.751,-3.751,-3.751,-3.751,-3.7435,-3.7329,-3.73,-3.7359,-3.748,-3.751,-3.751,-3.751,-3.751,-3.751,-3.751,-3.751,-3.751,-3.751,-3.751,-3.751,-3.751,-3.751,-3.751]},{"header":{"parameterUnit":"m.s-1","parameterCategory":1,"la1":30.6,"la2":29.2853,"lo1":-89.7004,"lo2":-87.6739,"dy":0.0162,"dx":0.0183,"nx":112,"ny":82,"refTime":"2023-07-30T12:00:00:Z","depth":0,"parameterNumber":3,"parameterNumberName":"V-component_of_WINDS"},"data":[0.0,0.0,0.0,0.0,0.0,0.0,0.0,0.0,0.0,0.0,0.0,0.0,0.0,0.0,0.0,0.0,0.0,0.0,0.0,0.0,0.0,0.0,0.0,0.0,0.0,0.0,0.0,0.0,0.0,0.0,0.0,0.0,0.0,0.0,0.0,0.0,0.0,0.0,0.0,0.0,0.0,0.0,0.0,0.0,0.0,0.0,0.0,0.0,0.0,0.0,0.0,0.0,0.0,0.0,0.0,0.0,0.0,0.0,0.0,0.0,0.0,0.0,0.0,0.0,0.0,0.0,0.0,0.0,0.0,0.0,0.0,0.0,0.0,0.0,0.0,0.0,0.0,0.0,0.0,0.0,0.0,0.0,0.0,0.0,0.0,0.0,0.0,0.0,0.0,0.0,0.0,-1.5799,-1.5799,-1.5799,-1.5799,-1.5799,-1.5799,-1.5799,0.0,0.0,0.0,0.0,0.0,0.0,0.0,0.0,0.0,0.0,0.0,0.0,0.0,0.0,0.0,0.0,0.0,0.0,0.0,0.0,0.0,0.0,0.0,0.0,0.0,0.0,0.0,0.0,0.0,0.0,0.0,0.0,0.0,0.0,0.0,0.0,0.0,0.0,0.0,0.0,0.0,0.0,0.0,0.0,0.0,0.0,0.0,0.0,0.0,0.0,0.0,0.0,0.0,0.0,0.0,0.0,0.0,0.0,0.0,0.0,0.0,0.0,0.0,0.0,0.0,0.0,0.0,0.0,0.0,0.0,0.0,0.0,0.0,0.0,0.0,0.0,0.0,0.0,0.0,0.0,0.0,0.0,0.0,0.0,0.0,0.0,0.0,0.0,0.0,0.0,0.0,0.0,0.0,0.0,0.0,0.0,0.0,0.0,0.0,0.0,0.0,0.0,0.0,0.0,-1.5799,-1.5799,-1.5799,-1.5799,-1.5799,-1.5799,-1.5799,-1.5799,0.0,0.0,0.0,0.0,0.0,0.0,0.0,0.0,0.0,0.0,0.0,0.0,0.0,0.0,0.0,0.0,0.0,0.0,0.0,0.0,0.0,0.0,0.0,0.0,0.0,0.0,0.0,0.0,0.0,0.0,0.0,0.0,0.0,0.0,0.0,0.0,0.0,0.0,0.0,0.0,0.0,0.0,0.0,0.0,0.0,0.0,0.0,0.0,0.0,0.0,0.0,0.0,0.0,0.0,0.0,0.0,0.0,0.0,0.0,0.0,0.0,0.0,0.0,0.0,0.0,0.0,0.0,0.0,0.0,0.0,0.0,0.0,0.0,0.0,0.0,0.0,0.0,0.0,0.0,0.0,0.0,0.0,0.0,0.0,0.0,0.0,0.0,0.0,0.0,0.0,0.0,0.0,0.0,0.0,0.0,0.0,0.0,0.0,0.0,0.0,0.0,0.0,0.0,-1.5799,-1.5799,-1.5799,-1.5799,-1.5799,-1.5799,-1.5799,-1.5799,-1.5799,-1.5799,0.0,0.0,0.0,0.0,0.0,0.0,0.0,0.0,0.0,0.0,0.0,0.0,0.0,0.0,0.0,0.0,0.0,0.0,0.0,0.0,0.0,0.0,0.0,0.0,0.0,0.0,0.0,0.0,0.0,0.0,0.0,0.0,0.0,0.0,0.0,0.0,0.0,0.0,0.0,0.0,0.0,0.0,0.0,0.0,0.0,0.0,0.0,0.0,0.0,0.0,0.0,0.0,0.0,0.0,0.0,0.0,0.0,0.0,0.0,0.0,0.0,0.0,0.0,0.0,0.0,0.0,0.0,0.0,0.0,0.0,0.0,0.0,0.0,0.0,0.0,0.0,0.0,0.0,0.0,0.0,0.0,0.0,0.0,0.0,0.0,0.0,0.0,0.0,0.0,0.0,0.0,0.0,0.0,0.0,0.0,0.0,0.0,0.0,0.0,0.0,0.0,0.0,-1.5799,-1.5799,-1.5799,-1.5799,-1.5799,-1.5799,-1.5799,-1.5799,-1.5799,-1.5799,0.0,0.0,0.0,0.0,0.0,0.0,0.0,0.0,0.0,0.0,0.0,0.0,0.0,0.0,0.0,0.0,0.0,0.0,0.0,0.0,0.0,0.0,0.0,0.0,0.0,0.0,0.0,0.0,0.0,0.0,0.0,0.0,0.0,0.0,0.0,0.0,0.0,0.0,0.0,0.0,0.0,0.0,0.0,0.0,0.0,0.0,0.0,0.0,0.0,0.0,0.0,0.0,0.0,0.0,0.0,0.0,0.0,0.0,0.0,0.0,0.0,0.0,0.0,0.0,0.0,0.0,0.0,0.0,0.0,0.0,0.0,0.0,0.0,0.0,0.0,0.0,0.0,0.0,0.0,0.0,0.0,0.0,0.0,0.0,0.0,0.0,0.0,0.0,0.0,0.0,0.0,0.0,0.0,0.0,0.0,0.0,0.0,0.0,0.0,0.0,0.0,0.0,-1.5799,-1.5799,-1.5799,-1.5799,-1.5799,-1.5799,-1.5799,-1.5799,-1.5799,-1.5799,0.0,0.0,0.0,0.0,0.0,0.0,0.0,0.0,0.0,0.0,0.0,0.0,0.0,0.0,0.0,0.0,0.0,0.0,0.0,0.0,0.0,0.0,0.0,0.0,0.0,0.0,0.0,0.0,0.0,0.0,0.0,0.0,0.0,0.0,0.0,0.0,0.0,0.0,0.0,0.0,0.0,0.0,0.0,0.0,0.0,0.0,0.0,0.0,0.0,0.0,0.0,0.0,0.0,0.0,0.0,0.0,0.0,0.0,0.0,0.0,0.0,0.0,0.0,0.0,0.0,0.0,0.0,0.0,0.0,0.0,0.0,0.0,0.0,0.0,0.0,0.0,0.0,0.0,0.0,0.0,0.0,0.0,0.0,0.0,0.0,0.0,0.0,0.0,0.0,0.0,0.0,0.0,0.0,0.0,0.0,0.0,0.0,0.0,0.0,0.0,0.0,0.0,-1.5799,-1.5799,0.0,-1.5799,-1.5799,-1.5799,-1.5799,-1.5799,-1.5799,0.0,0.0,0.0,0.0,0.0,0.0,0.0,0.0,0.0,0.0,0.0,0.0,0.0,0.0,0.0,0.0,0.0,0.0,0.0,0.0,0.0,0.0,0.0,0.0,0.0,0.0,0.0,0.0,0.0,0.0,0.0,0.0,0.0,0.0,0.0,0.0,0.0,0.0,0.0,0.0,0.0,0.0,0.0,0.0,0.0,0.0,0.0,0.0,0.0,0.0,0.0,0.0,0.0,0.0,0.0,0.0,0.0,0.0,0.0,0.0,0.0,0.0,0.0,0.0,0.0,0.0,0.0,0.0,0.0,0.0,0.0,0.0,0.0,0.0,0.0,0.0,0.0,0.0,0.0,0.0,0.0,0.0,0.0,0.0,0.0,0.0,0.0,0.0,0.0,0.0,0.0,0.0,0.0,0.0,0.0,0.0,0.0,0.0,0.0,0.0,0.0,0.0,-1.5799,-1.5799,-1.5799,0.0,-1.5799,-1.5813,-1.5827,-1.5827,-1.5842,-1.587,0.0,0.0,0.0,0.0,0.0,0.0,0.0,0.0,0.0,0.0,0.0,0.0,0.0,0.0,0.0,0.0,0.0,0.0,0.0,0.0,0.0,0.0,0.0,0.0,0.0,0.0,0.0,0.0,0.0,0.0,0.0,0.0,0.0,0.0,0.0,0.0,0.0,0.0,0.0,0.0,0.0,0.0,0.0,0.0,0.0,0.0,0.0,0.0,0.0,0.0,0.0,0.0,0.0,0.0,0.0,0.0,0.0,0.0,0.0,0.0,0.0,0.0,0.0,0.0,0.0,0.0,0.0,0.0,0.0,0.0,0.0,0.0,0.0,0.0,0.0,0.0,0.0,0.0,0.0,0.0,0.0,0.0,0.0,0.0,0.0,0.0,0.0,0.0,0.0,0.0,0.0,0.0,0.0,0.0,0.0,0.0,0.0,0.0,0.0,0.0,0.0,0.0,-1.5829,-1.5829,-1.5829,-1.5829,-1.5829,-1.5857,-1.5915,-1.5915,-1.5942,0.0,0.0,0.0,0.0,0.0,0.0,0.0,0.0,0.0,0.0,0.0,0.0,0.0,0.0,0.0,0.0,0.0,0.0,0.0,0.0,0.0,0.0,0.0,0.0,0.0,0.0,0.0,0.0,0.0,0.0,0.0,0.0,0.0,0.0,0.0,0.0,0.0,0.0,0.0,0.0,0.0,0.0,0.0,0.0,0.0,0.0,0.0,0.0,0.0,0.0,0.0,0.0,0.0,0.0,0.0,0.0,0.0,0.0,0.0,0.0,0.0,0.0,0.0,0.0,0.0,0.0,0.0,0.0,0.0,0.0,0.0,0.0,0.0,0.0,0.0,0.0,0.0,0.0,0.0,0.0,0.0,0.0,0.0,0.0,0.0,0.0,0.0,0.0,0.0,0.0,0.0,0.0,0.0,0.0,0.0,0.0,0.0,0.0,0.0,0.0,0.0,0.0,0.0,-1.713,-1.713,-1.713,-1.713,-1.713,-1.7178,-1.7302,-1.7302,-1.7348,-1.741,0.0,0.0,0.0,0.0,0.0,0.0,0.0,0.0,0.0,0.0,0.0,0.0,0.0,0.0,0.0,0.0,0.0,0.0,0.0,0.0,0.0,0.0,0.0,0.0,0.0,0.0,0.0,0.0,0.0,0.0,0.0,0.0,0.0,0.0,0.0,0.0,0.0,0.0,0.0,0.0,0.0,0.0,0.0,0.0,0.0,0.0,0.0,0.0,0.0,0.0,0.0,0.0,0.0,0.0,0.0,0.0,0.0,0.0,0.0,0.0,0.0,0.0,0.0,0.0,0.0,0.0,0.0,0.0,0.0,0.0,0.0,0.0,0.0,0.0,0.0,0.0,0.0,0.0,0.0,0.0,0.0,0.0,0.0,0.0,0.0,0.0,0.0,0.0,0.0,0.0,0.0,0.0,0.0,0.0,0.0,0.0,0.0,0.0,0.0,0.0,0.0,0.0,-1.7713,-1.7746,-1.7762,-1.7713,-1.7713,-1.7762,-1.7922,-1.7938,-1.7986,-1.8066,0.0,0.0,0.0,0.0,0.0,0.0,0.0,0.0,0.0,0.0,0.0,0.0,0.0,0.0,0.0,0.0,0.0,0.0,0.0,0.0,0.0,0.0,0.0,0.0,0.0,0.0,0.0,0.0,0.0,0.0,0.0,0.0,0.0,0.0,0.0,0.0,0.0,0.0,0.0,0.0,0.0,0.0,0.0,0.0,0.0,0.0,0.0,0.0,0.0,0.0,0.0,0.0,0.0,0.0,0.0,0.0,0.0,0.0,0.0,0.0,0.0,0.0,0.0,0.0,0.0,0.0,0.0,0.0,0.0,0.0,0.0,0.0,0.0,0.0,0.0,0.0,0.0,0.0,0.0,0.0,0.0,0.0,0.0,0.0,0.0,0.0,0.0,0.0,0.0,0.0,0.0,0.0,0.0,0.0,0.0,0.0,0.0,0.0,0.0,0.0,0.0,0.0,-1.7909,-1.7991,-1.8039,-1.7909,-1.7893,-1.799,-1.8183,-1.8199,-1.8232,-1.836,0.0,0.0,0.0,0.0,0.0,0.0,0.0,0.0,0.0,0.0,0.0,0.0,0.0,0.0,0.0,0.0,0.0,0.0,0.0,0.0,0.0,0.0,0.0,0.0,0.0,0.0,0.0,0.0,0.0,0.0,0.0,0.0,0.0,0.0,0.0,0.0,0.0,0.0,0.0,0.0,0.0,0.0,0.0,0.0,0.0,0.0,0.0,0.0,0.0,0.0,0.0,0.0,0.0,0.0,0.0,0.0,0.0,0.0,0.0,0.0,-2.1839,0.0,0.0,0.0,0.0,0.0,0.0,0.0,0.0,0.0,0.0,0.0,0.0,0.0,0.0,0.0,0.0,0.0,0.0,0.0,0.0,0.0,0.0,0.0,0.0,0.0,0.0,0.0,0.0,0.0,0.0,0.0,0.0,0.0,0.0,0.0,0.0,0.0,0.0,0.0,0.0,0.0,-1.9359,-1.9391,-1.9376,-1.9374,-1.9341,-1.9429,-1.9636,-1.96,-1.96,-1.9687,0.0,0.0,0.0,0.0,0.0,0.0,0.0,0.0,0.0,0.0,0.0,0.0,0.0,0.0,0.0,0.0,0.0,0.0,0.0,0.0,0.0,0.0,0.0,0.0,0.0,0.0,0.0,0.0,0.0,0.0,0.0,0.0,0.0,0.0,0.0,0.0,0.0,0.0,0.0,0.0,0.0,0.0,0.0,0.0,0.0,0.0,0.0,0.0,0.0,0.0,0.0,0.0,0.0,0.0,0.0,0.0,0.0,0.0,0.0,0.0,0.0,-2.2843,0.0,0.0,0.0,0.0,0.0,0.0,0.0,0.0,0.0,0.0,0.0,0.0,0.0,0.0,0.0,0.0,0.0,0.0,0.0,0.0,0.0,0.0,0.0,0.0,0.0,0.0,0.0,0.0,0.0,0.0,0.0,0.0,0.0,0.0,0.0,0.0,0.0,0.0,0.0,0.0,-1.9815,-1.9866,-1.9866,-1.9797,-1.9797,-1.9887,-2.0083,-2.0043,-2.0025,-2.0098,-1.9622,0.0,0.0,0.0,0.0,0.0,0.0,0.0,0.0,0.0,0.0,0.0,0.0,0.0,0.0,0.0,0.0,0.0,0.0,0.0,0.0,0.0,0.0,0.0,0.0,0.0,0.0,0.0,0.0,0.0,0.0,0.0,0.0,0.0,0.0,0.0,0.0,0.0,0.0,0.0,0.0,0.0,0.0,0.0,0.0,0.0,0.0,0.0,0.0,0.0,0.0,0.0,0.0,0.0,-2.6574,-2.6692,-2.6825,-2.6872,-2.7576,-2.8642,-2.6768,-2.6585,-2.7425,0.0,0.0,0.0,0.0,0.0,0.0,0.0,0.0,0.0,0.0,0.0,0.0,0.0,0.0,0.0,0.0,0.0,0.0,0.0,0.0,0.0,0.0,0.0,0.0,0.0,-1.7806,-1.9623,0.0,0.0,0.0,0.0,0.0,0.0,0.0,0.0,0.0,0.0,0.0,0.0,-1.9851,-1.9919,-1.9955,-1.9848,-1.983,-1.9919,-2.0115,-2.0043,-2.0025,-2.008,-1.9887,-1.9557,0.0,0.0,0.0,0.0,0.0,0.0,0.0,0.0,0.0,0.0,0.0,0.0,0.0,0.0,0.0,0.0,0.0,0.0,0.0,0.0,0.0,0.0,0.0,0.0,0.0,0.0,0.0,0.0,0.0,0.0,0.0,0.0,-2.2396,-2.1663,0.0,0.0,0.0,0.0,0.0,0.0,0.0,0.0,0.0,0.0,0.0,0.0,0.0,-2.7303,-2.8702,-2.897,-2.9162,-2.9279,-2.9405,-2.9535,-2.9653,-2.9653,-3.0144,-3.0966,-3.0652,0.0,-2.8085,-2.7585,0.0,0.0,0.0,0.0,0.0,0.0,0.0,0.0,0.0,0.0,0.0,0.0,0.0,0.0,0.0,0.0,0.0,0.0,0.0,0.0,0.0,0.0,-2.2797,-2.2777,-2.2575,-2.2394,0.0,-2.102,-1.9888,-1.9963,-2.0114,0.0,0.0,0.0,0.0,0.0,0.0,0.0,-1.999,-1.9988,-1.9988,-1.9988,-1.997,-2.0058,-2.0252,-2.0111,-1.999,-2.0008,-1.9815,-1.9681,-1.9591,-1.9573,0.0,0.0,0.0,0.0,0.0,0.0,0.0,0.0,0.0,0.0,0.0,0.0,0.0,0.0,0.0,0.0,0.0,0.0,0.0,0.0,0.0,0.0,0.0,0.0,0.0,0.0,0.0,0.0,0.0,-2.1056,-2.2214,-2.1019,-2.1616,-2.1349,0.0,0.0,0.0,0.0,0.0,0.0,0.0,0.0,0.0,-2.6937,-2.746,-2.8589,-3.0386,-3.0539,-3.0985,-3.1814,-3.1882,-3.2152,-3.2606,-3.2606,-3.2816,-3.3118,-3.269,-3.1986,-3.1006,-2.9465,-2.7929,-2.6306,0.0,0.0,0.0,0.0,-2.1439,-2.2332,-2.3979,-2.5072,0.0,0.0,0.0,0.0,0.0,0.0,0.0,0.0,0.0,0.0,0.0,0.0,0.0,-2.3903,-2.4202,-2.4527,-2.4424,-2.2928,-2.1311,0.0,-2.027,-2.0371,-2.022,0.0,0.0,0.0,0.0,0.0,-1.9919,-1.9937,-1.997,-1.9902,-1.9884,-1.9955,-2.0113,-1.9973,-1.9884,-1.9884,-1.9762,-1.9708,-1.9708,-1.9708,-1.9573,0.0,0.0,0.0,0.0,0.0,0.0,0.0,0.0,0.0,0.0,0.0,0.0,0.0,0.0,0.0,0.0,0.0,0.0,0.0,0.0,0.0,0.0,0.0,0.0,0.0,0.0,0.0,0.0,-2.1426,-2.2183,-2.123,-2.217,-2.2194,0.0,0.0,0.0,0.0,0.0,0.0,-2.6057,-2.6396,-2.7325,-2.9044,-2.9416,-3.0384,-3.2045,-3.2045,-3.2606,-3.3675,-3.3675,-3.3981,-3.4505,-3.4505,-3.4505,-3.4474,-3.3906,-3.3675,-3.349,-3.1151,-2.9848,-2.9166,-2.6611,-2.5302,-2.4779,-2.4287,-2.4748,-2.5826,-2.7326,-2.8565,-2.9597,-3.0597,0.0,-2.9248,-2.7203,0.0,0.0,0.0,0.0,-2.2363,-2.3794,-2.5133,-2.6023,-2.5808,-2.6137,-2.6489,-2.6378,-2.4897,-2.3024,0.0,-2.0553,-2.0304,-2.0235,0.0,0.0,0.0,0.0,-2.001,-1.9815,-1.9884,-1.9902,-1.9797,-1.9797,-1.9848,-1.9988,-1.9884,-1.9797,-1.9797,-1.9744,-1.9708,-1.9708,-1.9708,-1.9708,-1.9708,0.0,0.0,0.0,0.0,0.0,0.0,0.0,0.0,0.0,0.0,0.0,0.0,0.0,0.0,0.0,0.0,0.0,0.0,0.0,0.0,0.0,0.0,0.0,0.0,0.0,0.0,0.0,0.0,0.0,-2.3909,-2.4472,0.0,0.0,0.0,0.0,-2.5772,-2.5102,-2.6163,-2.9658,-2.9726,-3.0664,-3.285,-3.3727,-3.4214,-3.4351,-3.4351,-3.4382,-3.4443,-3.4443,-3.4459,-3.4505,-3.4505,-3.4505,-3.4505,-3.4459,-3.4443,-3.4335,-3.2844,-3.112,-2.9371,-2.9202,-2.798,-2.6503,-2.8365,-2.9104,-2.9417,-3.1413,-3.2136,-3.2198,-3.2275,-3.0135,-2.7519,-2.738,-2.4933,0.0,0.0,-2.5862,-2.7237,-2.9271,-3.0585,-3.1421,-3.1392,-2.9883,-2.8457,-2.8442,-2.6984,-2.5078,0.0,-2.1284,-2.0098,-2.0041,0.0,-2.008,-2.0008,-2.0005,-1.9955,-1.9815,-1.9797,-1.9797,-1.9797,-1.9797,-1.9848,-1.9988,-1.9884,-1.9797,-1.9797,-1.9744,-1.9708,-1.9708,-1.9708,-1.9708,-1.9708,-1.9678,0.0,0.0,0.0,0.0,0.0,0.0,0.0,0.0,0.0,0.0,0.0,0.0,0.0,0.0,0.0,0.0,0.0,0.0,0.0,0.0,0.0,0.0,0.0,0.0,0.0,0.0,0.0,0.0,-2.4134,-2.4978,0.0,0.0,-2.55,-2.6426,-2.7868,-2.8713,-3.0017,-3.2005,-3.2389,-3.3008,-3.4017,-3.4352,-3.472,-3.5152,-3.5152,-3.5598,-3.6415,-3.6415,-3.6661,-3.7076,-3.7076,-3.683,-3.6399,-3.5953,-3.5552,-3.5075,-3.415,-3.3349,-3.2675,-3.2675,-3.1951,-3.0982,-3.1705,-3.1705,-3.1428,-3.2151,-3.2398,-3.2398,-3.2398,-3.1582,-3.0458,-2.9597,-2.8464,-2.7649,-2.8275,-2.8761,-2.9434,-3.0846,-3.1507,-3.1756,-3.1641,-3.1029,-3.0464,-3.0464,-2.8963,-2.7385,-2.6666,-2.5055,-2.383,-2.3788,-2.2712,-2.1825,-2.1821,-2.0699,-1.9848,-1.9744,-1.9762,-1.978,-1.9744,-1.9744,-1.9744,-1.9797,-1.9762,-1.9744,-1.9744,-1.9708,-1.9708,-1.9708,-1.9708,-1.9708,-1.9708,-1.9708,-1.9708,0.0,0.0,0.0,0.0,0.0,0.0,0.0,0.0,0.0,0.0,0.0,0.0,0.0,0.0,0.0,0.0,0.0,0.0,0.0,0.0,0.0,0.0,0.0,0.0,0.0,0.0,-2.5246,-2.5035,-2.6273,-2.7074,-2.6863,-2.7776,-2.8822,-2.9931,-3.118,-3.2491,-3.3895,-3.4422,-3.5049,-3.5814,-3.583,-3.6045,-3.6507,-3.6507,-3.6953,-3.7846,-3.7846,-3.8077,-3.8508,-3.8508,-3.8262,-3.7815,-3.7369,-3.6923,-3.6476,-3.6014,-3.5737,-3.543,-3.4767,-3.4212,-3.3767,-3.3767,-3.3475,-3.3059,-3.2813,-3.2736,-3.269,-3.2459,-3.2398,-3.2228,-3.1351,-3.1036,-3.0983,-3.0888,-3.0823,-3.0901,-3.1615,-3.1756,-3.167,-3.1539,-3.1511,-3.1511,-3.1511,-3.0479,-2.9594,-2.9594,-2.7525,-2.5809,-2.5809,-2.4664,-2.3747,-2.3747,-2.2044,-2.0749,-2.0711,-2.0164,-1.9744,-1.9708,-1.9708,-1.9708,-1.9708,-1.9708,-1.9708,-1.9708,-1.9708,-1.9708,-1.9708,-1.9708,-1.9708,-1.9708,-1.9708,-1.9708,-1.9708,0.0,0.0,0.0,0.0,0.0,0.0,0.0,0.0,0.0,0.0,0.0,0.0,0.0,0.0,0.0,0.0,0.0,0.0,0.0,0.0,0.0,0.0,0.0,-2.4149,-2.5246,-2.6245,-2.6877,-2.8563,-2.9912,-3.0498,-3.1162,-3.1707,-3.2035,-3.2392,-3.346,-3.5444,-3.5874,-3.6802,-3.8429,-3.8475,-3.8508,-3.8539,-3.8539,-3.8554,-3.8569,-3.8569,-3.8569,-3.8569,-3.8569,-3.8554,-3.8539,-3.8539,-3.8539,-3.8508,-3.8508,-3.8123,-3.7338,-3.5367,-3.4566,-3.4536,-3.4536,-3.4491,-3.4368,-3.3675,-3.34,-3.3293,-3.2675,-3.2444,-3.2428,-3.2428,-3.2302,-3.2191,-3.2191,-3.1996,-3.1799,-3.1799,-3.167,-3.1511,-3.1511,-3.1511,-3.1511,-3.1511,-3.1511,-3.1511,-3.1511,-2.8401,-2.577,-2.577,-2.5734,-2.5704,-2.5704,-2.4029,0.0,-2.2793,-2.1085,-1.9887,-1.9887,-1.9887,-1.9887,-1.9887,-1.9887,-1.9887,-1.9887,-1.9887,-1.9872,-1.9857,-1.9857,-1.9842,-1.9828,-1.9828,-1.9828,-1.9828,0.0,0.0,0.0,0.0,0.0,0.0,0.0,0.0,0.0,0.0,0.0,0.0,0.0,0.0,0.0,0.0,0.0,0.0,0.0,0.0,0.0,0.0,-2.5893,-2.5458,-2.7242,-2.8998,-3.008,-3.0656,-3.1204,-3.1836,-3.2455,-3.3107,-3.3753,-3.4565,-3.5456,-3.6374,-3.6798,-3.7401,-3.8279,-3.8279,-3.8591,-3.9198,-3.9247,-3.9459,-3.9936,-3.9936,-3.9936,-3.9936,-3.9936,-3.9674,-3.9247,-3.9247,-3.897,-3.8508,-3.8508,-3.84,-3.8123,-3.7076,-3.6061,-3.5199,-3.5063,-3.4621,-3.4028,-3.3846,-3.377,-3.3739,-3.3556,-3.3191,-3.2854,-3.2854,-3.2475,-3.2038,-3.194,-3.187,-3.1756,-3.1626,-3.1539,-3.1511,-3.1511,-3.1511,-3.1511,-3.1511,-3.1511,-3.1511,-3.1511,-3.0629,-2.9881,-2.9881,-2.87,-2.7784,-2.7784,-2.6078,0.0,-2.4807,-2.4328,-2.3984,-2.3984,-2.3984,-2.3984,-2.3984,-2.3984,-2.3984,-2.3984,-2.3984,-2.3759,-2.3259,-2.3244,-2.3005,-2.2532,-2.2517,-2.2517,0.0,0.0,0.0,0.0,0.0,0.0,0.0,0.0,0.0,0.0,0.0,0.0,0.0,0.0,0.0,0.0,0.0,0.0,0.0,0.0,0.0,0.0,-2.772,-2.883,-2.8984,-2.9813,-3.0853,-3.2117,-3.2258,-3.2595,-3.348,-3.3888,-3.4311,-3.4858,-3.5489,-3.6223,-3.7057,-3.739,-3.7943,-3.8816,-3.8899,-3.9234,-3.9852,-3.9871,-4.0105,-4.0489,-4.0489,-4.0489,-4.0489,-4.0489,-4.0274,0.0,-3.9905,-3.969,-3.9354,-3.9354,-3.9152,0.0,0.0,0.0,0.0,0.0,-3.5491,-3.4744,-3.4455,-3.4364,-3.4319,-3.3985,-3.3652,-3.3378,-3.3378,-3.3061,-3.2639,-3.2295,-3.2133,-3.2015,-3.1614,-3.1511,-3.1511,-3.1511,-3.1511,-3.1511,-3.1511,-3.1511,-3.1511,-3.1511,-3.1511,0.0,-3.1511,-3.0554,-2.9806,-2.9806,-2.8143,-2.6871,-2.6871,-2.6123,-2.5615,-2.5615,-2.5615,-2.5615,-2.5615,-2.5615,0.0,0.0,0.0,-2.5292,-2.4634,-2.4605,0.0,0.0,0.0,-2.3595,-2.3595,0.0,0.0,0.0,-2.2368,-2.2338,0.0,0.0,0.0,0.0,0.0,0.0,0.0,0.0,0.0,0.0,0.0,0.0,0.0,0.0,0.0,0.0,-3.0825,-3.2103,-3.322,-3.2539,-3.23,-3.3396,-3.3522,-3.3958,-3.5091,-3.5245,-3.5362,-3.5487,-3.5713,-3.6373,-3.7448,0.0,0.0,0.0,0.0,-3.9996,-4.0226,-4.0401,-4.0489,-4.0489,-4.0489,-4.0489,-4.0489,-4.0489,-4.0489,-4.0489,-4.0489,-4.0489,-4.0489,-4.0489,-4.0136,-3.9521,-3.88,-3.8475,-3.8332,-3.7588,-3.6785,-3.5972,-3.538,0.0,0.0,-3.4304,-3.4046,-3.3985,-3.3985,-3.3819,-3.3562,-3.2975,-3.2691,-3.2497,-3.1869,-3.1735,-3.1735,-3.1735,-3.1735,-3.1705,-3.163,-3.1615,-3.1585,-3.1511,-3.1511,-3.1511,-3.1511,-3.1511,-3.1511,-3.1511,-3.0016,-2.8936,-2.8936,-2.738,-2.6273,-2.6273,0.0,0.0,-2.6273,-2.6273,-2.6273,-2.6273,-2.6198,-2.5875,-2.5292,-2.5128,-2.4769,-2.4178,-2.4088,-2.4044,-2.4044,-2.4044,-2.4657,-2.5794,-2.4448,-2.3909,0.0,0.0,0.0,0.0,0.0,0.0,0.0,0.0,0.0,0.0,0.0,0.0,0.0,0.0,0.0,-3.001,-3.1789,-3.3178,-3.3922,-3.4281,-3.457,-3.4809,-3.4837,-3.4936,-3.5175,-3.5639,-3.5934,-3.5972,-3.6613,-3.7144,-3.7577,-3.7789,0.0,-3.8701,-3.9068,-3.943,-3.9803,-4.0156,-4.0401,-4.0489,0.0,0.0,-4.0489,-4.0489,-4.0489,-4.0489,-4.0489,-4.0489,-4.0489,-4.0489,-4.0413,-4.0182,-3.8985,-3.8325,-3.8093,-3.7922,-3.7219,-3.6367,-3.6232,-3.5857,-3.5377,-3.5242,-3.4821,-3.4371,-3.4371,-3.3996,0.0,-3.3365,-3.3335,-3.3275,-3.3155,-3.311,-3.311,-3.311,-3.311,-3.2976,-3.2407,-3.2303,-3.2138,-3.16,-3.1511,-3.1511,-3.1511,-3.1511,-3.1511,-3.1511,-3.1182,-3.0943,-3.0943,-3.0599,-3.036,-3.036,-3.036,-3.036,-3.036,-3.036,-3.036,-3.036,-2.9836,-2.9505,-2.937,-2.8382,-2.7769,-2.7634,-2.7106,-2.6821,-2.6821,-2.6821,-2.6971,-2.718,-2.5839,-2.5779,0.0,0.0,0.0,0.0,0.0,0.0,0.0,0.0,0.0,0.0,0.0,-2.6006,0.0,0.0,-3.0235,-3.2055,-3.3424,-3.445,-3.5068,-3.5456,-3.5653,-3.5653,-3.5653,-3.5766,-3.6075,-3.6385,-3.6567,-3.6567,-3.6926,-3.7226,-3.7419,-3.7558,-3.7787,-3.8202,-3.8935,-3.9484,-3.9888,-4.0692,-4.1219,-4.1413,-4.1484,-4.1535,-4.1555,-4.1217,-4.1063,-4.1047,-4.0659,-4.0489,-4.0489,-4.0436,-4.0401,-4.0324,-3.9562,-3.8952,-3.8493,-3.8493,-3.7816,-3.6941,-3.6941,-3.6522,-3.5998,-3.5998,-3.5534,-3.4996,-3.4996,-3.4756,-3.4427,-3.4083,-3.3978,-3.3903,-3.3589,-3.3499,-3.3499,-3.3499,-3.3499,-3.341,-3.308,-3.3006,-3.2901,-3.2587,-3.2512,-3.2512,-3.2512,-3.2213,-3.1884,-3.1555,-3.1511,-3.1511,-3.1511,-3.1511,-3.1511,-3.1511,-3.1511,-3.1511,-3.1511,-3.1511,-3.1511,-3.1511,-3.1182,-3.0866,-3.0507,-2.9894,-2.925,-2.8607,-2.8263,-2.7944,-2.76,-2.76,-2.76,-2.7585,-2.6926,-2.6971,0.0,0.0,0.0,0.0,0.0,0.0,0.0,0.0,-2.6019,-2.6357,-2.772,-2.935,-3.0919,-3.1766,-3.2693,-3.4183,-3.4941,-3.5541,-3.6033,-3.6216,-3.6286,-3.6286,-3.6286,-3.6483,-3.6936,-3.6978,-3.6978,-3.6978,-3.6978,-3.707,-3.7226,-3.7226,-3.7423,-3.7883,-3.8808,-3.9563,-4.015,-4.1183,-4.1917,-4.2316,-4.2441,-4.2565,-4.2586,-4.2048,-4.1724,-4.1555,-4.0797,-4.0489,-4.0489,-4.0381,-4.0312,-4.0277,-4.0081,-3.9662,-3.9161,-3.9161,-3.848,-3.7599,-3.7599,-3.718,-3.6671,-3.6671,-3.6222,-3.5699,-3.5699,-3.5609,-3.5385,-3.4863,-3.4698,-3.4562,-3.4023,-3.3888,-3.3888,-3.3888,-3.3888,-3.3844,-3.3709,-3.3679,-3.3649,-3.3529,-3.3499,-3.3499,-3.3499,-3.3051,-3.2482,-3.1795,-3.1585,-3.1511,-3.1511,-3.1511,-3.1511,-3.1511,-3.1511,-3.1511,-3.1511,-3.1511,-3.1511,-3.1511,-3.1511,-3.1256,-3.0731,-3.0567,-3.0013,-2.8996,-2.8727,-2.8323,-2.7794,-2.766,-2.76,-2.76,-2.76,-2.76,-2.4027,-2.5204,-2.6394,-2.7255,-2.6682,-2.5841,0.0,0.0,-2.8956,-2.8478,-3.0684,-3.2897,-3.3641,-3.4323,-3.4851,-3.5062,-3.5597,-3.6019,-3.6103,-3.6581,-3.688,-3.688,-3.688,-3.6908,-3.6978,-3.6978,-3.6978,-3.6978,-3.6978,-3.7017,-3.7017,-3.7017,-3.731,-3.7898,-3.8353,-3.9164,-4.0354,-4.0852,-4.149,-4.2316,-4.2316,-4.2441,-4.2602,-4.2525,-4.2171,-4.1555,-4.0797,-4.0489,-4.0489,-4.0381,-4.0312,-4.0277,-4.0081,-3.9844,-3.9611,-3.9611,-3.9068,-3.8287,-3.8287,-3.7853,-3.73,-3.73,-3.6881,-3.6372,-3.6372,-3.5968,-3.5489,-3.5415,-3.5385,-3.537,-3.531,-3.528,-3.528,-3.528,-3.528,-3.5115,-3.4533,-3.4399,-3.4219,-3.3604,-3.3499,-3.3499,-3.3499,-3.344,-3.3155,-3.2497,-3.1884,-3.1511,-3.1511,-3.1511,-3.1511,-3.1511,-3.1511,-3.1511,-3.1511,-3.1511,-3.1511,-3.1511,-3.1511,-3.1466,-3.1391,-3.0836,-3.0432,-3.0298,-2.9175,-2.8562,-2.8487,-2.7899,-2.76,-2.76,-2.76,-2.76,-2.7268,-2.7945,0.0,0.0,-2.9389,-2.9236,-3.0013,-3.1021,-3.1893,-3.239,-3.3515,-3.4464,-3.4731,-3.5316,-3.5723,0.0,-3.6244,-3.6638,-3.6638,-3.6824,-3.6978,-3.6978,-3.6978,-3.6978,-3.6978,-3.6978,-3.6978,-3.6978,-3.6978,-3.6978,-3.6978,-3.7316,-3.7639,-3.7892,-3.8906,-3.9822,-4.063,-4.1423,-4.2154,-4.2854,-4.3008,-4.3252,-4.3554,-4.3059,-4.2294,-4.1316,-4.0747,-4.047,-4.0366,-4.0207,-4.0066,-3.9945,-3.9747,-3.9604,-3.9553,-3.9661,-3.9409,-3.899,-3.899,-3.8542,-3.7973,-3.7973,-3.7539,-3.6956,-3.6596,-3.6297,-3.5998,-3.5609,-3.5504,-3.5504,-3.5504,-3.5504,-3.5504,-3.5504,-3.5504,-3.5429,-3.513,-3.507,-3.4996,-3.4711,-3.4666,-3.4666,-3.4666,-3.4337,-3.3978,-3.3694,-3.2766,-3.2079,-3.2079,-3.1735,-3.1511,-3.1511,-3.1511,-3.1511,-3.1511,-3.1511,-3.1511,-3.1511,-3.1511,-3.1511,-3.1511,-3.1227,-3.0883,-3.0507,-2.9983,-2.934,-2.8607,-2.8308,-2.7989,-2.76,-2.76,-2.76,-2.9031,0.0,0.0,-3.1212,-3.1508,-3.1909,-3.3466,-3.3831,-3.4084,-3.5006,-3.533,-3.5442,-3.5442,-3.5949,0.0,-3.6356,-3.6722,-3.6978,-3.6978,-3.6978,-3.6978,-3.6978,-3.6978,-3.6978,-3.6978,-3.6978,-3.6978,-3.6978,-3.6978,-3.7063,-3.7231,-3.7653,-3.806,-3.8412,-3.9476,-4.0318,-4.0943,-4.1734,-4.2459,-4.313,-4.3275,-4.363,-4.4097,-4.3404,-4.2482,-4.1469,-4.0953,-4.057,-4.0277,-4.0031,-3.9839,-3.9696,-3.9496,-3.9388,-3.9424,-3.9553,-3.9517,-3.9388,-3.9388,-3.9095,-3.8676,-3.8676,-3.8212,-3.7599,-3.715,-3.6881,-3.6611,-3.5953,-3.5774,-3.5729,-3.5549,-3.5504,-3.5504,-3.5504,-3.5504,-3.5504,-3.5504,-3.5504,-3.5504,-3.5504,-3.5504,-3.5504,-3.5504,-3.51,-3.4788,-3.4788,-3.3784,-3.2991,-3.2811,-3.2183,-3.1705,-3.1525,-3.1511,-3.1511,-3.1511,-3.1511,-3.1511,-3.1511,-3.1511,-3.1511,-3.1511,-3.1511,-3.1271,-3.0806,-3.0597,-2.9953,-2.8876,-2.8655,-2.8196,-2.7549,-2.7499,-2.7499,0.0,0.0,-3.1205,-3.2667,-3.3044,-3.3401,-3.4815,-3.5133,-3.5147,-3.5175,-3.5667,-3.6075,-3.6075,-3.6581,-3.695,-3.695,-3.6978,-3.6978,-3.6978,-3.6978,-3.6978,-3.6978,-3.6978,-3.6978,0.0,-3.6978,-3.6978,-3.6978,-3.6978,-3.7245,-3.7835,-3.7892,-3.8468,-3.969,-3.9802,-4.0336,-4.1367,-4.1423,-4.1841,-4.2729,-4.2729,-4.3036,-4.36,-4.3389,-4.2906,-4.2239,-4.1566,-4.0908,-4.0277,-3.9874,-3.9717,-3.9696,-3.9496,-3.9388,-3.9388,-3.9424,-3.9424,-3.9388,-3.9388,-3.9373,-3.9394,-3.9394,-3.8931,-3.8362,-3.8347,-3.7883,-3.7255,-3.6626,-3.6462,-3.6312,-3.5669,-3.5504,-3.5504,-3.5504,-3.5504,-3.5504,-3.5504,-3.5504,-3.5504,-3.5504,-3.5504,-3.5504,-3.5504,-3.5489,-3.5474,-3.5474,-3.4876,-3.4219,-3.3544,-3.2886,-3.2213,-3.157,-3.1511,-3.1511,-3.1511,-3.1511,-3.1511,-3.1511,-3.1511,-3.1511,-3.1511,-3.1511,-3.1496,-3.1466,-3.0823,-3.0193,-2.9577,-2.88,-2.8066,-2.7401,-2.7284,-2.7192,0.0,0.0,-3.2387,-3.337,-3.3971,-3.4561,-3.5574,-3.5808,-3.592,-3.6314,-3.592,-3.5372,-3.4927,-3.5363,-3.5667,-3.5222,-3.6192,-3.6978,-3.6978,-3.6978,-3.6978,-3.6978,-3.6978,0.0,0.0,0.0,0.0,-3.6978,-3.7358,-3.7681,-3.7892,-3.8693,-3.9339,-3.9774,-4.0182,-4.0647,-4.1142,-4.1142,-4.1437,-4.202,-4.2485,-4.2729,-4.2795,-4.2836,-4.2327,-4.1423,-4.1198,-4.0582,-3.9696,-3.9696,-3.961,-3.9481,-3.9424,-3.9388,-3.9388,-3.9388,-3.9388,-3.9388,-3.9388,-3.9388,-3.9388,-3.9388,-3.926,-3.899,-3.8527,-3.8227,-3.7928,-3.7285,-3.7105,-3.6956,-3.6327,-3.6148,-3.6043,-3.5609,-3.5504,-3.5504,-3.5504,-3.5504,-3.5504,-3.5504,-3.5504,-3.5504,-3.5504,-3.5504,-3.5504,-3.5504,-3.4921,-3.4279,-3.3589,-3.2916,-3.2392,-3.2183,-3.1765,-3.1511,-3.1511,-3.1511,-3.1511,-3.1511,-3.1511,-3.1511,-3.1511,-3.1511,-3.1511,-3.1511,-3.1271,-3.0823,-3.0193,-2.9441,-2.8705,-2.8066,-2.7465,-2.7207,-3.1495,-3.257,-3.3509,-3.4427,-3.5018,-3.5531,-3.6248,-3.6258,-3.6216,-3.661,-3.5541,-3.4379,-3.395,-3.4421,-3.4688,-3.4273,-3.5784,-3.6978,-3.6978,-3.6978,-3.6978,-3.6978,-3.6978,0.0,0.0,0.0,0.0,-3.7316,-3.7681,-3.8102,-3.8552,-3.9339,-3.9887,-4.0097,-4.0491,-4.0773,-4.0887,-4.0887,-4.11,-4.1479,-4.2061,-4.2281,-4.2158,-4.2485,-4.1998,-4.0891,-4.107,-4.0467,-3.9424,-3.9553,-3.9517,-3.9388,-3.9388,-3.9388,-3.9388,-3.9388,-3.9388,-3.9388,-3.9388,-3.9388,-3.9388,-3.9388,-3.9388,-3.9298,-3.8901,-3.8751,-3.8616,-3.7943,-3.7764,-3.7614,-3.6985,-3.6656,-3.6372,-3.5953,-3.5669,-3.5504,-3.5504,-3.5504,-3.5504,-3.5504,-3.5504,-3.5504,-3.5504,-3.5504,-3.5504,-3.5504,-3.513,-3.4607,-3.3933,-3.3469,-3.3036,-3.2557,-3.2108,-3.1765,-3.1525,-3.1511,-3.1511,-3.1511,-3.1511,-3.1511,-3.1511,-3.1438,-3.1438,-3.1438,-3.1395,-3.1038,-3.0354,-2.9841,-2.9119,-2.8219,-2.758,-2.7193,-3.1766,-3.2946,-3.4582,-3.5822,-3.6131,-3.63,-3.681,-3.6525,-3.6103,-3.6061,-3.4534,-3.3178,0.0,0.0,-3.3964,-3.3964,-3.5602,-3.6852,-3.688,-3.695,-3.6978,0.0,0.0,0.0,0.0,0.0,0.0,-3.795,0.0,-3.851,-3.9718,-3.9816,-4.0055,-4.0645,-4.0659,-4.0659,-4.0659,-4.0659,-4.0773,-4.0958,-4.1395,-4.1646,-4.1646,-4.2307,-4.1886,-4.0674,-4.1126,-4.0599,-3.9373,-3.9388,-3.9388,-3.9388,-3.9388,-3.9388,-3.9388,-3.9388,-3.9388,-3.9388,-3.9388,-3.9388,-3.9388,-3.9388,-3.9388,-3.9388,-3.9388,-3.9388,-3.929,-3.8631,-3.8437,-3.8287,-3.7629,-3.703,-3.6567,-3.6537,-3.6028,-3.5549,-3.5549,-3.5534,-3.5504,-3.5504,-3.5504,-3.5504,-3.5504,-3.5504,-3.5504,-3.5504,-3.5504,-3.5265,-3.4638,-3.4533,-3.3978,-3.2706,-3.2512,-3.2213,-3.157,-3.1511,-3.1511,-3.1511,-3.1511,-3.1511,-3.1482,-3.1351,-3.1292,-3.1292,-3.1161,-3.0778,-3.0145,-2.9957,-2.9227,-2.7986,-2.7628,-2.7131,-3.3178,-3.4548,-3.5672,-3.6033,-3.6455,-3.6708,-3.6413,-3.6216,-3.5977,-3.5513,-3.36,-3.1808,0.0,0.0,0.0,-3.075,-3.3094,0.0,-3.5597,-3.6441,0.0,0.0,0.0,-3.7161,-3.7625,-3.7807,0.0,0.0,-3.9006,-3.9145,-3.9466,-3.9784,-4.0017,-4.017,-4.017,-4.017,-4.017,-4.017,-4.0213,-4.0257,-4.0531,-4.0645,-4.0688,-4.1212,-4.0832,-3.983,-4.0236,-3.9877,-3.8943,-3.9104,-3.9265,-3.9388,-3.9388,-3.9388,-3.9388,-3.9388,-3.9388,-3.9388,-3.9388,-3.9388,-3.9388,-3.9388,-3.9388,-3.9388,-3.9388,-3.9388,-3.9343,-3.92,-3.9155,-3.9005,-3.8317,-3.8018,-3.7778,-3.7285,-3.6701,-3.6237,-3.6237,-3.5848,-3.5504,-3.5504,-3.5504,-3.5504,-3.5504,-3.5504,-3.5504,-3.5504,-3.5504,-3.5444,-3.5265,-3.4801,-3.4189,-3.3335,-3.2811,-3.2213,-3.157,-3.1511,-3.1467,-3.1351,-3.1351,-3.1292,-3.1205,-3.1161,-3.1161,-3.1161,-3.0984,-3.0778,-3.0617,-2.9886,-2.9363,-2.8987,-2.7725,-2.7044,-3.4136,-3.5199,-3.5997,-3.6186,-3.6311,-3.6116,-3.5236,-3.4622,-3.403,-3.3122,-3.124,0.0,0.0,0.0,0.0,0.0,0.0,0.0,-3.5335,-3.6287,-3.685,0.0,-3.7035,0.0,-3.7597,-3.8209,-3.8768,0.0,-3.9353,-3.9478,-3.9657,-3.986,-3.9996,-3.9996,-3.9996,-3.9996,-3.9996,-3.9996,-3.9996,-3.9996,-4.0112,-4.0099,-3.9998,-4.0474,-4.0224,-3.9461,0.0,-3.9615,-3.906,-3.9099,-3.9228,-3.9388,-3.9388,-3.9388,-3.9388,-3.9388,-3.9388,-3.9388,-3.9388,-3.9388,-3.9388,-3.9388,-3.9388,-3.9388,-3.9388,-3.9388,-3.9388,-3.9388,-3.9388,-3.9334,-3.8945,-3.8616,-3.8302,-3.7928,-3.736,-3.6821,-3.6552,-3.6193,-3.5848,-3.5564,-3.5504,-3.5504,-3.5504,-3.5504,-3.5504,-3.5504,-3.5504,-3.5504,-3.5504,-3.516,-3.4562,-3.3604,-3.3155,-3.2557,-3.1585,-3.1511,-3.1438,-3.1307,-3.1307,-3.1234,-3.1117,-3.0955,-3.0821,-3.0762,-3.0431,-3.028,-3.028,-2.9665,-2.9247,-2.9022,-2.8003,-2.7365,-3.4678,-3.5308,-3.5961,-3.621,-3.5905,-3.5131,-3.3762,-3.2629,-3.1543,-3.0247,0.0,-2.7456,-2.7456,0.0,-2.8855,-2.9838,0.0,-3.4172,-3.5161,-3.5983,-3.6462,-3.6417,-3.7077,-3.7505,-3.7413,-3.8602,-3.931,-3.9179,-3.935,-3.9586,-3.9938,-3.9908,-3.9865,-3.9865,-3.9865,-3.9865,-3.9908,-3.9865,-3.9865,-3.9865,-3.9821,-3.9675,-3.9472,-3.9911,-3.9766,-3.9325,0.0,0.0,-3.9308,-3.9151,-3.9177,-3.9337,-3.9388,-3.9388,-3.9388,-3.9388,-3.9388,-3.9388,-3.9388,-3.9388,-3.9388,-3.9388,-3.9388,-3.9388,-3.9388,-3.9388,-3.9388,-3.9388,-3.9388,-3.9388,-3.9388,-3.8975,-3.8527,-3.8527,-3.8018,-3.7389,-3.6851,-3.6611,-3.6297,-3.5624,-3.5504,-3.5504,-3.5504,-3.5504,-3.5504,-3.5504,-3.5504,-3.5504,-3.5504,-3.5504,-3.5026,-3.3769,-3.3544,-3.2991,-3.1735,-3.1555,-3.1453,-3.1292,-3.1263,-3.1176,-3.0984,-3.0702,-3.0447,-3.0251,-2.9775,-2.954,-2.954,-2.9324,-2.9014,-2.8577,-2.8246,-2.7776,-3.4606,-3.5435,-3.6182,-3.5753,-3.5574,-3.491,-3.2698,-3.2034,0.0,0.0,0.0,-2.7337,-2.7337,-2.7553,0.0,-2.7321,0.0,0.0,0.0,0.0,-3.545,0.0,0.0,0.0,0.0,0.0,0.0,0.0,0.0,-3.9664,-3.973,-3.9336,-3.9087,-3.9087,-3.9087,-3.9189,-3.9438,-3.9189,-3.9087,-3.9087,-3.8935,-3.8827,-3.8769,-3.8859,-3.8891,-3.88,-3.8672,0.0,-3.89,-3.8876,-3.898,-3.9177,-3.9337,-3.9388,-3.9388,-3.9388,-3.9388,-3.9388,-3.9388,-3.9388,-3.9388,-3.9388,-3.9388,-3.9388,-3.9388,-3.9388,-3.9388,-3.9388,-3.9388,-3.9388,-3.9388,-3.9334,-3.9245,-3.9245,-3.8721,-3.8197,-3.8078,-3.7225,-3.6297,-3.5624,-3.5504,-3.5504,-3.5504,-3.5504,-3.5504,-3.5504,-3.5504,-3.5504,-3.5504,-3.5504,-3.519,-3.4429,-3.3814,-3.3185,-3.2378,-3.1809,-3.1395,-3.1132,-3.1132,-3.0925,-3.0447,-3.028,-3.0097,-2.9901,-2.9432,-2.9194,-2.9194,-2.8862,-2.8693,-2.857,-2.7877,-2.7485,-3.3973,-3.4596,-3.5201,-3.4783,-3.4443,-3.3618,-3.1206,0.0,0.0,0.0,0.0,-2.6194,-2.6194,0.0,0.0,0.0,0.0,0.0,0.0,0.0,0.0,0.0,0.0,0.0,0.0,0.0,0.0,0.0,0.0,0.0,-3.9292,-3.8935,-3.8756,-3.8756,-3.8756,-3.88,-3.8904,-3.88,-3.8756,-3.8756,-3.8647,-3.8557,-3.8408,-3.8557,-3.8653,-3.8817,-3.8721,0.0,-3.91,-3.8995,-3.8943,-3.8943,-3.9177,-3.9228,-3.9265,-3.9337,-3.9388,-3.9388,-3.9388,-3.9337,-3.9228,-3.9228,-3.9301,-3.9388,-3.9265,-3.9228,-3.9228,-3.9104,-3.9104,-3.9104,-3.9104,-3.9177,-3.9228,-3.9228,-3.8814,-3.8392,-3.8392,-3.7389,-3.6387,-3.6073,-3.5744,-3.5504,-3.5504,-3.5504,-3.5504,-3.5504,-3.5504,-3.5504,-3.5504,-3.5504,-3.5235,-3.4578,-3.3888,-3.323,-3.2572,-3.1811,-3.1292,-3.1102,-3.0955,-3.0642,-3.0219,-2.9867,-2.9543,-2.9279,-2.883,-2.8587,-2.8587,-2.8314,-2.8229,-2.8327,-2.7824,-2.7626,-3.3225,-3.3735,-3.4148,-3.3821,-3.3403,-3.2436,-2.9896,-2.8926,0.0,0.0,-2.509,-2.5174,-2.5174,0.0,0.0,0.0,0.0,0.0,0.0,0.0,0.0,0.0,0.0,0.0,0.0,0.0,0.0,0.0,0.0,0.0,-3.8729,-3.8575,-3.8498,-3.8498,-3.8498,-3.8544,-3.8602,-3.8544,-3.8498,-3.8498,-3.8466,-3.833,-3.8122,-3.8376,-3.8544,-3.8734,-3.8844,0.0,0.0,-3.8993,-3.8844,-3.8634,-3.8885,-3.9031,-3.9104,-3.9265,-3.9337,-3.9337,-3.9337,-3.9177,-3.9017,-3.8995,-3.9104,-3.9228,-3.9068,-3.9031,-3.8958,-3.8797,-3.8708,-3.8671,-3.8723,-3.8833,-3.8995,-3.9031,-3.8761,-3.845,-3.8316,-3.7391,-3.6541,-3.6406,-3.5821,-3.5359,-3.5359,-3.5407,-3.5439,-3.5439,-3.5439,-3.5439,-3.5439,-3.5392,-3.5165,-3.4646,-3.4035,-3.3378,-3.2661,-3.1901,-3.1323,-3.1028,-3.0702,-3.0357,-2.9943,-2.9435,-2.9044,-2.8707,-2.8249,-2.8046,-2.8046,-2.7822,-2.7822,-2.798,-2.7789,-2.7756,-3.269,-3.3536,-3.381,-3.3319,-3.3142,-3.2327,-2.938,0.0,0.0,-2.5507,-2.5005,-2.5033,-2.5033,-2.6171,-2.6724,0.0,0.0,0.0,0.0,0.0,0.0,0.0,0.0,0.0,0.0,0.0,0.0,0.0,0.0,0.0,-3.8245,-3.8258,-3.8258,-3.8258,-3.8258,-3.8349,-3.8602,-3.8349,-3.8258,-3.8213,-3.807,-3.7946,-3.7946,-3.7946,-3.8057,-3.8264,-3.8334,0.0,0.0,-3.8399,-3.8322,-3.8037,-3.8404,-3.8775,-3.9104,-3.9104,-3.9141,-3.9141,-3.9141,-3.898,-3.8797,-3.8627,-3.8686,-3.887,-3.8819,-3.8686,-3.8553,-3.8516,-3.8389,-3.8315,-3.8478,-3.8553,-3.859,-3.8797,-3.8774,-3.8604,-3.7978,-3.7329,-3.6679,-3.6079,-3.541,-3.4968,-3.4968,-3.5115,-3.5213,-3.5213,-3.5213,-3.5213,-3.5213,-3.5082,-3.4938,-3.4879,-3.4436,-3.3815,-3.3037,-3.2326,-3.1571,-3.0701,-3.0447,-3.0038,-2.9404,-2.9012,-2.8707,-2.8352,-2.8006,-2.7822,-2.7822,-2.7623,-2.7536,-2.7556,-2.7536,-2.7523,-3.1478,-3.2353,-3.2833,-3.2626,-3.2572,-3.1879,-2.9197,0.0,0.0,-2.5507,-2.4948,-2.4863,-2.4863,-2.5835,-2.6253,0.0,0.0,0.0,0.0,0.0,0.0,0.0,0.0,0.0,0.0,0.0,0.0,0.0,0.0,0.0,-3.8011,-3.8011,-3.8011,-3.8011,-3.8011,-3.807,-3.8161,-3.807,-3.8011,-3.8011,-3.7946,-3.79,-3.79,-3.79,-3.8011,-3.82,-3.8425,0.0,0.0,-3.8061,-3.7903,-3.7404,-3.7924,-3.8315,-3.8575,-3.8833,-3.8907,-3.8907,-3.8775,-3.8538,-3.8225,-3.8014,-3.7749,-3.762,-3.7976,-3.8028,-3.7877,-3.7519,-3.7443,-3.7481,-3.7443,-3.7672,-3.8028,-3.8352,-3.8464,-3.8354,-3.8091,-3.7551,-3.6872,-3.6266,-3.5589,-3.5054,-3.4808,-3.485,-3.4931,-3.5016,-3.5001,-3.5001,-3.5001,-3.4935,-3.4868,-3.4783,-3.436,-3.3891,-3.3466,-3.2309,-3.1379,-3.0871,-3.0035,-2.9387,-2.9026,-2.8592,-2.8249,-2.8006,-2.7756,-2.7623,-2.7623,-2.7523,-2.749,-2.749,-2.749,-2.749,-3.025,-3.1137,-3.1568,-3.1568,-3.1468,-3.0839,0.0,0.0,-2.7394,-2.531,-2.4806,-2.4721,-2.4721,-2.5317,-2.5568,-2.4869,0.0,-2.7064,0.0,0.0,0.0,0.0,0.0,0.0,0.0,0.0,0.0,0.0,0.0,0.0,0.0,-3.79,-3.79,-3.79,-3.79,-3.79,-3.79,-3.79,-3.79,-3.79,-3.79,-3.79,-3.79,-3.79,-3.7979,-3.8135,0.0,0.0,0.0,-3.767,-3.7414,-3.6744,-3.7222,-3.7658,-3.8066,-3.8352,-3.8464,-3.8427,-3.8292,-3.7938,-3.7505,-3.7275,-3.69,-3.6547,-3.6861,-3.7017,-3.7017,-3.6626,-3.6587,-3.6665,-3.6547,-3.6861,-3.7275,-3.7567,-3.7644,-3.7644,-3.7644,-3.712,-3.6525,-3.6119,-3.5411,-3.4829,-3.4557,-3.453,-3.4582,-3.4735,-3.4735,-3.4735,-3.4668,-3.4635,-3.4549,-3.4395,-3.4074,-3.3744,-3.3409,-3.2277,-3.1301,-3.0644,-2.9711,-2.9008,-2.8605,-2.8229,-2.7934,-2.7723,-2.7556,-2.749,-2.749,-2.749,-2.749,-2.749,-2.749,-2.749,-2.9106,-2.9998,-3.0115,-3.0115,-2.9808,-2.9151,0.0,0.0,-2.6227,-2.4889,-2.4591,-2.4591,-2.4591,-2.4605,-2.4605,-2.4591,-2.5565,0.0,0.0,0.0,0.0,0.0,0.0,0.0,0.0,0.0,0.0,0.0,0.0,0.0,0.0,-3.79,-3.79,-3.79,-3.79,-3.79,-3.79,-3.79,-3.79,-3.79,-3.79,-3.79,-3.79,-3.79,-3.79,0.0,0.0,0.0,0.0,-3.7029,-3.6739,-3.6031,-3.6229,-3.6833,-3.7625,-3.7625,-3.7625,-3.7625,-3.7625,-3.7226,-3.6665,-3.6387,-3.6163,-3.5911,-3.5562,-3.571,-3.6031,-3.5991,-3.5991,-3.5991,-3.5991,-3.6163,-3.6294,-3.6334,-3.6334,-3.6334,-3.6334,-3.5852,-3.5413,-3.5399,-3.4584,-3.3971,-3.4074,-3.41,-3.4162,-3.438,-3.4414,-3.4346,-3.4128,-3.3971,-3.3813,-3.364,-3.3605,-3.3336,-3.265,-3.241,-3.1539,-2.9816,-2.9508,-2.9005,-2.8139,-2.7921,-2.7723,-2.749,-2.749,-2.749,-2.749,-2.749,-2.749,-2.749,-2.749,-2.749,-2.6286,-2.717,-2.7573,-2.7573,-2.7489,-2.7153,-2.6314,-2.6005,-2.5614,-2.478,-2.4492,-2.4392,-2.4392,-2.4319,-2.4537,-2.5418,-2.5854,0.0,0.0,0.0,0.0,0.0,0.0,0.0,0.0,0.0,0.0,0.0,0.0,0.0,0.0,-3.79,-3.79,-3.79,-3.79,-3.79,-3.79,-3.79,-3.79,-3.79,-3.79,-3.79,-3.79,-3.79,0.0,0.0,0.0,0.0,0.0,-3.6135,-3.582,-3.544,-3.575,-3.6137,-3.6508,-3.6638,-3.6716,-3.6677,-3.6533,-3.627,-3.5991,-3.575,-3.5467,-3.5154,-3.5044,-3.5277,-3.5562,-3.544,-3.5277,-3.5236,-3.5521,-3.5629,-3.5696,-3.5857,-3.5897,-3.5897,-3.5897,-3.5721,-3.5475,-3.5067,-3.4724,-3.4344,-3.3854,-3.3768,-3.374,-3.3654,-3.3667,-3.3632,-3.3563,-3.3528,-3.3472,-3.3388,-3.3283,-3.3094,-3.2884,-3.218,-3.1432,-3.0647,-2.9542,-2.8797,-2.8524,-2.7913,-2.7556,-2.749,-2.749,-2.749,-2.749,-2.749,-2.749,-2.749,-2.749,-2.749,0.0,-2.5256,-2.5641,-2.5641,-2.5498,0.0,0.0,-2.4747,-2.4611,-2.4154,-2.4516,-2.4731,-2.4297,-2.4511,-2.4844,-2.5223,-2.5997,0.0,0.0,0.0,0.0,0.0,0.0,0.0,0.0,0.0,0.0,0.0,0.0,0.0,0.0,-3.79,-3.79,-3.79,-3.79,-3.79,-3.79,-3.79,-3.79,-3.79,-3.79,-3.79,-3.79,-3.79,0.0,0.0,0.0,0.0,0.0,-3.5558,-3.5284,-3.5003,-3.5277,-3.5521,-3.579,-3.5924,-3.5964,-3.5924,-3.5831,-3.5602,-3.5358,-3.5195,-3.4962,-3.466,-3.466,-3.4825,-3.499,-3.4867,-3.4743,-3.4714,-3.4936,-3.5018,-3.5059,-3.5182,-3.5223,-3.5223,-3.5223,-3.5223,-3.5116,-3.4714,-3.4553,-3.4255,-3.3604,-3.3424,-3.3276,-3.3014,-3.2952,-3.2917,-3.2846,-3.2846,-3.2846,-3.2789,-3.2646,-3.2561,-3.2489,-3.1981,-3.1361,-3.0703,-2.9777,-2.9044,-2.8597,-2.8114,-2.7745,-2.749,-2.749,-2.749,-2.749,-2.749,-2.749,-2.749,-2.749,-2.749,0.0,0.0,0.0,0.0,0.0,0.0,0.0,-2.3355,0.0,-2.3239,-2.4553,-2.5419,-2.4292,-2.5023,-2.544,-2.4383,0.0,0.0,0.0,0.0,0.0,0.0,0.0,0.0,0.0,0.0,0.0,0.0,0.0,0.0,0.0,-3.7874,-3.79,-3.79,-3.79,-3.79,-3.79,-3.79,-3.79,-3.79,-3.79,-3.79,-3.79,-3.7861,0.0,0.0,0.0,0.0,0.0,-3.5247,-3.5034,-3.4756,-3.4756,-3.499,-3.5318,-3.5318,-3.5318,-3.5318,-3.5318,-3.5072,-3.4756,-3.4756,-3.4577,-3.4397,-3.4397,-3.4397,-3.4397,-3.4397,-3.4397,-3.4397,-3.4397,-3.4397,-3.4397,-3.4397,-3.4397,-3.4397,-3.4397,-3.4397,-3.4397,-3.4397,-3.4157,-3.382,-3.3422,-3.3156,-3.2874,-3.2459,-3.2372,-3.2273,-3.2105,-3.2055,-3.2032,-3.189,-3.189,-3.1817,-3.1593,-3.1767,-3.1356,-3.0228,-3.0113,-2.964,-2.8543,-2.8464,-2.8177,-2.7568,-2.7516,-2.749,-2.749,-2.749,-2.749,-2.749,-2.749,-2.749,-2.1328,0.0,-2.1576,-2.1576,-2.1484,-2.1497,0.0,-2.197,-2.2192,-2.3041,0.0,0.0,-2.4213,-2.5023,0.0,0.0,0.0,0.0,0.0,0.0,0.0,0.0,0.0,0.0,0.0,0.0,0.0,0.0,0.0,0.0,0.0,-3.7652,-3.79,-3.79,-3.79,-3.79,-3.79,-3.79,-3.79,-3.79,-3.79,-3.79,-3.7887,-3.7429,0.0,0.0,0.0,0.0,-3.526,-3.4803,-3.457,-3.4481,-3.4481,-3.4564,-3.4647,-3.4647,-3.4647,-3.4647,-3.4647,-3.4564,-3.4481,-3.4481,-3.4439,-3.4397,-3.4397,-3.4397,-3.4397,-3.4397,-3.4397,-3.4397,-3.4397,-3.4397,-3.4397,-3.4397,-3.4397,-3.4397,-3.4397,-3.4397,-3.4397,-3.4397,-3.4334,-3.4155,-3.3833,-3.3343,-3.2849,-3.2452,-3.2048,-3.178,-3.173,-3.1706,-3.1706,-3.1669,-3.1683,-3.1596,-3.1384,-3.1421,-3.1257,-3.0828,-3.0348,-2.997,-2.9696,-2.9301,-2.8791,-2.819,-2.7758,-2.749,-2.749,-2.749,-2.749,-2.749,-2.749,-2.749,-2.0662,-2.0699,-2.0699,-2.0699,-2.0699,-2.0791,-2.108,0.0,0.0,0.0,0.0,0.0,0.0,0.0,0.0,0.0,0.0,0.0,0.0,0.0,0.0,0.0,0.0,0.0,0.0,0.0,0.0,0.0,0.0,0.0,0.0,-3.6907,-3.7077,-3.7077,-3.7077,-3.7351,-3.79,-3.79,-3.79,-3.79,-3.79,-3.7756,-3.7482,-3.7155,-3.6711,0.0,0.0,0.0,-3.4855,-3.4528,-3.4397,-3.4397,-3.4397,-3.4397,-3.4397,-3.4397,-3.4397,-3.4397,-3.4397,-3.4397,-3.4397,-3.4397,-3.4397,-3.4397,-3.4397,-3.4397,-3.4397,-3.4397,-3.4397,-3.4397,-3.4397,-3.4397,-3.4397,-3.4397,-3.4397,-3.4397,-3.4397,-3.4397,-3.4397,-3.4397,-3.4397,-3.4256,-3.3842,-3.3237,-3.2686,-3.2184,-3.1655,-3.1336,-3.1336,-3.1336,-3.1336,-3.1336,-3.1336,-3.1286,-3.1161,-3.1161,-3.1123,-3.1024,-3.0699,-3.0375,-3.0113,-2.9836,-2.9261,-2.8433,-2.8072,-2.7798,-2.749,-2.749,-2.749,-2.749,-2.749,-2.749,-2.0662,-2.0699,-2.0699,-2.0699,-2.0699,-2.0699,-2.0699,0.0,0.0,0.0,0.0,0.0,0.0,0.0,0.0,0.0,0.0,0.0,0.0,0.0,0.0,0.0,0.0,0.0,0.0,0.0,0.0,0.0,0.0,0.0,0.0,-3.6057,-3.6109,-3.6109,-3.6109,-3.6593,-3.7625,-3.7625,-3.7625,-3.7625,-3.7625,-3.7364,-3.6867,-3.6776,-3.6214,0.0,0.0,0.0,-3.4397,-3.4397,-3.4397,-3.4397,-3.4397,-3.4397,-3.4397,-3.4397,-3.4397,-3.4397,-3.4397,-3.4397,-3.4397,-3.4397,-3.4397,-3.4397,-3.4397,-3.4397,-3.4397,-3.4397,-3.4397,-3.4397,-3.4397,-3.4397,-3.4397,-3.4397,-3.4397,-3.4397,-3.4397,-3.4397,-3.4397,-3.4397,-3.4397,-3.4254,-3.3796,-3.3221,-3.2633,-3.2019,-3.1483,-3.1091,-3.0999,-3.0986,-3.0986,-3.0986,-3.0986,-3.0986,-3.0986,-3.0986,-3.0986,-3.0986,-3.0986,-3.0764,-3.0244,-3.014,-2.9631,-2.8673,-2.8499,-2.8137,-2.7633,-2.7529,-2.749,-2.749,-2.749,-2.749,-2.0587,-2.0699,-2.0699,-2.0699,-2.0699,-2.0699,-2.0699,0.0,0.0,0.0,0.0,0.0,0.0,0.0,0.0,0.0,0.0,0.0,0.0,0.0,0.0,0.0,0.0,0.0,0.0,0.0,0.0,0.0,0.0,0.0,0.0,0.0,-3.6109,-3.6109,-3.6109,-3.6188,-3.6371,-3.6384,-3.6384,-3.6384,-3.6384,-3.6332,-3.6227,-3.577,-3.5469,0.0,0.0,-3.4489,-3.4397,-3.4397,-3.4397,-3.4397,-3.4397,-3.4397,-3.4397,-3.4397,-3.4397,-3.4397,-3.4397,-3.4397,-3.4397,-3.4397,-3.4397,-3.4397,-3.4397,-3.4397,-3.4397,-3.4397,-3.4397,-3.4397,-3.4397,-3.4397,-3.4397,-3.4397,-3.4397,-3.4397,-3.4397,-3.4397,-3.4397,-3.4397,-3.4397,-3.4371,-3.4293,-3.3809,-3.3247,-3.2646,-3.2071,-3.1497,-3.1052,-3.0986,-3.0986,-3.0986,-3.0986,-3.0986,-3.0986,-3.0986,-3.0986,-3.0986,-3.0986,-3.0947,-3.0869,-3.0348,-3.0009,-2.9839,-2.8882,-2.8368,-2.8242,-2.7771,-2.749,-2.749,-2.749,-2.749,-2.0309,-2.0372,-2.0322,-2.0322,-2.0498,-2.0699,-2.0699,0.0,0.0,0.0,0.0,0.0,0.0,0.0,0.0,0.0,0.0,0.0,0.0,0.0,0.0,0.0,0.0,0.0,0.0,0.0,0.0,0.0,0.0,0.0,0.0,0.0,-3.5182,-3.5182,-3.5182,-3.5182,-3.5182,-3.5182,-3.5495,-3.6109,-3.6109,-3.5953,-3.5652,-3.5417,-3.5116,-3.4789,0.0,-3.4397,-3.4397,-3.4397,-3.4397,-3.4397,-3.4397,-3.4397,-3.4397,-3.4397,-3.4397,-3.4397,-3.4397,-3.4397,-3.4397,-3.4397,-3.4397,-3.4397,-3.4397,-3.4397,-3.4397,-3.4397,-3.4397,-3.4397,-3.4397,-3.4397,-3.4397,-3.4397,-3.4397,-3.4397,-3.4397,-3.4397,-3.4397,-3.4397,-3.4397,-3.4397,-3.4397,-3.3953,-3.3391,-3.2777,-3.2176,-3.1602,-3.1065,-3.0986,-3.0986,-3.0986,-3.0986,-3.0986,-3.0986,-3.0986,-3.0986,-3.0986,-3.0986,-3.0986,-3.0986,-3.0725,-3.0451,-3.0113,-2.9601,-2.917,-2.8869,-2.8281,-2.7994,-2.7981,-2.7633,-2.749,-1.9991,-2.0003,-1.9913,-1.9913,0.0,-2.0549,-2.0574,0.0,0.0,0.0,0.0,0.0,0.0,0.0,0.0,0.0,0.0,0.0,0.0,0.0,0.0,0.0,0.0,0.0,0.0,0.0,0.0,0.0,0.0,0.0,0.0,0.0,-3.4397,-3.4397,-3.4397,-3.4397,-3.4397,-3.4397,-3.4842,-3.5704,-3.5704,-3.5482,-3.509,-3.509,-3.4842,-3.4397,-3.4397,-3.4397,-3.4397,-3.4397,-3.4397,-3.4397,-3.4397,-3.4397,-3.4397,-3.4397,-3.4397,-3.4397,-3.4397,-3.4397,-3.4397,-3.4397,-3.4397,-3.4397,-3.4397,-3.4397,-3.4397,-3.4397,-3.4397,-3.4397,-3.4397,-3.4397,-3.4397,-3.4397,-3.4397,-3.4397,-3.4397,-3.4397,-3.4397,-3.4397,-3.4397,-3.4397,-3.4397,-3.4058,-3.3535,-3.2803,-3.2319,-3.1784,-3.1078,-3.0986,-3.0986,-3.0986,-3.0986,-3.0986,-3.0986,-3.0986,-3.0986,-3.0986,-3.0986,-3.0986,-3.0986,-3.0986,-3.0777,-3.0309,-3.0166,-2.9879,-2.9483,-2.8917,-2.8551,-2.8407,-2.7941,-2.7633,-1.9721,-1.9734,-1.9642,-1.9642,-1.9823,0.0,-2.0207,-2.0372,0.0,-2.1368,0.0,0.0,0.0,0.0,0.0,0.0,0.0,0.0,0.0,0.0,0.0,0.0,0.0,0.0,0.0,0.0,0.0,0.0,0.0,0.0,0.0,0.0,0.0,-3.4397,-3.4397,-3.4397,-3.4397,-3.4397,-3.4437,-3.4515,-3.4515,-3.4502,-3.4463,-3.4463,-3.4437,-3.4397,-3.4397,-3.4397,-3.4397,-3.4397,-3.4397,-3.4397,-3.4397,-3.4397,-3.4397,-3.4397,-3.4397,-3.4397,-3.4397,-3.4397,-3.4397,-3.4397,-3.4397,-3.4397,-3.4397,-3.4397,-3.4397,-3.4397,-3.4397,-3.4397,-3.4397,-3.4397,-3.4397,-3.4397,-3.4397,-3.4397,-3.4397,-3.4397,-3.4397,-3.4397,-3.4397,-3.4397,-3.4397,-3.4358,-3.3966,-3.2868,-3.2659,-3.2228,-3.113,-3.0986,-3.0986,-3.0986,-3.0986,-3.0986,-3.0986,-3.0986,-3.0986,-3.0986,-3.0986,-3.0986,-3.0986,-3.0986,-3.096,-3.0934,-3.0375,-3.0074,-3.0035,-2.9497,-2.897,-2.842,-2.8381,-2.8033,-1.9212,-1.9198,-1.9105,-1.9105,-1.9237,0.0,0.0,-2.1484,-2.2229,-2.3272,0.0,0.0,0.0,0.0,0.0,0.0,0.0,0.0,0.0,0.0,0.0,0.0,0.0,0.0,0.0,0.0,0.0,0.0,0.0,0.0,0.0,0.0,0.0,-3.4397,-3.4397,-3.4397,-3.4397,-3.4397,-3.4397,-3.4397,-3.4397,-3.4397,-3.4397,-3.4397,-3.4397,-3.4397,-3.4397,-3.4397,-3.4397,-3.4397,-3.4397,-3.4397,-3.4397,-3.4397,-3.4397,-3.4397,-3.4397,-3.4397,-3.4397,-3.4397,-3.4397,-3.4397,-3.4397,-3.4397,-3.4397,-3.4397,-3.4397,-3.4397,-3.4397,-3.4397,-3.4397,-3.4397,-3.4397,-3.4397,-3.4397,-3.4397,-3.4397,-3.4397,-3.4397,-3.4397,-3.4397,-3.4397,-3.4397,-3.4397,-3.4005,-3.2868,-3.2685,-3.228,-3.113,-3.0986,-3.0986,-3.0986,-3.0986,-3.0986,-3.0986,-3.0986,-3.0986,-3.0986,-3.0986,-3.0986,-3.0986,-3.0986,-3.0986,-3.0986,-3.0777,-3.066,-3.066,-3.0098,-2.9693,-2.9457,-2.8726,-2.8268,-1.8801,-1.8786,-1.8664,-1.8664,0.0,0.0,-2.1609,-2.2429,-2.3205,0.0,0.0,0.0,0.0,0.0,0.0,0.0,0.0,0.0,0.0,0.0,0.0,0.0,0.0,0.0,0.0,0.0,0.0,0.0,0.0,0.0,0.0,0.0,0.0,0.0,-3.4397,-3.4397,-3.4397,-3.4397,-3.4397,-3.4397,-3.4397,-3.4397,-3.4397,-3.4397,-3.4397,-3.4397,-3.4397,-3.4397,-3.4397,-3.4397,-3.4397,-3.4397,-3.4397,-3.4397,-3.4397,-3.4397,-3.4397,-3.4397,-3.4397,-3.4397,-3.4397,-3.4397,-3.4397,-3.4397,-3.4397,-3.4397,-3.4397,-3.4397,-3.4397,-3.4397,-3.4397,-3.4397,-3.4397,-3.4397,-3.4397,-3.4397,-3.4397,-3.4397,-3.4397,-3.4397,-3.4397,-3.4397,-3.4397,-3.4397,-3.4005,-3.2868,-3.2685,-3.228,-3.113,-3.0986,-3.0986,-3.0986,-3.0986,-3.0986,-3.0986,-3.0986,-3.0986,-3.0986,-3.0986,-3.0986,-3.0986,-3.0986,-3.0986,-3.0986,-3.0986,-3.0986,-3.0986,-3.0594,-3.0283,-3.0074,-2.9314,-2.8843,-1.856,-1.8503,-1.8406,0.0,0.0,0.0,0.0,-2.3022,-2.3335,0.0,0.0,0.0,0.0,0.0,0.0,0.0,0.0,0.0,0.0,0.0,0.0,0.0,0.0,0.0,0.0,0.0,0.0,0.0,0.0,0.0,0.0,0.0,0.0,0.0,-3.4397,-3.4397,-3.4397,-3.4397,-3.4397,-3.4397,-3.4397,-3.4397,-3.4397,-3.4397,-3.4397,-3.4397,-3.4397,-3.4397,-3.4397,-3.4397,-3.4397,-3.4397,-3.4397,-3.4397,-3.4397,-3.4397,-3.4397,-3.4397,-3.4397,-3.4397,-3.4397,-3.4397,-3.4397,-3.4397,-3.4397,-3.4397,-3.4397,-3.4397,-3.4397,-3.4397,-3.4397,-3.4397,-3.4397,-3.4397,-3.4397,-3.4397,-3.4397,-3.4397,-3.4397,-3.4397,-3.4397,-3.4397,-3.4397,-3.4397,-3.4018,-3.2868,-3.2685,-3.228,-3.113,-3.0986,-3.0986,-3.0986,-3.0986,-3.0986,-3.0986,-3.0986,-3.0986,-3.0986,-3.0986,-3.0986,-3.0986,-3.0986,-3.0986,-3.0986,-3.0986,-3.0986,-3.0986,-3.0986,-3.0699,-3.0113,-3.01,-2.9836,-1.8143,-1.8762,0.0,0.0,0.0,0.0,0.0,0.0,0.0,0.0,0.0,0.0,0.0,0.0,0.0,0.0,0.0,0.0,0.0,0.0,0.0,0.0,0.0,0.0,0.0,0.0,0.0,0.0,0.0,0.0,0.0,0.0,0.0,0.0,-3.4397,-3.4397,-3.4397,-3.4397,-3.4397,-3.4397,-3.4397,-3.4397,-3.4397,-3.4397,-3.4397,-3.4397,-3.4397,-3.4397,-3.4397,-3.4397,-3.4397,-3.4397,-3.4397,-3.4397,-3.4397,-3.4397,-3.4397,-3.4397,-3.4397,-3.4397,-3.4397,-3.4397,-3.4397,-3.4397,-3.4397,-3.4397,-3.4397,-3.4397,-3.4397,-3.4397,-3.4397,-3.4397,-3.4397,-3.4397,-3.4397,-3.4397,-3.4397,-3.4397,-3.4397,-3.4397,-3.4397,-3.4397,-3.4397,-3.4397,-3.4162,-3.343,-3.296,-3.228,-3.113,-3.0986,-3.0986,-3.0986,-3.0986,-3.0986,-3.0986,-3.0986,-3.0986,-3.0986,-3.0986,-3.0986,-3.0986,-3.0986,-3.0986,-3.0986,-3.0986,-3.0986,-3.0986,-3.0986,-3.0895,-3.0725,-3.0283,-3.0009,-1.8609,0.0,0.0,0.0,0.0,0.0,0.0,0.0,0.0,0.0,0.0,0.0,0.0,0.0,0.0,0.0,0.0,0.0,0.0,0.0,0.0,0.0,0.0,0.0,0.0,0.0,0.0,0.0,0.0,0.0,0.0,0.0,0.0,0.0,-3.4397,-3.4397,-3.4397,-3.4397,-3.4397,-3.4397,-3.4397,-3.4397,-3.4397,-3.4397,-3.4397,-3.4397,-3.4397,-3.4397,-3.4397,-3.4397,-3.4397,-3.4397,-3.4397,-3.4397,-3.4397,-3.4397,-3.4397,-3.4397,-3.4397,-3.4397,-3.4397,-3.4397,-3.4397,-3.4397,-3.4397,-3.4397,-3.4397,-3.4397,-3.4397,-3.4397,-3.4397,-3.4397,-3.4397,-3.4397,-3.4397,-3.4397,-3.4397,-3.4397,-3.4397,-3.4397,-3.4397,-3.4397,-3.4397,-3.4397,-3.4214,-3.3679,-3.2881,-3.2019,-3.1104,-3.0986,-3.0986,-3.0986,-3.0986,-3.0986,-3.0986,-3.0986,-3.0986,-3.0986,-3.0986,-3.0986,-3.0986,-3.0986,-3.0986,-3.0986,-3.0986,-3.0986,-3.0986,-3.0986,-3.0986,-3.0973,-3.0634,-3.0477,0.0,0.0,0.0,0.0,0.0,0.0,0.0,0.0,0.0,0.0,0.0,0.0,0.0,0.0,0.0,0.0,0.0,0.0,0.0,0.0,0.0,0.0,0.0,0.0,0.0,0.0,0.0,0.0,0.0,0.0,0.0,0.0,0.0,0.0,-3.4397,-3.4397,-3.4397,-3.4397,-3.4397,0.0,-3.4397,-3.4397,-3.4397,-3.4397,-3.4397,-3.4397,-3.4397,-3.4397,-3.4397,-3.4397,-3.4397,-3.4397,-3.4397,-3.4397,-3.4397,-3.4397,-3.4397,-3.4397,-3.4397,-3.4397,-3.4397,-3.4397,-3.4397,-3.4397,-3.4397,-3.4397,-3.4397,-3.4397,-3.4397,-3.4397,-3.4397,-3.4397,-3.4397,-3.4397,-3.4397,-3.4397,-3.4397,-3.4397,-3.4397,-3.4397,-3.4397,-3.4397,-3.4397,-3.4397,-3.4188,-3.36,-3.2594,-3.1654,-3.1065,-3.0986,-3.0986,-3.0986,-3.0986,-3.0986,-3.0986,-3.0986,-3.0986,-3.0986,-3.0986,-3.0986,-3.0986,-3.0986,-3.0986,-3.0986,-3.0986,-3.0986,-3.0986,-3.0986,-3.0986,-3.0986,-3.0986,-3.0986,0.0,0.0,0.0,0.0,0.0,0.0,0.0,0.0,0.0,0.0,0.0,0.0,0.0,0.0,0.0,0.0,0.0,0.0,0.0,0.0,0.0,0.0,0.0,0.0,0.0,0.0,0.0,0.0,0.0,0.0,0.0,0.0,0.0,-3.4397,-3.4397,-3.4397,-3.4397,-3.4397,-3.4397,0.0,-3.4397,-3.4397,-3.4397,-3.4397,-3.4397,-3.4397,-3.4397,-3.4397,-3.4397,-3.4397,-3.4397,-3.4397,-3.4397,-3.4397,-3.4397,-3.4397,-3.4397,-3.4397,-3.4397,-3.4397,-3.4397,-3.4397,-3.4397,-3.4397,-3.4397,-3.4397,-3.4397,-3.4397,-3.4397,-3.4397,-3.4397,-3.4397,-3.4397,-3.4397,-3.4397,-3.4397,-3.4397,-3.4397,-3.4397,-3.4397,-3.4397,-3.4397,-3.4397,-3.4397,-3.4058,-3.3038,-3.2672,-3.2136,-3.1117,-3.0986,-3.0986,-3.0986,-3.0986,-3.0986,-3.0986,-3.0986,-3.0986,-3.0986,-3.0986,-3.0986,-3.0986,-3.0986,-3.0986,-3.0986,-3.0986,-3.0986,-3.0986,-3.0986,-3.0986,-3.0986,-3.0986,-3.0986,0.0,0.0,0.0,0.0,0.0,0.0,0.0,0.0,0.0,0.0,0.0,0.0,0.0,0.0,0.0,0.0,0.0,0.0,0.0,0.0,0.0,0.0,0.0,0.0,0.0,0.0,0.0,0.0,0.0,0.0,0.0,-3.4397,-3.4397,-3.4397,-3.4397,-3.4397,-3.4397,-3.4397,-3.4397,-3.4397,-3.4397,-3.4397,-3.4397,-3.4397,-3.4397,-3.4397,-3.4397,-3.4397,-3.4397,-3.4397,-3.4397,-3.4397,-3.4397,-3.4397,-3.4397,-3.4397,-3.4397,-3.4397,-3.4397,-3.4397,-3.4397,-3.4397,-3.4397,-3.4397,-3.4397,-3.4397,-3.4397,-3.4397,-3.4397,-3.4397,-3.4397,-3.4397,-3.4397,-3.4397,-3.4397,-3.4397,-3.4397,-3.4397,-3.4397,-3.4397,-3.4397,-3.4397,-3.4397,-3.4397,-3.411,-3.3247,-3.2881,-3.2385,-3.1509,-3.1156,-3.0986,-3.0986,-3.0986,-3.0986,-3.0986,-3.0986,-3.0986,-3.0986,-3.0986,-3.0986,-3.0986,-3.0986,-3.0986,-3.0986,-3.0986,-3.0986,-3.0986,-3.0986,-3.0986,-3.0986,-3.0986,-3.0986,0.0,0.0,0.0,0.0,0.0,0.0,0.0,0.0,0.0,0.0,0.0,0.0,0.0,0.0,0.0,0.0,0.0,0.0,0.0,0.0,0.0,0.0,0.0,0.0,0.0,0.0,0.0,0.0,0.0,0.0,-3.4084,-3.411,-3.4149,-3.4254,-3.4254,-3.4306,-3.4397,-3.4397,-3.4397,-3.4356,-3.4356,-3.4356,-3.4356,-3.4397,-3.4397,-3.4397,-3.4397,-3.4397,-3.4397,-3.4397,-3.4397,-3.4397,-3.4397,-3.4397,-3.4397,-3.4397,-3.4397,-3.4397,-3.4397,-3.4397,-3.4397,-3.4397,-3.4397,-3.4397,-3.4397,-3.4397,-3.4397,-3.4397,-3.4397,-3.4397,-3.4397,-3.4397,-3.4397,-3.4397,-3.4397,-3.4397,-3.4397,-3.4397,-3.4397,-3.4397,-3.4397,-3.4397,-3.4397,-3.4397,-3.4214,-3.3679,-3.3169,-3.2607,-3.1889,-3.1431,-3.1091,-3.0999,-3.0986,-3.0986,-3.0986,-3.0986,-3.0986,-3.0986,-3.0986,-3.0986,-3.0986,-3.0986,-3.0986,-3.0986,-3.0986,-3.0986,-3.0986,-3.0986,-3.0986,-3.0986,-3.0986,-3.0986,0.0,0.0,0.0,0.0,0.0,0.0,0.0,0.0,0.0,0.0,0.0,0.0,0.0,0.0,0.0,0.0,0.0,0.0,0.0,0.0,0.0,0.0,0.0,0.0,0.0,0.0,0.0,0.0,0.0,0.0,-3.2921,-3.2921,-3.3156,-3.3679,-3.3705,-3.3927,-3.4397,-3.4397,-3.4314,-3.416,-3.416,-3.416,-3.416,-3.4314,-3.4397,-3.4397,-3.4397,-3.4397,-3.4397,-3.4397,-3.4397,-3.4397,-3.4397,-3.4397,-3.4397,-3.4397,-3.4397,-3.4397,-3.4397,-3.4397,-3.4397,-3.4397,-3.4397,-3.4397,-3.4397,-3.4397,-3.4397,-3.4397,-3.4397,-3.4397,-3.4397,-3.4397,-3.4397,-3.4397,-3.4397,-3.4397,-3.4397,-3.4397,-3.4397,-3.4397,-3.4397,-3.4397,-3.4397,-3.4397,-3.4214,-3.3679,-3.3522,-3.3077,-3.1941,-3.1732,-3.1535,-3.1039,-3.0986,-3.0986,-3.0986,-3.0986,-3.0986,-3.0986,-3.0986,-3.0986,-3.0986,-3.0986,-3.0986,-3.0986,-3.0986,-3.0986,-3.0986,-3.0986,-3.0986,-3.0986,-3.0986,-3.0911,0.0,0.0,0.0,0.0,0.0,0.0,0.0,0.0,0.0,0.0,0.0,0.0,0.0,0.0,0.0,0.0,0.0,0.0,0.0,0.0,0.0,0.0,0.0,0.0,0.0,0.0,0.0,0.0,0.0,-3.2346,-3.2672,-3.2685,-3.2776,-3.2917,-3.2943,-3.3006,-3.3105,-3.3429,-3.3669,-3.3894,-3.4034,-3.4118,-3.4118,-3.4314,-3.4397,-3.4397,-3.4397,-3.4397,-3.4397,-3.4397,-3.4397,-3.4397,-3.4397,-3.4397,-3.4397,-3.4397,-3.4397,-3.4397,-3.4397,-3.4397,-3.4397,-3.4397,-3.4397,-3.4397,-3.4397,-3.4397,-3.4397,-3.4285,-3.4243,-3.4189,-3.4063,-3.4105,-3.4243,-3.4243,-3.4314,-3.4397,-3.4397,-3.4397,-3.4397,-3.4397,-3.4397,-3.4397,-3.4397,-3.4397,-3.4319,-3.4071,-3.3783,-3.3287,-3.2424,-3.2006,-3.1575,-3.1052,-3.0986,-3.0986,-3.0986,-3.0986,-3.0986,-3.0986,-3.0986,-3.0986,-3.0986,-3.0986,-3.0986,-3.0986,-3.0986,-3.0986,-3.0986,-3.0986,-3.0986,-3.0986,-3.0986,-3.0836,0.0,0.0,0.0,0.0,0.0,0.0,0.0,0.0,0.0,0.0,0.0,0.0,0.0,0.0,0.0,0.0,0.0,0.0,0.0,0.0,0.0,0.0,0.0,0.0,0.0,0.0,0.0,0.0,0.0,-3.1694,-3.2071,-3.2137,-3.2123,-3.2081,-3.2094,-3.2106,-3.2114,-3.2457,-3.2838,-3.3219,-3.3428,-3.3524,-3.3524,-3.3719,-3.3879,-3.4022,-3.429,-3.4397,-3.4397,-3.4397,-3.4397,-3.4397,-3.4397,-3.4397,-3.4397,-3.4397,-3.4397,-3.4397,-3.4397,-3.4397,-3.4397,-3.4397,-3.4356,-3.4314,-3.4314,-3.423,-3.4105,-3.3949,-3.3907,-3.3865,-3.3683,-3.3852,-3.4118,-3.4118,-3.4243,-3.4397,-3.4397,-3.4397,-3.4397,-3.4397,-3.4397,-3.4397,-3.4397,-3.4397,-3.4397,-3.4397,-3.4058,-3.3535,-3.279,-3.2319,-3.1784,-3.1065,-3.0986,-3.0986,-3.0986,-3.0986,-3.0986,-3.0986,-3.0986,-3.0986,-3.0986,-3.0986,-3.0986,-3.0986,-3.0986,-3.0986,-3.0986,-3.0986,-3.0986,-3.0986,-3.0949,-3.0723,0.0,0.0,0.0,0.0,0.0,0.0,0.0,0.0,0.0,0.0,0.0,0.0,0.0,0.0,0.0,0.0,0.0,0.0,0.0,0.0,0.0,0.0,0.0,0.0,0.0,0.0,0.0,0.0,0.0,-3.0674,-3.0522,-3.0522,-3.074,-3.124,-3.1252,-3.1535,-3.2114,-3.1952,-3.1868,-3.1907,-3.1907,-3.1907,-3.1947,-3.2124,-3.25,-3.3026,-3.3996,-3.4397,-3.4397,-3.4397,-3.4397,-3.4397,-3.4397,-3.4397,-3.4397,-3.4397,-3.4397,-3.4397,-3.4397,-3.4397,-3.4397,-3.4397,-3.4285,-3.4118,-3.4118,-3.3823,-3.3441,-3.3441,-3.3441,-3.3441,-3.3441,-3.3781,-3.4118,-3.4118,-3.4243,-3.4397,-3.4397,-3.4397,-3.4397,-3.4397,-3.4397,-3.4397,-3.4397,-3.4397,-3.4397,-3.4397,-3.4371,-3.3953,-3.2829,-3.2659,-3.2228,-3.1104,-3.0986,-3.0986,-3.0986,-3.0986,-3.0986,-3.0986,-3.0986,-3.0986,-3.0986,-3.0986,-3.0986,-3.0986,-3.0986,-3.0986,-3.0986,-3.0986,-3.0986,-3.0986,-3.0811,-3.0508,0.0,0.0,0.0,0.0,0.0,0.0,0.0,0.0,0.0,0.0,0.0,0.0,0.0,0.0,0.0,0.0,0.0,0.0,0.0,0.0,0.0,0.0,0.0,0.0,0.0,0.0,0.0,0.0,0.0,0.0,-3.0406,-3.0406,-3.042,-3.0483,-3.0483,-3.0711,-3.1124,-3.1057,-3.1181,-3.1562,-3.1724,-3.1696,-3.1562,-3.1805,-3.196,-3.2013,-3.2367,-3.3155,-3.4202,-3.4202,-3.4272,-3.4397,-3.4397,-3.4188,-3.3875,-3.3875,-3.3639,-3.3352,-3.3567,-3.3615,-3.3625,-3.3736,-3.3696,-3.3611,-3.3428,-3.33,-3.3129,-3.297,-3.2927,-3.2927,-3.2927,-3.3185,-3.3526,-3.3768,-3.381,-3.381,-3.3924,-3.4189,-3.4397,-3.4397,-3.4397,-3.4397,-3.4397,-3.4397,-3.4397,-3.4397,-3.4397,-3.4123,-3.3365,-3.2934,-3.2398,-3.1614,-3.1209,-3.0986,-3.0986,-3.0986,-3.0986,-3.0986,-3.0986,-3.0986,-3.0986,-3.0986,-3.0986,-3.0986,-3.0986,-3.0986,-3.0986,-3.0986,-3.0986,-3.0986,-3.0811,-3.0381,0.0,0.0,0.0,0.0,0.0,0.0,0.0,0.0,0.0,0.0,0.0,0.0,0.0,0.0,0.0,0.0,0.0,0.0,0.0,0.0,0.0,0.0,0.0,0.0,0.0,0.0,0.0,0.0,0.0,0.0,-3.019,-3.019,-3.0152,-3.0011,-3.0011,-3.011,-3.0331,-3.0331,-3.0468,-3.0713,-3.0914,-3.0886,-3.0645,-3.0726,-3.0826,-3.0851,-3.081,-3.1691,-3.3229,-3.3229,-3.3299,-3.3411,-3.3493,-3.3327,-3.3003,-3.3084,-3.2784,-3.2432,-3.2645,-3.2611,-3.2536,-3.279,-3.2754,-3.2578,-3.2537,-3.229,-3.2025,-3.1907,-3.1828,-3.1822,-3.1822,-3.2134,-3.2516,-3.2882,-3.2882,-3.2798,-3.3037,-3.3624,-3.4189,-3.4272,-3.4356,-3.4397,-3.4397,-3.4397,-3.4397,-3.4397,-3.4397,-3.4123,-3.3378,-3.2947,-3.2398,-3.164,-3.1209,-3.0986,-3.0986,-3.0986,-3.0986,-3.0986,-3.0986,-3.0986,-3.0986,-3.0986,-3.0986,-3.0986,-3.0986,-3.0986,-3.0986,-3.0986,-3.0986,-3.0986,-3.0723,-3.0139,0.0,0.0,0.0,0.0,0.0,0.0,0.0,0.0,0.0,0.0,0.0,0.0,0.0,0.0,0.0,0.0,0.0,0.0,0.0,0.0,0.0,0.0,0.0,0.0,0.0,0.0,0.0,0.0,0.0,-3.0011,-2.9792,-2.9792,-2.9792,-2.9792,-2.9792,-2.9792,-2.9792,-2.9792,-2.965,-2.9419,-2.938,-2.9263,-2.9052,-2.8882,-2.9031,-2.9529,-2.9313,-3.0025,-3.1345,-3.1452,-3.1465,-3.1505,-3.1696,-3.1764,-3.1792,-3.1981,-3.1928,-3.1726,-3.1739,-3.1442,-3.1149,-3.1655,-3.1406,-3.0946,-3.1376,-3.0878,-3.0181,-3.0181,-3.0129,-3.0086,-3.0086,-3.0587,-3.1137,-3.1383,-3.1424,-3.1505,-3.1737,-3.274,-3.3716,-3.4008,-3.4259,-3.4397,-3.4397,-3.4384,-3.4371,-3.4371,-3.4358,-3.3953,-3.2829,-3.2672,-3.2241,-3.113,-3.0999,-3.0986,-3.0986,-3.0986,-3.0986,-3.0986,-3.0986,-3.0986,-3.0986,-3.0986,-3.0986,-3.0986,-3.0986,-3.0986,-3.0986,-3.0986,-3.0986,-3.0986,-3.0558,-2.9703,-1.7351,0.0,0.0,0.0,0.0,0.0,0.0,0.0,0.0,0.0,0.0,0.0,0.0,0.0,0.0,0.0,0.0,0.0,0.0,0.0,0.0,0.0,0.0,0.0,0.0,0.0,0.0,0.0,-2.9869,-2.9869,-2.9792,-2.9792,-2.9792,-2.9792,-2.9792,-2.9792,-2.9792,-2.9611,-2.947,-2.9419,-2.9106,-2.8803,-2.8459,-2.8183,-2.7904,-2.7661,-2.7579,-2.7689,-2.8016,-2.9985,-3.084,-3.0993,-3.1034,-3.092,-3.0703,-3.0623,-3.0373,-3.0086,-3.0165,-3.0138,-3.002,-3.014,-3.0054,-2.9834,-2.9656,-2.9499,-2.9382,-2.9382,-2.9503,-2.961,-2.964,-2.9809,-2.9978,-3.0199,-3.0145,-3.0187,-3.0753,-3.1265,-3.1964,-3.3253,-3.3999,-3.4397,-3.4397,-3.4071,-3.3809,-3.3809,-3.3443,-3.3051,-3.2738,-3.2333,-3.1915,-3.1602,-3.1235,-3.0986,-3.0986,-3.0986,-3.0986,-3.0986,-3.0986,-3.0986,-3.0986,-3.0986,-3.0986,-3.0986,-3.0986,-3.0986,-3.0986,-3.0986,-3.0986,-3.0986,-3.0228,-2.938,0.0,0.0,0.0,0.0,0.0,0.0,0.0,-1.7922,0.0,0.0,0.0,0.0,0.0,0.0,0.0,0.0,0.0,0.0,0.0,0.0,0.0,0.0,0.0,0.0,0.0,0.0,0.0,-2.965,-2.974,-2.9792,-2.9792,-2.9792,-2.9792,-2.9792,-2.9792,-2.9753,-2.965,-2.947,-2.9263,-2.9,-2.8685,-2.8287,-2.7765,-2.7418,-2.701,-2.658,-2.652,-2.6385,-2.6376,-2.7942,-2.8757,-2.9023,-2.9241,-2.9184,-2.8988,-2.904,-2.8887,-2.863,-2.8702,-2.8607,-2.8498,-2.8682,-2.8592,-2.8425,-2.8364,-2.8273,-2.8165,-2.8165,-2.8284,-2.8375,-2.8531,-2.8519,-2.8614,-2.8781,-2.8739,-2.8864,-2.9506,-3.0004,-3.0774,-3.2227,-3.2995,-3.3433,-3.3433,-3.3174,-3.2966,-3.2966,-3.2668,-3.2396,-3.2241,-3.1876,-3.1616,-3.1471,-3.1182,-3.0986,-3.0986,-3.0986,-3.0986,-3.0986,-3.0986,-3.0986,-3.0986,-3.0986,-3.0986,-3.0986,-3.0986,-3.0949,-3.0874,-3.0949,-3.0874,-3.0609,-2.9806,-2.9067,0.0,0.0,0.0,0.0,0.0,0.0,-1.6955,-1.7736,-1.8497,0.0,0.0,0.0,0.0,0.0,0.0,0.0,0.0,0.0,0.0,0.0,0.0,0.0,0.0,0.0,0.0,-2.9151,-2.9332,-2.9332,-2.9574,-2.9753,-2.9702,-2.9714,-2.9714,-2.974,-2.9753,-2.965,-2.9419,-2.9341,-2.904,-2.8471,-2.8179,-2.7725,-2.7062,-2.6599,-2.6279,-2.6071,-2.5884,-2.577,-2.5728,-2.5728,-2.601,-2.6487,-2.6899,-2.7062,-2.7174,-2.7487,-2.7539,-2.7441,-2.74,-2.7167,-2.6918,-2.7307,-2.7146,-2.6895,-2.7359,-2.7171,-2.6849,-2.6849,-2.6844,-2.6839,-2.7033,-2.7062,-2.7103,-2.7319,-2.736,-2.7522,-2.8179,-2.8923,-2.9748,-3.0785,-3.1542,-3.2047,-3.2047,-3.1983,-3.1944,-3.1944,-3.1893,-3.1702,-3.1345,-3.1332,-3.1216,-3.0926,-3.0911,-3.0949,-3.0949,-3.0986,-3.0986,-3.0986,-3.0986,-3.0986,-3.0986,-3.0986,-3.0986,-3.0986,-3.0986,-3.0874,-3.066,-3.0836,-3.0609,-2.9998,-2.9365,-2.8736,0.0,0.0,0.0,0.0,0.0,0.0,-1.6835,-1.7589,-1.8262,0.0,0.0,0.0,0.0,0.0,0.0,0.0,0.0,0.0,0.0,0.0,0.0,0.0,0.0,0.0,0.0,-2.8183,-2.8835,-2.8835,-2.9234,-2.9392,-2.926,-2.926,-2.9326,-2.947,-2.947,-2.9457,-2.9419,-2.9067,-2.8685,-2.8259,-2.7493,-2.688,-2.6393,-2.5904,-2.5496,-2.5158,-2.5115,-2.4956,-2.4754,-2.4754,-2.5253,-2.6021,-2.6104,-2.6332,-2.6652,-2.6558,-2.6734,-2.7015,-2.6839,-2.6715,-2.6655,-2.6507,-2.6415,-2.6353,-2.6273,-2.6282,-2.6373,-2.6613,-2.6504,-2.6354,-2.6396,-2.626,-2.6177,-2.6396,-2.6437,-2.6603,-2.7097,-2.7574,-2.8051,-2.8417,-3.0207,-3.1627,-3.1627,-3.1196,-3.088,-3.088,-3.0489,-3.0148,-3.0073,-3.024,-3.0343,-3.0279,-3.0406,-3.0558,-3.0736,-3.0773,-3.0849,-3.0986,-3.0986,-3.0986,-3.0986,-3.0986,-3.0986,-3.0986,-3.0986,-3.0823,-3.0444,-3.0482,-3.0165,-2.9548,-2.9079,-2.8538,0.0,0.0,0.0,-1.6602,0.0,0.0,0.0,-1.7442,-1.8109,0.0,0.0,0.0,0.0,0.0,0.0,0.0,0.0,0.0,0.0,0.0,0.0,0.0,0.0,0.0,0.0,-2.7114,-2.7801,-2.8089,-2.8558,-2.879,-2.8699,-2.8944,-2.917,-2.9236,-2.9236,-2.9157,-2.8961,-2.8645,-2.8167,-2.7534,-2.6869,-2.6238,-2.5695,-2.5359,-2.5031,-2.47,-2.47,-2.4615,-2.4497,-2.4497,-2.4796,-2.5221,-2.5338,-2.558,-2.5863,-2.5874,-2.6093,-2.6354,-2.6188,-2.6104,-2.6063,-2.5937,-2.5895,-2.5895,-2.5895,-2.5979,-2.6074,-2.6229,-2.6146,-2.6074,-2.6074,-2.599,-2.5948,-2.6146,-2.6199,-2.6324,-2.6809,-2.7126,-2.7429,-2.762,-2.8757,-2.9752,-2.9954,-2.9761,-2.9564,-2.9564,-2.929,-2.9145,-2.925,-2.938,-2.9509,-2.9754,-2.9922,-3.019,-3.0533,-3.066,-3.0811,-3.0986,-3.0911,-3.0849,-3.0849,-3.0748,-3.071,-3.071,-3.071,-3.0444,-2.9896,-2.978,-2.9548,-2.9106,-2.8578,-2.8099,0.0,0.0,0.0,0.0,0.0,-1.6431,0.0,0.0,0.0,0.0,0.0,0.0,0.0,0.0,0.0,0.0,0.0,0.0,0.0,0.0,0.0,0.0,0.0,0.0,0.0,-2.5831,-2.6441,-2.7054,-2.7483,-2.774,-2.7702,-2.8411,-2.8866,-2.8893,-2.8964,-2.8816,-2.8431,-2.8179,-2.7615,-2.6757,-2.6279,-2.5737,-2.5115,-2.4903,-2.47,-2.4497,-2.4497,-2.4497,-2.4497,-2.4497,-2.4497,-2.454,-2.4743,-2.4946,-2.5158,-2.5391,-2.5601,-2.5728,-2.5601,-2.5517,-2.5517,-2.5559,-2.5644,-2.5686,-2.5853,-2.5853,-2.5853,-2.5906,-2.5853,-2.5853,-2.5906,-2.5895,-2.5937,-2.6104,-2.6157,-2.6229,-2.6644,-2.6921,-2.7144,-2.7319,-2.7545,-2.7881,-2.8311,-2.8391,-2.8391,-2.8391,-2.8391,-2.8431,-2.8605,-2.8645,-2.8791,-2.9145,-2.9367,-2.9716,-3.0165,-3.0419,-3.0622,-3.0798,-3.066,-3.0546,-3.0457,-3.0292,-3.0203,-3.0203,-3.0203,-2.9896,-2.9263,-2.904,-2.8803,-2.8605,-2.807,-2.7708,0.0,0.0,0.0,0.0,-1.6413,0.0,0.0,0.0,0.0,0.0,0.0,0.0,0.0,0.0,0.0,0.0,0.0,0.0,0.0,0.0,0.0,0.0,0.0,0.0,0.0,0.0,-2.4742,-2.5587,-2.5695,-2.5719,-2.5648,-2.7033,-2.7956,-2.8137,-2.8415,-2.8471,-2.8219,-2.7805,-2.7144,-2.6279,-2.5779,-2.5369,-2.4946,-2.4658,-2.454,-2.4497,-2.4497,-2.4497,-2.4497,-2.4497,-2.4497,-2.4497,-2.454,-2.47,-2.4946,-2.4988,-2.5115,-2.5285,-2.5242,-2.5242,-2.5285,-2.5517,-2.5728,-2.5853,-2.5895,-2.577,-2.5686,-2.5853,-2.578,-2.5696,-2.5853,-2.5895,-2.5906,-2.5937,-2.5937,-2.5948,-2.5979,-2.6354,-2.6674,-2.6715,-2.7015,-2.7435,-2.7881,-2.7962,-2.7962,-2.7962,-2.7962,-2.7962,-2.8002,-2.8139,-2.8299,-2.8327,-2.8685,-2.9067,-2.9496,-2.9767,-2.9972,-3.019,-3.019,-2.9985,-2.9574,-2.9535,-2.9496,-2.9496,-2.9496,-2.9302,-2.887,-2.8486,-2.8191,-2.8002,-2.7696,-2.7452,0.0,0.0,0.0,0.0,0.0,0.0,0.0,0.0,-1.6413,0.0,0.0,0.0,0.0,0.0,0.0,0.0,0.0,0.0,0.0,0.0,0.0,0.0,0.0,0.0,0.0,0.0,0.0,0.0,0.0,-2.4529,-2.4728,-2.6086,-2.7124,-2.7654,-2.7581,-2.7484,-2.7452,-2.6981,-2.6362,-2.5611,-2.5285,-2.4988,-2.4658,-2.454,-2.4497,-2.4497,-2.4497,-2.4497,-2.4497,-2.4497,-2.4497,-2.4497,-2.4497,-2.4658,-2.4903,-2.4903,-2.5031,-2.52,-2.5073,-2.5031,-2.5073,-2.5295,-2.5591,-2.5895,-2.577,-2.5654,-2.5612,-2.5686,-2.5654,-2.5654,-2.5853,-2.5895,-2.5895,-2.5895,-2.5895,-2.5895,-2.5895,-2.6271,-2.6603,-2.6603,-2.6933,-2.7272,-2.7476,-2.7476,-2.7476,-2.7476,-2.7476,-2.7476,-2.7476,-2.7557,-2.7655,-2.7765,-2.8099,-2.8498,-2.8988,-2.917,-2.9365,-2.9664,-2.947,-2.9197,-2.8882,-2.8882,-2.8882,-2.8882,-2.8882,-2.8697,-2.8271,-2.8111,-2.7841,-2.7476,-2.7383,-2.726,-1.7149,0.0,0.0,0.0,0.0,0.0,0.0,0.0,0.0,0.0,0.0,0.0,0.0,0.0,0.0,0.0,0.0,0.0,0.0,0.0,0.0,0.0,0.0,0.0,0.0,0.0,0.0,0.0,-2.2095,-2.3001,-2.3098,-2.4894,-2.6103,-2.6387,-2.6376,-2.6348,-2.631,-2.5983,-2.5541,-2.4935,-2.4893,-2.4743,-2.4497,-2.4497,-2.4497,-2.4497,-2.4497,-2.4497,-2.4497,-2.4497,-2.4497,-2.4497,-2.4497,-2.4615,-2.4786,-2.4786,-2.4861,-2.4988,-2.4828,-2.4828,-2.4903,-2.5073,-2.538,-2.5686,-2.5517,-2.5433,-2.5433,-2.5559,-2.5559,-2.5559,-2.5812,-2.5864,-2.5822,-2.5906,-2.5864,-2.5853,-2.5948,-2.6313,-2.6603,-2.6685,-2.6974,-2.719,-2.719,-2.719,-2.719,-2.719,-2.719,-2.719,-2.719,-2.719,-2.726,-2.7412,-2.7626,-2.799,-2.8498,-2.8605,-2.8752,-2.9067,-2.8673,-2.8367,-2.8219,-2.8219,-2.8219,-2.8219,-2.8219,-2.8059,-2.7788,-2.7719,-2.7516,-2.719,-2.719,-2.719,0.0,0.0,0.0,-1.7657,0.0,0.0,0.0,0.0,-1.6413,0.0,0.0,0.0,0.0,0.0,0.0,-1.6413,0.0,0.0,0.0,0.0,0.0,0.0,0.0,0.0,0.0,0.0,0.0,-1.922,-2.0214,-2.0591,-2.0058,-2.3202,-2.4717,-2.3921,-2.4698,-2.5072,-2.4881,-2.4916,-2.4705,-2.4231,-2.4703,-2.4743,-2.4497,-2.4497,-2.4497,-2.4497,-2.4497,-2.4497,-2.4497,-2.4497,-2.4497,-2.4497,-2.4497,-2.4497,-2.4497,-2.4497,-2.4497,-2.454,-2.4497,-2.47,-2.4903,-2.4903,-2.5031,-2.52,-2.52,-2.5073,-2.5031,-2.5475,-2.5422,-2.5327,-2.577,-2.578,-2.5644,-2.5853,-2.5728,-2.5728,-2.6115,-2.6396,-2.6644,-2.685,-2.7056,-2.719,-2.719,-2.719,-2.719,-2.719,-2.719,-2.719,-2.719,-2.719,-2.719,-2.7231,-2.7412,-2.7615,-2.7933,-2.8111,-2.8219,-2.8259,-2.7805,-2.7563,-2.7522,-2.7522,-2.7522,-2.7522,-2.7522,-2.7522,-2.751,-2.7301,-2.7231,-2.719,-2.719,-2.719,0.0,0.0,-1.7492,-1.7492,0.0,0.0,0.0,0.0,0.0,0.0,0.0,0.0,0.0,0.0,-1.7077,-1.6477,-1.6413,0.0,0.0,0.0,0.0,0.0,0.0,0.0,0.0,0.0,0.0,-1.7593,-1.8622,-1.9537,0.0,-2.1822,-2.3109,-2.3905,-2.3968,-2.4026,-2.4144,-2.4047,-2.3977,-2.4002,-2.4148,-2.4335,-2.4497,-2.4497,-2.4497,-2.4497,-2.4497,-2.4497,-2.4497,-2.4497,-2.4497,-2.4497,-2.4497,-2.4497,-2.4497,-2.4497,-2.4497,-2.4497,-2.4497,-2.4658,-2.4903,-2.4903,-2.5031,-2.52,-2.5031,-2.4946,-2.4946,-2.5084,-2.5073,-2.5073,-2.5369,-2.538,-2.538,-2.5644,-2.5654,-2.5696,-2.6115,-2.6396,-2.6644,-2.685,-2.7056,-2.719,-2.719,-2.719,-2.719,-2.719,-2.719,-2.719,-2.719,-2.719,-2.719,-2.719,-2.726,-2.7383,-2.7615,-2.7684,-2.7696,-2.7545,-2.7383,-2.7301,-2.7301,-2.7301,-2.7301,-2.7301,-2.7301,-2.7301,-2.7301,-2.7231,-2.719,-2.719,-2.719,-2.719,-1.9241,-1.8591,0.0,-1.8114,-1.7598,0.0,-1.7124,0.0,0.0,0.0,0.0,0.0,0.0,0.0,0.0,-1.6477,-1.6413,-1.6413,0.0,-1.6413,0.0,0.0,0.0,0.0,0.0,0.0,-1.6581,-1.6722,-1.7728,-1.8583,0.0,0.0,-2.1274,-2.2004,-2.2006,-2.2195,-2.2698,-2.2667,-2.2962,-2.3629,-2.3836,-2.4115,-2.4497,-2.4497,-2.4497,-2.4497,-2.4497,-2.4497,-2.4497,-2.4497,-2.4497,-2.4497,-2.4497,-2.4497,-2.4497,-2.4497,-2.4497,-2.4497,-2.4497,-2.4625,-2.4743,-2.4743,-2.4871,-2.4946,-2.4786,-2.4743,-2.4786,-2.4861,-2.4903,-2.4946,-2.5158,-2.5158,-2.5168,-2.5517,-2.5517,-2.5633,-2.6229,-2.6479,-2.6685,-2.6933,-2.7108,-2.719,-2.719,-2.719,-2.719,-2.719,-2.719,-2.719,-2.719,-2.719,-2.719,-2.719,-2.719,-2.726,-2.7371,-2.7412,-2.733,-2.7231,-2.719,-2.719,-2.719,-2.719,-2.719,-2.719,-2.719,-2.719,-2.719,-2.719,-2.719,-2.719,-2.719,-2.719]}]]